[[{"header":{"parameterUnit":"m.s-1","parameterCategory":1,"la1":30.6,"la2":28.766,"lo1":-90.7593,"lo2":-88.6598,"dy":0.0162,"dx":0.0183,"nx":116,"ny":114,"refTime":"2023-06-07T18:00:00:Z","depth":0,"parameterNumber":2,"parameterNumberName":"U-component_of_WINDS"},"data":[0.0,0.0,0.0,0.0,0.0,0.0,0.0,0.0,0.0,0.0,0.0,0.0,0.0,0.0,0.0,0.0,0.0,0.0,0.0,0.0,0.0,0.0,0.0,0.0,0.0,0.0,0.0,0.0,0.0,0.0,0.0,0.0,0.0,0.0,0.0,0.0,0.0,0.0,0.0,0.0,0.0,0.0,0.0,0.0,0.0,0.0,0.0,0.0,0.0,0.0,0.0,0.0,0.0,0.0,0.0,0.0,0.0,0.0,0.0,0.0,0.0,0.0,0.0,0.0,0.0,0.0,0.0,0.0,0.0,0.0,0.0,0.0,0.0,0.0,0.0,0.0,0.0,0.0,0.0,0.0,0.0,0.0,0.0,0.0,0.0,0.0,0.0,0.0,0.0,0.0,0.0,0.0,0.0,0.0,0.0,0.0,0.0,0.0,0.0,0.0,0.0,0.0,0.0,0.0,0.0,0.0,0.0,0.0,0.0,0.0,0.0,0.0,0.0,0.0,0.0,0.0,0.0,0.0,0.0,0.0,0.0,0.0,0.0,0.0,0.0,0.0,0.0,0.0,0.0,0.0,0.0,0.0,0.0,0.0,0.0,0.0,0.0,0.0,0.0,0.0,0.0,0.0,0.0,0.0,0.0,0.0,0.0,0.0,0.0,0.0,0.0,0.0,0.0,0.0,0.0,0.0,0.0,0.0,0.0,0.0,0.0,0.0,0.0,0.0,0.0,0.0,0.0,0.0,0.0,0.0,0.0,0.0,0.0,0.0,0.0,0.0,0.0,0.0,0.0,0.0,0.0,0.0,0.0,0.0,0.0,0.0,0.0,0.0,0.0,0.0,0.0,0.0,0.0,0.0,0.0,0.0,0.0,0.0,0.0,0.0,0.0,0.0,0.0,0.0,0.0,0.0,0.0,0.0,0.0,0.0,0.0,0.0,0.0,0.0,0.0,0.0,0.0,0.0,0.0,0.0,0.0,0.0,0.0,0.0,0.0,0.0,0.0,0.0,0.0,0.0,0.0,0.0,0.0,0.0,0.0,0.0,0.0,0.0,0.0,0.0,0.0,0.0,0.0,0.0,0.0,0.0,0.0,0.0,0.0,0.0,0.0,0.0,0.0,0.0,0.0,0.0,0.0,0.0,0.0,0.0,0.0,0.0,0.0,0.0,0.0,0.0,0.0,0.0,0.0,0.0,0.0,0.0,0.0,0.0,0.0,0.0,0.0,0.0,0.0,0.0,0.0,0.0,0.0,0.0,0.0,0.0,0.0,0.0,0.0,0.0,0.0,0.0,0.0,0.0,0.0,0.0,0.0,0.0,0.0,0.0,0.0,0.0,0.0,0.0,0.0,0.0,0.0,0.0,0.0,0.0,0.0,0.0,0.0,0.0,0.0,0.0,0.0,0.0,0.0,0.0,0.0,0.0,0.0,0.0,0.0,0.0,0.0,0.0,0.0,0.0,0.0,0.0,0.0,0.0,0.0,0.0,0.0,0.0,0.0,0.0,0.0,0.0,0.0,0.0,0.0,0.0,0.0,0.0,0.0,0.0,0.0,0.0,0.0,0.0,0.0,0.0,0.0,0.0,0.0,0.0,0.0,0.0,0.0,0.0,0.0,0.0,0.0,0.0,0.0,0.0,0.0,0.0,0.0,0.0,0.0,0.0,0.0,0.0,0.0,0.0,0.0,0.0,0.0,0.0,0.0,0.0,0.0,0.0,0.0,0.0,0.0,0.0,0.0,0.0,0.0,0.0,0.0,0.0,0.0,0.0,0.0,0.0,0.0,0.0,0.0,0.0,0.0,0.0,0.0,0.0,0.0,0.0,0.0,0.0,0.0,0.0,0.0,0.0,0.0,0.0,0.0,0.0,0.0,0.0,0.0,0.0,0.0,0.0,0.0,0.0,0.0,0.0,0.0,0.0,0.0,0.0,0.0,0.0,0.0,0.0,0.0,0.0,0.0,0.0,0.0,0.0,0.0,0.0,0.0,0.0,0.0,0.0,0.0,0.0,0.0,0.0,0.0,0.0,0.0,0.0,0.0,0.0,0.0,0.0,0.0,0.0,0.0,0.0,0.0,0.0,0.0,0.0,0.0,0.0,0.0,0.0,0.0,0.0,0.0,0.0,0.0,0.0,0.0,0.0,0.0,0.0,0.0,0.0,0.0,0.0,0.0,0.0,0.0,0.0,0.0,0.0,0.0,0.0,0.0,0.0,0.0,0.0,0.0,0.0,0.0,0.0,0.0,0.0,0.0,0.0,0.0,0.0,0.0,0.0,0.0,0.0,0.0,0.0,0.0,0.0,0.0,0.0,0.0,0.0,0.0,0.0,0.0,0.0,0.0,0.0,0.0,0.0,0.0,0.0,0.0,0.0,0.0,0.0,0.0,0.0,0.0,0.0,0.0,0.0,0.0,0.0,0.0,0.0,0.0,0.0,0.0,0.0,0.0,0.0,0.0,0.0,0.0,0.0,0.0,0.0,0.0,0.0,0.0,0.0,0.0,0.0,0.0,0.0,0.0,0.0,0.0,0.0,0.0,0.0,0.0,0.0,0.0,0.0,0.0,0.0,0.0,0.0,0.0,0.0,0.0,0.0,0.0,0.0,0.0,0.0,0.0,0.0,0.0,0.0,0.0,0.0,0.0,0.0,0.0,0.0,0.0,0.0,0.0,0.0,0.0,0.0,0.0,0.0,0.0,0.0,0.0,0.0,0.0,0.0,0.0,0.0,0.0,0.0,0.0,0.0,0.0,0.0,0.0,0.0,0.0,0.0,0.0,0.0,0.0,0.0,0.0,0.0,0.0,0.0,0.0,0.0,0.0,0.0,0.0,0.0,0.0,0.0,0.0,0.0,0.0,0.0,0.0,0.0,0.0,0.0,0.0,0.0,0.0,0.0,0.0,0.0,0.0,0.0,0.0,0.0,0.0,0.0,0.0,0.0,0.0,0.0,0.0,0.0,0.0,0.0,0.0,0.0,0.0,0.0,0.0,0.0,0.0,0.0,0.0,0.0,0.0,0.0,0.0,0.0,0.0,0.0,0.0,0.0,0.0,0.0,0.0,0.0,0.0,0.0,0.0,0.0,0.0,0.0,0.0,0.0,0.0,0.0,0.0,0.0,0.0,0.0,0.0,0.0,0.0,0.0,0.0,0.0,0.0,0.0,0.0,0.0,0.0,0.0,0.0,0.0,0.0,0.0,0.0,0.0,0.0,0.0,0.0,0.0,0.0,0.0,0.0,0.0,0.0,0.0,0.0,0.0,0.0,0.0,0.0,0.0,0.0,0.0,0.0,0.0,0.0,0.0,0.0,0.0,0.0,0.0,0.0,0.0,0.0,0.0,0.0,0.0,0.0,0.0,0.0,0.0,0.0,0.0,0.0,0.0,0.0,0.0,0.0,0.0,0.0,0.0,0.0,0.0,0.0,0.0,0.0,0.0,0.0,0.0,0.0,0.0,0.0,0.0,0.0,0.0,0.0,0.0,0.0,0.0,0.0,0.0,0.0,0.0,0.0,0.0,0.0,0.0,0.0,0.0,0.0,0.0,0.0,0.0,0.0,0.0,0.0,0.0,0.0,0.0,0.0,0.0,0.0,0.0,0.0,0.0,0.0,0.0,0.0,0.0,0.0,0.0,0.0,0.0,0.0,0.0,0.0,0.0,0.0,0.0,0.0,0.0,0.0,0.0,0.0,0.0,0.0,0.0,0.0,0.0,0.0,0.0,0.0,0.0,0.0,0.0,0.0,0.0,0.0,0.0,0.0,0.0,0.0,0.0,0.0,0.0,0.0,0.0,0.0,0.0,0.0,0.0,0.0,0.0,0.0,0.0,0.0,0.0,0.0,0.0,0.0,0.0,0.0,0.0,0.0,0.0,0.0,0.0,0.0,0.0,0.0,0.0,0.0,0.0,0.0,0.0,0.0,0.0,0.0,0.0,0.0,0.0,0.0,0.0,0.0,0.0,0.0,0.0,0.0,0.0,0.0,0.0,0.0,0.0,0.0,0.0,0.0,0.0,0.0,0.0,0.0,0.0,0.0,0.0,0.0,0.0,0.0,0.0,0.0,0.0,0.0,0.0,0.0,0.0,0.0,0.0,0.0,0.0,0.0,0.0,0.0,0.0,0.0,0.0,0.0,0.0,0.0,0.0,0.0,0.0,0.0,0.0,0.0,0.0,0.0,0.0,0.0,0.0,0.0,0.0,0.0,0.0,0.0,0.0,0.0,0.0,0.0,0.0,0.0,0.0,0.0,0.0,0.0,0.0,0.0,0.0,0.0,0.0,0.0,0.0,0.0,0.0,0.0,0.0,0.0,0.0,0.0,0.0,0.0,0.0,0.0,0.0,0.0,0.0,0.0,0.0,0.0,0.0,0.0,0.0,0.0,0.0,0.0,0.0,0.0,0.0,0.0,0.0,0.0,0.0,0.0,0.0,0.0,0.0,0.0,0.0,0.0,0.0,0.0,0.0,0.0,0.0,0.0,0.0,0.0,0.0,0.0,0.0,0.0,0.0,0.0,0.0,0.0,0.0,0.0,0.0,0.0,0.0,0.0,0.0,0.0,0.0,0.0,0.0,0.0,0.0,0.0,0.0,0.0,0.0,0.0,0.0,0.0,0.0,0.0,0.0,0.0,0.0,0.0,0.0,0.0,0.0,0.0,0.0,0.0,0.0,0.0,0.0,0.0,0.0,0.0,0.0,0.0,0.0,0.0,0.0,0.0,0.0,0.0,0.0,0.0,0.0,0.0,0.0,0.0,0.0,0.0,0.0,0.0,0.0,0.0,0.0,0.0,0.0,0.0,0.0,0.0,0.0,0.0,0.0,0.0,0.0,0.0,0.0,0.0,0.0,0.0,0.0,0.0,0.0,0.0,0.0,0.0,0.0,0.0,0.0,0.0,0.0,0.0,0.0,0.0,0.0,0.0,0.0,0.0,0.0,0.0,0.0,0.0,0.0,0.0,0.0,0.0,0.0,0.0,0.0,0.0,0.0,0.0,0.0,0.0,0.0,0.0,0.0,0.0,0.0,0.0,0.0,0.0,0.0,0.0,0.0,0.0,0.0,0.0,0.0,0.0,0.0,0.0,0.0,0.0,0.0,0.0,0.0,0.0,0.0,0.0,0.0,0.0,0.0,0.0,0.0,0.0,0.0,0.0,0.0,0.0,0.0,0.0,0.0,0.0,0.0,0.0,0.0,0.0,0.0,0.0,0.0,0.0,0.0,0.0,0.0,0.0,0.0,0.0,0.0,0.0,0.0,0.0,0.0,0.0,0.0,0.0,0.0,0.0,0.0,0.0,0.0,0.0,0.0,0.0,0.0,0.0,0.0,0.0,0.0,0.0,0.0,0.0,0.0,0.0,0.0,0.0,0.0,0.0,0.0,0.0,0.0,0.0,0.0,0.0,0.0,0.0,0.0,0.0,0.0,0.0,0.0,0.0,0.0,0.0,0.0,0.0,0.0,0.0,0.0,0.0,0.0,0.0,0.0,0.0,0.0,0.0,0.0,0.0,0.0,0.0,0.0,0.0,0.0,0.0,0.0,0.0,0.0,0.0,0.0,0.0,0.0,0.0,0.0,0.0,0.0,0.0,0.0,0.0,0.0,0.0,0.0,0.0,0.0,0.0,0.0,0.0,0.0,0.0,0.0,0.0,0.0,0.0,0.0,0.0,0.0,0.0,0.0,0.0,0.0,0.0,0.0,0.0,0.0,0.0,0.0,0.0,0.0,0.0,0.0,0.0,0.0,0.0,0.0,0.0,0.0,0.0,0.0,0.0,0.0,0.0,0.0,0.0,0.0,0.0,0.0,0.0,0.0,0.0,0.0,0.0,0.0,0.0,0.0,0.0,0.0,0.0,0.0,0.0,0.0,0.0,0.0,0.0,0.0,0.0,0.0,0.0,0.0,0.0,0.0,0.0,0.0,0.0,0.0,0.0,0.0,0.0,0.0,0.0,0.0,0.0,0.0,0.0,0.0,0.0,0.0,0.0,0.0,0.0,0.0,0.0,0.0,0.0,0.0,0.0,0.0,0.0,0.0,0.0,0.0,0.0,0.0,0.0,0.0,0.0,0.0,0.0,0.0,0.0,0.0,0.0,0.0,0.0,0.0,0.0,0.0,-0.1342,0.0,0.0,0.0,0.0,0.0,0.0,0.0,0.0,0.0,0.0,0.0,0.0,0.0,0.0,0.0,0.0,0.0,0.0,0.0,0.0,0.0,0.0,0.0,0.0,0.0,0.0,0.0,0.0,0.0,0.0,0.0,0.0,0.0,0.0,0.0,0.0,0.0,0.0,0.1994,0.1837,0.0932,-0.0646,-0.0478,-0.0506,-0.071,0.0,0.0,0.0,0.0,0.0,0.0,0.0,0.0,0.0,0.0,0.0,0.0,0.0,0.0,0.0,0.0,0.0,0.0,0.0,0.0,0.0,0.0,0.0,0.0,0.0,0.0,0.0,0.0,0.0,0.0,0.0,0.0,0.0,0.0,0.0,0.0,0.0,0.0,0.0,0.0,0.0,0.0,0.0,0.0,0.0,0.0,0.0,0.0,0.0,0.0,0.0,0.0,0.0,0.0,0.0,0.0,0.0,0.0,0.0,0.0,0.0,0.0,0.0,0.0,0.0,0.0,0.0,0.0,0.0,0.0,0.0,-0.129,0.0,0.0,0.0,0.0,0.0,0.0,0.0,0.0,0.0,0.0,0.0,0.0,0.0,0.0,0.0,0.0,0.0,0.0,0.0,0.0,0.0,0.0,0.0,0.0,-0.0475,0.0792,0.0421,0.0487,0.0,0.0,0.0,0.0,0.0,0.0,0.0,0.2043,0.1926,0.1512,0.0412,-0.0705,-0.1869,-0.2411,-0.2649,-0.2585,-0.106,0.0,0.0,0.0,0.0,0.0,0.0,0.0,0.0,0.0,0.0,0.0,0.0,0.0,0.0,0.0,0.0,0.0,0.0,0.0,0.0,0.0,0.0,0.0,0.0,0.0,0.0,0.0,0.0,0.0,0.0,0.0,0.0,0.0,0.0,0.0,0.0,0.0,0.0,0.0,0.0,0.0,0.0,0.0,0.0,0.0,0.0,0.0,0.0,0.0,0.0,0.0,0.0,0.0,0.0,0.0,0.0,0.0,0.0,0.0,0.0,0.0,0.0,0.0,0.0223,0.0838,0.2363,0.0474,-0.0561,-0.0897,-0.0881,-0.0547,-0.0066,0.0,0.0,0.0,0.0,0.0,0.0,0.0,0.0,0.0,0.0,0.0,0.0,0.0,0.0,0.0,0.0,0.0,0.0,0.0,0.0,0.0,0.0,0.0607,0.0723,0.0876,0.1044,0.1171,0.0,0.0,0.0,0.0,0.0,0.0,0.2101,0.1989,0.1561,0.0753,-0.1752,-0.3227,-0.3648,-0.4168,-0.4549,-0.4876,-0.2589,-0.1866,-0.2184,0.0,0.0,0.0,0.0,0.0,0.0,0.0,0.0,0.0,0.0,0.0,0.0,0.0,0.0,0.0,0.0,0.0,0.0,0.0,0.0,0.0,0.0,0.0,0.0,0.0,0.0,0.0,0.0,0.0,0.0,0.0,0.0,0.0,0.0,0.0,0.0,0.0,0.0,0.0,0.0,0.0,-0.0434,-0.0375,0.0,0.0,0.0,0.0,0.0,0.0,0.0,0.0,0.0,0.0,0.0,0.0,0.0,0.0,0.0531,0.025,0.0345,0.0849,0.0274,0.0093,0.0361,-0.0184,-0.0563,-0.0954,-0.1389,0.0,-0.0,-0.0135,0.0,0.0,0.0,0.0,0.0,0.0,0.0,0.0,0.0,0.0,0.0,0.0,0.0,0.0,0.0,0.0,0.0,0.0,0.0,0.0,0.0,0.0296,-0.0155,0.0109,-0.0935,-0.1276,-0.0546,-0.076,0.0,0.0,0.0,0.047,0.1477,0.0787,-0.0337,-0.1844,-0.3429,-0.4635,-0.5514,-0.5811,-0.6075,-0.6194,-0.5032,-0.4016,-0.3145,-0.223,0.0,0.0,0.0,0.0,0.0,0.0,0.0,0.0,0.0,0.0,0.0,0.0,0.0,0.0,0.0,0.0,0.0,0.0,0.0,0.0,0.0,0.0,0.0,0.0,0.0,0.0,0.0,0.0,0.0,0.0,0.0,0.0,0.0,0.0,0.0,0.0,0.0,0.0,0.0,-0.0591,-0.053,0.0419,0.0164,0.0385,0.0,0.0,0.0,0.0,0.0,0.0,0.0,0.0,0.0,0.1771,0.1145,0.0692,0.0182,0.0097,0.0099,0.0399,0.0103,-0.0,-0.0,-0.0103,-0.0208,-0.0418,-0.0718,-0.049,-0.0,-0.0,-0.0302,-0.078,0.0,0.0,0.0,0.0,0.0,-0.2038,0.0,0.0,0.0,0.0,0.0,0.0,0.0,0.0,0.0,0.0,0.0,0.0,0.0552,-0.0697,-0.1429,-0.1207,-0.2616,-0.3071,-0.2035,-0.1932,-0.1512,-0.0666,-0.0692,-0.0307,0.0503,-0.1027,-0.275,-0.4519,-0.5706,-0.6624,-0.7435,-0.7599,-0.7439,-0.7207,-0.7051,-0.6121,-0.4517,-0.3626,-0.2946,-0.2308,0.0,0.0,0.0,0.0,0.0,0.0,0.0,0.0,0.0,0.0,0.0,0.0,0.0,0.0,0.0,0.0,0.0,0.0,0.0,0.0,0.0,0.0,0.0,0.0,0.0,0.0,0.0,0.0,0.0,0.0,0.0,0.0,0.0,0.0,0.0,0.0,0.0,-0.1155,-0.1305,-0.0058,-0.0318,-0.0,0.0,0.0,0.0,0.0,0.0,0.0,0.253,0.1394,0.0866,0.1026,0.0686,0.0306,-0.0,-0.0,-0.0,-0.0,-0.1674,-0.2455,-0.2455,-0.1672,-0.1226,-0.1225,-0.1204,-0.1303,-0.1184,-0.038,-0.0,-0.0083,-0.0818,-0.145,-0.2067,-0.275,-0.2695,-0.2066,0.0,0.0,0.0,0.0,0.0,0.0,0.0,0.0,0.0,0.0,0.0,-0.1409,-0.155,-0.2087,-0.2591,-0.2945,-0.2698,-0.2356,-0.2086,-0.2037,-0.1623,-0.0794,-0.1306,-0.1269,-0.0467,-0.3448,-0.547,-0.6446,-0.9209,-1.0115,-0.9376,-0.9571,-0.9087,-0.7977,-0.7824,-0.7326,-0.6622,-0.5182,-0.4708,-0.4745,-0.3098,0.0,0.0,0.0,0.0,0.0,0.0,0.0,0.0,0.0,0.0,0.0,0.0,0.0,0.0,0.0,0.0,0.0,0.0,0.0,0.0,0.0,0.0,0.0,0.0,0.0,0.0,0.0,0.0,0.0,0.0,0.0,0.0,0.0,0.0,0.0,0.0,0.0,0.0,-0.3554,-0.0831,0.0,0.0,0.0,0.0,0.1074,0.0678,0.1428,0.3384,0.1845,0.0608,0.0111,-0.0,-0.0,-0.0,-0.0,-0.0,-0.0117,-0.6352,-0.9332,-0.9212,-0.6094,-0.4674,-0.4669,-0.4709,-0.4676,-0.4413,-0.1328,-0.0,-0.0,-0.0091,-0.0534,-0.1335,-0.2676,-0.3165,-0.2851,0.0,0.0,0.0,0.0,0.0,0.0,0.0,0.0,-0.0766,0.0229,-0.1276,-0.2153,-0.1295,-0.2772,-0.3912,-0.4243,-0.4867,-0.5138,-0.474,-0.4398,-0.3876,-0.3057,-0.2813,-0.2831,-0.3035,-0.496,-0.6678,-0.8209,-0.9478,-1.0095,-0.9964,-0.916,-0.8632,-0.818,-0.8028,-0.7787,-0.7451,-0.6495,-0.5712,-0.5017,-0.4348,-0.3527,0.0,0.0,0.0,0.0,0.0,0.0,0.0,0.0,0.0,0.0,0.0,0.0,0.0,0.0,0.0,0.0,0.0,0.0,0.0,0.0,0.0,0.0,0.0,0.0,0.0,0.0,0.0,0.0,0.0,0.0,0.0,0.0,0.0,0.0,0.0,0.0,0.0,-0.2557,-0.2099,0.0,0.0629,0.129,0.0473,-0.2022,-0.5041,-0.5378,-0.2309,-0.0564,0.0232,-0.0,-0.0,-0.0,-0.0,-0.0,-0.0,-0.0123,-0.6671,-0.9825,-0.9755,-0.8631,-0.8016,-0.8008,-0.8,-0.8108,-0.792,-0.6779,-0.5112,-0.3168,-0.3127,-0.3319,-0.3631,-0.4154,-0.414,-0.3914,0.0,0.0,0.0,0.0,0.0,0.0,0.0,0.0,-0.1428,-0.14,-0.2364,-0.2909,-0.2621,-0.4174,-0.5385,-0.5675,-0.649,-0.6668,-0.6236,-0.5693,-0.4996,-0.4339,-0.4302,-0.4686,-0.5571,-0.7378,-0.8812,-0.9948,-1.0848,-1.0904,-1.0163,-0.9426,-0.9024,-0.8965,-0.8362,-0.8226,-0.8538,-0.7709,-0.6714,-0.5668,-0.531,-0.4638,-0.3837,0.0,0.0,0.0,0.0,0.0,0.0,0.0,0.0,0.0,0.0,0.0,0.0,0.0,0.0,0.0,0.0,0.0,0.0,0.0,0.0,0.0,0.0,0.0,0.0,0.0,0.0,0.0,0.0,0.0,0.0,0.0,0.0,0.0,0.0,0.0,-0.3168,-0.1027,-0.3449,-0.3739,0.0313,0.0647,-0.1441,-0.6172,-0.9122,-0.9659,-0.7253,-0.4972,-0.2522,-0.0128,-0.0,-0.0,-0.0,-0.0,-0.1162,-0.3689,-0.6713,-0.8768,-0.9839,-0.9885,-0.9851,-0.9847,-0.9799,-0.9806,-0.9847,-0.9799,-0.8537,-0.6568,-0.6509,-0.6598,-0.6598,-0.6598,-0.6415,-0.6095,0.0,0.0,0.0,0.0,0.0,0.0,0.0,-0.056,-0.1407,-0.4046,-0.3724,-0.3896,-0.5768,-0.643,-0.6973,-0.743,-0.7186,-0.6779,-0.6515,-0.5587,-0.4828,-0.4302,-0.5523,-0.6685,-0.7731,-1.0584,-1.1904,-1.1497,-1.3238,-1.2689,-1.0281,-1.0364,-1.0351,-1.0171,-0.8976,-0.8989,-1.0019,-0.8813,-0.787,-0.6946,-0.6131,-0.5848,-0.5772,0.0,0.0,0.0,0.0,0.0,0.0,0.0,0.0,0.0,0.0,0.0,0.0,0.0,0.0,0.0,0.0,0.0,0.0,0.0,0.0,0.0,0.0,0.0,0.0,0.0,0.0,0.0,0.0,0.0,0.0,0.0,0.0,0.0,-0.2391,-0.2946,-0.2436,0.0306,-0.5064,-0.6346,0.0465,0.0372,-0.3236,-1.0816,-1.0957,-1.0687,-1.0662,-1.0692,-0.7481,-0.0537,-0.0133,-0.0,-0.0,-0.0,-0.3536,-1.0656,-0.6859,-0.6795,-1.0086,-0.9914,-0.9836,-0.9842,-0.9992,-0.9971,-0.9846,-0.9995,-0.9968,-0.9805,-0.9804,-0.9824,-0.9824,-0.9824,-0.9603,-0.9325,0.0,0.0,0.0,0.0,0.0,0.0,0.0,-0.1454,-0.2062,-0.2295,-0.4098,-0.5279,-0.505,-0.7573,-0.9095,-0.8766,-0.8257,-0.797,-0.7959,-0.6111,-0.4986,-0.4765,-0.5559,-0.6862,-0.8689,-0.9701,-1.0899,-1.2333,-1.1868,-1.1822,-1.2021,-1.0095,-1.0128,-1.1889,-1.057,-1.0671,-1.1705,-1.0493,-0.9892,-0.9457,-0.764,-0.6557,-0.5808,0.0,0.0,0.0,0.0,0.0,0.0,0.0,0.0,0.0,0.0,0.0,0.0,0.0,0.0,0.0,0.0,0.0,0.0,0.0,0.0,0.0,0.0,0.0,0.0,0.0,0.0,0.0,0.0,0.0,0.0,0.0,0.0,0.0938,-0.0,-0.3201,-0.5444,-0.5573,-0.8736,-0.7855,-0.04,0.0136,-0.2051,-0.6981,-0.9808,-1.1248,-1.0956,-1.0786,-0.982,-0.7781,-0.2763,-0.0,-0.0,-0.0,-0.3624,-1.0685,-0.9552,-0.9588,-1.0253,-1.0185,-1.0154,-1.0158,-1.0198,-1.0195,-1.0158,-1.0198,-1.0127,-0.9968,-0.9791,-0.984,-0.984,-0.984,-0.9679,-0.9317,0.0,0.0,0.0,0.0,0.0,0.0,0.0,-0.1747,-0.2255,-0.2469,-0.4511,-0.5814,-0.5646,-0.7874,-0.9074,-0.8349,-0.8014,-0.7697,-0.7545,-0.6678,-0.6421,-0.6968,-0.8126,-0.9189,-1.0057,-1.0976,-1.1497,-1.1672,-1.1572,-1.1778,-1.1986,-1.0446,-1.0808,-1.2635,-1.0742,-1.0531,-1.1517,-1.0377,-0.9785,-0.9676,-0.84,-0.7538,-0.6945,-0.6075,-0.5681,-0.5388,-0.4678,-0.4763,-0.507,-0.438,0.0,0.0,0.0,0.0,0.0,0.0,0.0,0.0,0.0,0.0,0.0,0.0,0.0,0.0,0.0,0.0,0.0,0.0,0.0,0.0,0.0,0.0,0.0,0.0,-0.2923,-0.2063,-0.2246,-0.6092,-0.8463,-0.7257,-0.6869,-0.6184,-0.5034,-0.1876,-0.0867,-0.3174,-0.8476,-1.0741,-0.8962,-1.0046,-1.0722,-1.0852,-0.7023,-0.405,-0.2488,-0.2336,-0.5169,-1.0768,-1.0633,-1.0504,-1.0388,-1.0314,-1.028,0.0,-1.0344,-1.0334,-1.0287,-1.0344,-1.0283,0.0,0.0,0.0,0.0,0.0,-0.9625,-0.9456,0.0,0.0,0.0,0.0,0.0,0.0,0.0,-0.1727,-0.226,-0.3779,-0.4903,-0.5955,-0.6851,-0.7897,-0.8183,-0.7253,-0.7172,-0.6936,-0.6487,-0.7422,-0.8585,-0.9883,-1.1734,-1.234,-1.1641,-1.3046,-1.2694,-1.0535,-1.1774,-1.1861,-1.1001,-1.0998,-1.1731,-1.277,-1.03,-0.9768,-1.0619,-0.9437,-0.8894,-0.8765,-0.8646,-0.8513,-0.83,-0.7034,-0.6596,-0.6552,-0.5537,-0.5336,-0.5593,-0.5422,0.0,0.0,0.0,0.0,0.0,0.0,0.0,0.0,0.0,0.0,0.0,0.0,0.0,0.0,0.0,0.0,0.0,0.0,0.0,0.0,0.0,0.0,0.0,0.0,-0.6707,-0.8614,-0.7084,-1.0084,-1.0963,-0.699,-0.3507,-0.3861,-1.0316,-0.4811,-0.1058,-0.1358,-0.7417,-0.9537,-0.6272,0.0,0.0,0.0,0.0,-0.9888,-0.644,-0.6222,-0.7691,-1.0982,-1.0585,-1.0434,-1.0514,-1.0388,-1.0331,-1.0337,-1.0463,-1.0446,-1.0341,-1.0466,-1.0422,-1.0263,-1.011,-0.9958,-0.9805,-0.968,-0.9612,0.0,0.0,0.0,0.0,0.0,0.0,0.0,0.0,-0.2343,-0.2859,-0.4142,-0.5513,-0.6607,-0.7154,-0.917,-0.9993,-0.8812,-0.8713,-0.859,-0.8054,-0.8669,-0.9647,-1.0847,-1.1548,-1.2173,-1.2684,-1.2072,-1.1463,-1.1101,-1.0401,-1.0416,-1.1155,-1.0122,-1.0822,-1.2891,-1.1457,-1.1418,-1.2407,-1.1296,-1.0806,-1.0651,-0.9329,-0.8703,-0.8438,-0.7856,-0.7806,-0.7892,-0.7436,-0.7517,-0.7717,-0.6758,-0.6734,-0.6904,-0.5452,-0.5109,0.0,0.0,0.0,0.0,0.0,0.0,0.0,0.0,0.0,0.0,0.0,0.0,0.0,0.0,0.0,0.0,0.0,0.0,0.0,-0.633,-0.8959,-1.0732,-1.0464,-1.1511,-1.2018,-1.1221,-1.0453,-0.9174,-0.7523,-0.6771,-0.7377,-0.9658,-0.8265,-0.7338,-0.7616,-0.7082,0.0,-0.6881,-0.9905,-1.1272,-1.042,-1.0389,-1.0537,-1.0985,0.0,0.0,-1.0673,-1.0649,-1.0636,-1.0636,-1.0663,-1.066,-1.0636,-1.0663,-1.0521,-1.0263,-1.011,-0.9958,-0.9819,-0.9791,-0.9629,-0.9422,0.0,0.0,0.0,0.0,0.0,0.0,0.0,-0.3166,-0.3881,-0.5333,-0.6578,-0.7516,-0.7991,-0.9383,-0.969,-0.8356,-0.8459,-0.8918,-0.9563,-1.0439,-1.1618,-1.3246,-1.3838,-1.3805,-1.2971,-1.2559,-1.1668,-1.0391,-1.0364,-1.0768,-1.126,-1.0685,-1.0972,-1.2124,-1.0876,-1.0681,-1.1168,-1.0584,-1.0391,-1.0258,-0.9245,-0.8889,-0.8784,-0.8489,-0.8374,-0.8347,-0.8123,-0.8231,-0.8414,-0.7572,-0.7617,-0.7778,-0.6591,-0.6026,-0.5686,0.0,0.0,0.0,0.0,0.0,0.0,0.0,0.0,0.0,0.0,0.0,0.0,0.0,0.0,-0.5377,-0.6002,0.0,-0.6717,-0.8726,-1.0426,-1.165,-1.1794,-1.2086,-1.2247,-1.2411,-1.246,-1.1654,-0.9621,-1.0144,-1.1131,-1.2414,-1.0554,-0.9703,-1.0159,-0.9532,-0.913,-0.8966,-1.0813,-1.1748,-1.1657,-1.1511,-1.1314,-1.1073,-1.1002,-1.088,-1.0721,-1.0721,-1.0721,-1.0721,-1.0721,-1.0721,-1.0721,-1.0721,-1.0588,-1.0371,-1.0222,-1.0022,-0.9822,-0.9822,-0.9727,-0.9602,0.0,0.0,0.0,0.0,0.0,0.0,0.0,-0.3913,-0.4766,-0.6411,-0.7357,-0.8129,-0.8776,-0.9219,-0.8998,-0.7874,-0.8101,-0.9053,-1.0958,-1.2055,-1.3545,-1.5518,-1.6326,-1.5566,-1.3168,-1.3352,-1.2203,-0.9425,-1.0597,-1.1093,-1.0924,-1.1069,-1.106,-1.0928,-0.9939,-0.9655,-0.9884,-0.9538,-0.9655,-0.9859,-0.9243,-0.9076,-0.9127,-0.8886,-0.8686,-0.8513,-0.8397,-0.8374,-0.8367,-0.8187,-0.8269,-0.8307,-0.7913,-0.697,-0.5857,-0.4894,-0.3665,0.0,0.0,0.0,0.0,0.0,0.0,0.0,0.0,-0.4956,-0.5185,-0.6187,-0.6265,-0.6556,-0.8048,-0.7774,-0.811,-1.0498,-1.1386,-1.1942,-1.205,-1.2213,-1.2301,-1.2328,-1.2593,-1.2773,-1.2608,-1.2765,-1.303,-1.303,-1.2779,-1.2474,-1.2474,-1.2501,-1.2319,-1.2289,-1.1965,-1.186,-1.183,-1.1569,-1.1345,-1.1162,-1.1046,-1.0894,-1.0721,-1.0721,-1.0721,-1.0721,-1.0721,-1.0721,-1.0721,-1.0721,-1.0612,-1.0439,-1.0324,-1.009,-0.9822,-0.9822,-0.9802,-0.9781,0.0,0.0,0.0,0.0,0.0,0.0,0.0,0.0,-0.4938,-0.6553,-0.7058,-0.7646,-0.8858,-0.9258,-0.94,-0.9302,-0.926,-1.0159,-1.2458,-1.3134,-1.4401,-1.6473,-1.6653,-1.5738,-1.3718,-1.3645,-1.2285,-0.9585,-0.9827,-0.9933,-0.979,-0.9808,-0.9808,-0.979,-0.9693,-1.0395,-1.167,-1.0166,-1.0395,-1.1536,-0.9968,-0.9259,-0.915,-0.9117,-0.893,-0.8682,-0.8665,-0.8414,-0.8123,-0.8353,-0.8277,-0.8237,-0.8895,-0.711,-0.4482,-0.314,-0.3257,-0.3773,-0.3435,-0.3145,-0.3277,-0.4815,-0.4923,-0.5346,0.0,-0.7861,-0.781,-0.9026,-0.9605,-0.9936,-1.0146,-1.0392,-1.0809,-1.1457,-1.167,-1.1898,-1.222,-1.2281,-1.2338,-1.2464,-1.263,-1.2735,-1.2735,-1.2878,-1.2973,-1.2973,-1.2813,-1.2715,-1.2715,-1.2437,-1.2274,-1.2271,-1.1989,-1.1833,-1.183,-1.1674,-1.145,-1.1162,-1.1148,-1.0992,-1.0721,-1.0721,-1.0721,-1.0721,-1.0721,-1.0721,-1.0721,-1.0721,-1.0558,-1.0304,-1.0287,-1.009,-0.9822,-0.9822,-0.9741,-0.9632,0.0,0.0,0.0,0.0,0.0,0.0,0.0,0.0,0.0,-0.7695,-0.8146,-0.8569,-0.9252,-0.9365,-0.9344,-0.9441,-0.9765,-1.0609,-1.2367,-1.3188,-1.4556,-1.6613,-1.6707,-1.6191,-1.5153,-1.4148,-1.2832,-1.1156,-1.1226,-1.0699,-0.9608,-1.1476,-1.1358,-0.9608,-1.0539,-1.0944,-1.0677,-0.9968,-1.0088,-1.0662,-0.9804,-0.9422,-0.9266,-0.9093,-0.8733,-0.824,-0.7771,-0.7458,0.0,-0.7289,-0.7322,-0.7253,-0.7108,-0.5892,-0.4455,-0.3754,-0.37,-0.3732,-0.3221,-0.3426,-0.3965,-0.5193,-0.6319,-0.7375,-0.8326,-0.8394,-0.8688,-1.0076,-1.0565,-1.0839,-1.1101,-1.1304,-1.1528,-1.183,-1.1999,-1.2172,-1.2383,-1.2267,-1.2145,-1.2115,-1.2169,-1.2345,-1.2698,-1.2946,-1.3051,-1.2969,-1.2901,-1.2827,-1.2735,-1.2528,-1.2413,-1.2413,-1.2121,-1.1965,-1.1965,-1.1735,-1.1511,-1.1294,-1.1206,-1.1053,-1.085,-1.0761,-1.0721,-1.0721,-1.0721,-1.0721,-1.0721,-1.0721,-1.0595,-1.0395,-1.0314,-1.0144,-0.9944,-0.9852,-0.9785,-0.9734,0.0,0.0,0.0,0.0,0.0,0.0,0.0,0.0,0.0,0.0,-0.8951,-0.9232,-0.9691,-0.947,-0.9374,-0.9576,-1.0018,-1.0725,-1.1982,-1.2936,-1.4243,-1.6146,-1.6453,-1.6401,-1.5958,-1.4912,-1.3914,-1.2808,-1.2808,-1.2269,-1.1082,-1.3306,-1.3217,-1.1148,-1.1802,-1.1758,-1.1206,-1.0197,-1.0061,-1.0407,-0.9786,-0.9493,-0.9279,-0.894,-0.8496,-0.7979,-0.7467,-0.694,-0.6407,-0.5899,-0.6147,-0.6429,-0.5854,-0.5411,-0.4847,-0.4298,-0.3868,-0.3466,-0.2935,-0.3622,-0.4577,-0.5073,-0.7261,-0.9179,-0.8897,-0.9001,-0.9645,-1.0642,-1.1026,-1.1233,-1.1558,-1.165,-1.1762,-1.202,-1.2189,-1.2325,-1.243,-1.2186,-1.1942,-1.1789,-1.1697,-1.1833,-1.2315,-1.2705,-1.2918,-1.2898,-1.2857,-1.2803,-1.2732,-1.2583,-1.2501,-1.2501,-1.2257,-1.2104,-1.206,-1.1806,-1.1582,-1.1389,-1.1236,-1.1087,-1.0945,-1.0792,-1.0721,-1.0721,-1.0721,-1.0721,-1.0721,-1.0721,-1.0629,-1.0477,-1.0334,-1.0185,-1.0029,-0.9876,-0.9822,-0.9822,0.0,0.0,0.0,0.0,0.0,0.0,0.0,0.0,0.0,0.0,0.0,0.0,0.0,-0.9511,-0.9367,-1.0104,-1.0086,-1.051,-1.17,-1.2492,-1.3576,-1.4963,-1.5832,-1.6113,-1.5695,-1.5958,-1.5532,-1.4485,-1.4485,-1.448,-1.4475,-1.4594,-1.4705,-1.4781,-1.3004,-1.3152,-1.4659,-1.1206,-1.0657,-1.196,-1.0256,-0.9429,-0.911,-0.8665,-0.8426,-0.8282,-0.8292,-0.7127,-0.5428,-0.4375,-0.491,-0.5972,-0.6381,-0.6132,-0.5458,-0.4298,-0.3567,-0.3146,-0.268,-0.356,-0.4474,-0.448,-0.7428,-1.0328,-1.0273,-1.0588,-1.0995,-1.1307,-1.1494,-1.1603,-1.1616,-1.1731,-1.1877,-1.2037,-1.2189,-1.2291,-1.2294,-1.2033,-1.1786,-1.1643,-1.1362,-1.125,0.0,-1.1969,-1.2433,-1.2715,-1.26,-1.2579,-1.2722,-1.2583,-1.2501,-1.2501,-1.2359,-1.221,-1.2064,-1.1904,-1.1677,-1.1389,-1.1236,-1.1087,-1.0945,-1.0792,-1.0721,-1.0721,-1.0721,-1.0721,-1.0721,-1.0721,-1.0629,-1.0477,-1.0334,-1.0185,-1.0029,-0.9876,-0.9822,-0.9822,0.0,0.0,0.0,0.0,0.0,0.0,0.0,0.0,0.0,0.0,0.0,0.0,0.0,0.0,0.0,0.0,-0.9874,-1.0341,-1.132,-1.2124,-1.3054,-1.4329,-1.5224,-1.586,-1.6119,-1.5533,-1.5252,-1.5305,-1.546,-1.5155,-1.4372,-1.6484,-1.6506,-1.47,-1.3878,-1.3309,-1.3027,-1.0804,-1.0058,-1.0507,-0.9676,-0.9245,-0.8967,-0.7371,-0.7251,-0.7708,0.0,-0.4751,-0.3807,-0.3099,-0.3512,-0.4437,-0.5787,-0.5656,-0.4718,-0.372,-0.328,-0.3395,-0.416,-0.5112,-0.6335,-0.8159,-0.9734,-1.0863,-1.0905,-1.0982,-1.1148,-1.1348,-1.0701,-1.0062,-1.0062,-1.0169,-1.0304,-1.0448,-1.1484,-1.2138,-1.2138,-1.205,-1.1816,-1.1369,-1.1226,0.0,0.0,0.0,0.0,-1.2264,-1.2332,-1.2423,-1.2569,-1.2528,-1.2501,-1.2501,-1.2366,-1.2247,-1.2155,-1.1938,-1.1735,-1.1538,-1.1361,-1.1111,-1.0795,-1.0744,-1.0721,-1.0721,-1.0721,-1.0721,-1.0721,-1.0721,-1.0575,-1.0348,-1.03,-1.0124,-0.989,-0.9839,-0.9822,-0.9822,0.0,0.0,0.0,0.0,0.0,0.0,0.0,0.0,0.0,0.0,0.0,0.0,0.0,0.0,0.0,0.0,0.0,-1.0008,-1.066,-1.1303,-1.2124,-1.3174,-1.3965,-1.4751,-1.535,-1.4643,-1.4625,-1.5123,-1.5505,-1.5285,-1.4543,-1.707,-1.7309,-1.5607,-1.4416,-1.3451,-1.2606,-1.0457,-0.9479,-0.9528,-0.9181,-0.9088,-0.8699,-0.6688,-0.6324,0.0,-0.4353,-0.327,-0.2766,-0.2641,-0.294,-0.3568,-0.4814,-0.4792,-0.4172,-0.3758,-0.375,-0.3983,-0.4685,-0.609,-0.7939,-1.0141,-1.0881,-1.1021,-1.1026,-1.1087,-1.1084,-1.1073,-1.0148,-0.9279,-0.9184,-0.9233,-0.9202,-0.9077,-1.0033,-1.1005,-1.1266,-1.1172,-1.1173,-1.1338,-1.1185,-1.1053,0.0,0.0,0.0,-1.1881,-1.2094,-1.2294,-1.2491,-1.2501,-1.2525,-1.2579,-1.244,-1.2322,-1.223,-1.202,-1.1759,-1.1453,-1.1337,-1.1087,-1.0721,-1.0721,-1.0721,-1.0721,-1.0721,-1.0721,-1.0721,-1.0721,-1.0575,-1.0351,-1.03,-1.0127,-0.9897,-0.9839,-0.9822,-0.9822,0.0,0.0,0.0,0.0,0.0,0.0,0.0,0.0,0.0,0.0,0.0,0.0,0.0,0.0,0.0,0.0,0.0,0.0,-0.9819,-1.0245,-1.0799,-1.1468,-1.2259,-1.2952,-1.3591,-1.3467,-1.3591,-1.388,-1.457,-1.4923,-1.5016,-1.6244,-1.7071,-1.7141,-1.4327,-1.3171,-1.3272,-1.0029,-0.8818,-0.9029,-0.8748,-0.8511,-0.8096,-0.6545,-0.5625,-0.5036,-0.3394,-0.254,-0.2267,-0.2921,-0.3169,-0.3415,-0.3828,-0.3975,-0.3948,-0.4451,-0.4872,-0.5072,-0.4609,-0.6593,-0.9176,-1.0369,-1.0795,-1.0955,-1.0941,-1.0924,-1.0826,-1.051,-0.969,-0.9026,-0.8628,-0.8725,-0.8555,-0.7839,-0.849,-0.9202,-0.9994,-0.9774,-1.0046,-1.1415,-1.1263,-1.1114,-1.1389,-1.1284,0.0,-1.1609,0.0,-1.2186,-1.2494,-1.2505,-1.2569,-1.2715,-1.2576,-1.2427,-1.2274,-1.2108,-1.1738,-1.1168,-1.1151,-1.0992,-1.0721,-1.0721,-1.0721,-1.0721,-1.0721,-1.0721,-1.0721,-1.0721,-1.0629,-1.0477,-1.0334,-1.0185,-1.0029,-0.9876,-0.9822,-0.9822,0.0,0.0,0.0,0.0,0.0,0.0,0.0,0.0,0.0,0.0,0.0,0.0,0.0,0.0,0.0,0.0,0.0,0.0,-0.9238,-0.9719,-1.0164,-1.0308,-1.1204,-1.18,-1.1942,-1.232,-1.2575,-1.2543,-1.2738,-1.2791,-1.2763,-1.2791,-1.2875,-1.2856,-1.051,-0.9591,-0.9689,-0.7538,-0.6622,-0.6653,-0.6158,-0.5908,-0.5707,-0.3785,-0.3544,-0.3964,-0.2327,-0.2146,-0.2706,-0.3072,-0.381,-0.4594,-0.5173,-0.5714,-0.6225,-0.5918,-0.6617,-0.7539,-0.7687,-0.9165,-1.0663,-1.0765,-1.0951,-1.105,-1.0829,-1.0609,-1.0206,-0.9426,-0.8248,-0.7149,-0.6391,-0.7011,-0.761,-0.7701,-0.9398,-1.0912,-1.1315,-1.1557,-1.1831,-1.1952,-1.1847,-1.1762,-1.1721,-1.1684,0.0,0.0,-1.1847,-1.2118,-1.2644,-1.2562,-1.2522,-1.2718,-1.2525,-1.2345,-1.2168,-1.1825,-1.1433,-1.1134,-1.1114,-1.0929,-1.0721,-1.0721,-1.0721,-1.0721,-1.0721,-1.0721,-1.0721,-1.0721,-1.0629,-1.0477,-1.0334,-1.0185,-1.0029,-0.9876,-0.9822,-0.9822,0.0,0.0,0.0,0.0,0.0,0.0,0.0,0.0,0.0,0.0,0.0,0.0,0.0,0.0,0.0,0.0,0.0,0.0,0.0,-0.933,-0.9558,-0.9688,-1.0117,-1.0309,-1.0294,-1.0281,-1.0202,-1.0104,-1.0269,-1.022,-1.0025,-1.0414,-1.0503,-1.0201,-0.8517,-0.779,-0.7766,-0.6065,-0.5326,0.0,0.0,-0.3909,-0.3166,-0.2175,-0.2343,-0.3003,-0.2029,-0.2432,-0.3461,-0.4153,-0.4981,-0.5624,-0.5833,-0.6534,-0.7164,-0.7205,-0.7943,-0.8838,-0.9571,-1.0498,-1.1186,-1.0968,-1.1009,-1.0955,-1.026,-0.9816,-0.9454,-0.8431,-0.7285,-0.619,-0.5698,-0.6326,-0.6975,-0.6865,-0.8655,-1.0122,-1.0776,-1.1076,-1.1456,-1.2135,-1.2216,-1.222,-1.2135,-1.2186,-1.2227,0.0,-1.2104,-1.2206,-1.261,-1.2549,-1.2535,-1.2759,-1.2539,-1.2335,-1.2137,-1.1691,-1.1447,-1.1246,-1.1023,-1.0984,-1.0721,-1.0721,-1.0721,-1.0721,0.0,-1.0721,-1.0721,-1.0721,-1.0629,-1.0483,-1.0405,-1.0239,-1.0039,-0.9951,-0.988,-0.9822,0.0,0.0,0.0,0.0,0.0,0.0,0.0,0.0,0.0,0.0,0.0,0.0,0.0,0.0,0.0,0.0,0.0,0.0,0.0,0.0,-0.9006,-0.9157,-0.8965,-0.8798,-0.8661,-0.8077,-0.7603,-0.7376,-0.7753,-0.7702,-0.7239,-0.8377,-0.8633,-0.8119,-0.7141,-0.6579,-0.6296,-0.4997,-0.4308,-0.417,-0.3445,-0.237,-0.1159,0.0,-0.1797,-0.2235,-0.212,-0.2959,-0.4317,-0.5442,-0.6112,-0.6587,-0.6486,-0.6963,-0.7663,-0.8417,-0.9083,-0.9732,-1.0578,-1.1026,-1.1189,-1.1043,-1.0948,-1.0598,-0.9371,-0.8976,-0.8425,-0.7352,-0.6531,-0.5898,-0.5784,-0.6233,-0.655,-0.619,-0.7266,-0.8621,-0.9783,-0.996,-1.0542,-1.2069,-1.2444,-1.2542,-1.2559,-1.2664,-1.2729,-1.2729,-1.2474,-1.2379,-1.2525,-1.2511,-1.2556,-1.2667,-1.2522,-1.2315,-1.2047,-1.1864,-1.1562,-1.1145,-1.1138,-1.0989,-1.0721,-1.0721,-1.0721,-1.0721,0.0,0.0,-1.0721,-1.0721,-1.0639,-1.0521,-1.05,-1.0324,-1.0076,-1.0056,-0.9951,-0.9822,0.0,0.0,0.0,0.0,0.0,0.0,0.0,0.0,0.0,0.0,-0.5778,-0.6428,0.0,0.0,0.0,0.0,0.0,0.0,0.0,0.0,0.0,-0.8086,-0.808,-0.8051,-0.7868,-0.7593,-0.7237,-0.6768,-0.6437,-0.5956,-0.5213,-0.512,-0.4736,-0.4064,-0.3686,-0.3295,-0.2908,-0.2558,-0.2269,-0.2082,-0.1487,-0.1317,-0.143,-0.1424,0.0,0.0,-0.2317,-0.3216,-0.4433,-0.5383,-0.6461,-0.7591,-0.8396,-0.8901,-0.9294,-0.9999,-1.0313,-1.0595,-1.1307,-1.1501,-1.1504,-1.1352,-1.0938,-1.0287,-0.9211,-0.8504,-0.7836,-0.6586,-0.6092,-0.5605,-0.5333,-0.5792,-0.65,-0.7516,-0.8564,-0.9767,-1.1084,-1.1566,-1.1864,-1.2416,-1.26,-1.2742,-1.2871,-1.279,0.0,0.0,0.0,-1.2532,-1.2681,-1.2569,-1.2461,-1.2369,-1.222,-1.2074,-1.1794,-1.1626,-1.1328,-1.1186,-1.1006,-1.0894,-1.0721,-1.0721,-1.0721,-1.0721,0.0,0.0,-1.0721,-1.0721,-1.0704,-1.0666,-1.0541,-1.0388,-1.0226,-1.0097,-0.9951,-0.9822,0.0,0.0,0.0,0.0,0.0,0.0,0.0,-0.4472,-0.4419,-0.4463,-0.5202,-0.5688,-0.5666,-0.6569,-0.7251,0.0,0.0,0.0,0.0,0.0,0.0,0.0,-0.7522,-0.7548,-0.7471,-0.7175,-0.6803,-0.6397,0.0,-0.5342,-0.4571,-0.425,-0.3697,-0.2957,-0.2765,-0.2435,-0.1918,-0.1784,-0.159,-0.1329,-0.1049,-0.1111,-0.1306,0.0,0.0,0.0,-0.2786,-0.3617,-0.4592,-0.5438,-0.6626,-0.7971,-0.9035,-0.9534,-0.9941,-1.046,-1.0717,-1.0934,-1.1379,-1.1558,-1.1562,-1.1331,-1.0822,-0.9949,-0.8576,-0.7813,-0.7021,-0.5972,-0.5481,-0.5212,-0.5276,-0.565,-0.6265,-0.7295,-0.8045,-0.9134,-1.0604,-1.1084,-1.1589,-1.2199,-1.2542,-1.2759,-1.2834,-1.2847,-1.2817,-1.2735,0.0,-1.2586,-1.2505,-1.2355,-1.224,-1.2176,-1.2023,-1.1884,-1.1762,-1.1514,-1.1253,-1.0985,-1.0962,-1.0867,-1.0721,-1.0721,-1.0721,-1.0721,-1.0721,0.0,-1.0721,-1.0721,-1.0721,-1.0714,-1.0639,-1.0521,-1.0371,-1.0226,-1.007,-0.9927,0.0,0.0,0.0,0.0,0.0,0.0,0.0,-0.3953,-0.403,-0.4493,-0.4674,-0.4984,-0.5499,-0.6347,-0.7058,0.0,0.0,0.0,0.0,0.0,0.0,0.0,0.0,0.0,-0.7127,0.0,0.0,-0.6081,-0.5686,0.0,0.0,0.0,0.0,0.0,-0.2761,-0.2368,-0.1808,-0.1727,-0.1412,0.0,0.0,-0.1144,0.0,0.0,0.0,0.0,0.0,-0.3898,-0.4643,-0.5492,-0.6643,-0.7889,-0.8911,-0.9483,-0.9934,-1.0317,-1.0585,-1.0846,-1.1274,-1.1453,-1.1463,-1.1223,-1.0778,-0.9824,-0.7958,-0.7096,-0.6429,-0.545,-0.505,-0.5057,-0.5434,-0.5589,-0.588,-0.669,-0.7223,-0.8054,-0.9755,-1.0343,-1.0903,-1.1908,-1.2406,-1.2695,-1.2725,-1.284,0.0,-1.2739,0.0,0.0,-1.2301,-1.2145,-1.2047,-1.2013,-1.1894,-1.1745,-1.1572,-1.145,-1.1243,-1.0948,-1.0948,-1.0867,-1.0721,-1.0721,-1.0721,-1.0721,-1.0721,0.0,0.0,-1.0721,-1.0721,-1.0721,-1.0721,-1.0626,-1.0473,-1.0334,-1.0205,-1.0073,0.0,0.0,0.0,0.0,0.0,0.0,0.0,-0.3571,-0.3657,-0.3788,-0.3742,-0.4062,-0.4952,-0.5738,-0.6202,0.0,0.0,0.0,0.0,0.0,0.0,0.0,0.0,0.0,0.0,0.0,0.0,-0.5665,-0.541,0.0,0.0,0.0,0.0,0.0,0.0,-0.2392,-0.2002,-0.1861,0.0,0.0,0.0,0.0,0.0,0.0,0.0,0.0,0.0,-0.3606,-0.4376,-0.5414,-0.6331,-0.7154,-0.8219,-0.8947,-0.962,-0.9679,-1.0037,-1.0565,-1.13,-1.1301,-1.1337,-1.1168,-1.0677,-0.9638,-0.7787,-0.6961,-0.6231,-0.5194,-0.5117,-0.5303,-0.5442,-0.5323,-0.5578,-0.6761,-0.6654,-0.7141,-0.9619,-1.0012,-1.0454,-1.1616,-1.225,-1.2576,-1.2715,-1.2742,-1.2745,0.0,0.0,0.0,0.0,-1.2145,-1.1999,-1.1857,-1.1837,-1.1694,-1.1416,-1.1399,-1.1243,-1.0948,-1.0948,-1.0867,-1.0721,-1.0721,-1.0721,-1.0721,0.0,0.0,0.0,-1.0721,-1.0721,-1.0721,-1.0721,-1.0626,-1.0473,-1.0334,-1.0273,-1.0215,0.0,0.0,0.0,0.0,0.0,0.0,-0.3284,-0.3334,-0.3639,-0.4111,-0.4216,-0.4444,-0.5125,-0.5524,-0.5942,-0.6406,0.0,0.0,0.0,0.0,0.0,0.0,0.0,0.0,0.0,0.0,-0.5857,-0.5594,-0.5285,0.0,0.0,0.0,0.0,0.0,0.0,-0.2449,-0.2067,-0.1928,0.0,0.0,0.0,0.0,0.0,0.0,0.0,0.0,0.0,0.0,-0.4478,-0.5229,-0.5994,-0.673,-0.6972,-0.7801,-0.8734,-0.9408,-0.986,-1.0301,-1.0761,-1.1006,-1.1121,-1.0941,-1.0052,-0.8878,-0.7621,-0.6466,-0.5653,-0.5144,-0.4934,-0.5023,-0.5308,-0.5115,-0.5135,-0.6045,-0.5908,-0.639,-0.8262,-0.8853,-0.9584,-1.1008,-1.1603,-1.2135,0.0,0.0,-1.2586,0.0,0.0,0.0,0.0,-1.1874,-1.1725,-1.1569,-1.1565,-1.1423,-1.1128,-1.1124,-1.1019,-1.0812,-1.0812,-1.0778,-1.0721,-1.0721,-1.0721,-1.0721,-1.0721,0.0,0.0,-1.0721,-1.0721,-1.0721,-1.0721,-1.0683,-1.0612,-1.0463,-1.0409,-1.0365,0.0,0.0,0.0,0.0,0.0,-0.3698,-0.3055,-0.3231,-0.3641,-0.4319,-0.4336,-0.4492,-0.5166,-0.5154,-0.55,-0.6404,-0.6601,0.0,0.0,0.0,0.0,0.0,0.0,0.0,0.0,0.0,-0.5809,-0.55,-0.5188,-0.4775,0.0,0.0,-0.3644,-0.3136,0.0,0.0,0.0,0.0,0.0,0.0,0.0,0.0,0.0,0.0,0.0,0.0,0.0,0.0,0.0,0.0,0.0,-0.6483,-0.641,-0.7051,-0.7935,-0.8765,-0.9492,-1.0044,-1.026,-1.0589,-1.0919,-1.0575,-0.9355,-0.8045,-0.7327,-0.6227,-0.5281,-0.4879,-0.4808,-0.4921,-0.5192,-0.4991,-0.5058,-0.5638,-0.5468,-0.5795,-0.7367,-0.7919,-0.8629,-1.0028,0.0,-1.111,0.0,-1.2236,0.0,0.0,0.0,0.0,0.0,-1.1633,-1.1501,-1.1396,-1.1348,-1.1202,-1.0951,-1.0948,-1.087,-1.0721,-1.0721,-1.0721,-1.0721,-1.0721,-1.0721,-1.0721,0.0,0.0,0.0,-1.0724,-1.0731,-1.0744,-1.0734,-1.0731,-1.0714,-1.0561,-1.0534,-1.0527,0.0,0.0,0.0,0.0,0.0,0.0,-0.2998,-0.3175,-0.3584,-0.4144,-0.3782,-0.3873,-0.4911,-0.4554,-0.4671,-0.583,-0.6287,0.0,0.0,0.0,0.0,0.0,0.0,0.0,0.0,0.0,-0.5626,-0.5203,-0.5152,-0.4832,-0.4317,-0.4068,-0.3788,-0.337,0.0,0.0,0.0,0.0,0.0,0.0,0.0,0.0,0.0,0.0,0.0,0.0,0.0,0.0,0.0,0.0,0.0,0.0,0.0,-0.7096,-0.7173,-0.763,-0.8515,-0.9528,-0.9853,-1.0206,-1.0319,-1.0059,-0.8555,-0.7091,-0.683,-0.6073,-0.5303,-0.4508,-0.4851,-0.528,-0.515,-0.5101,-0.5265,-0.5849,-0.5479,-0.5636,-0.7134,-0.7216,-0.7513,-0.8626,-0.8788,-0.9192,-1.0547,0.0,0.0,0.0,0.0,0.0,0.0,-1.1487,-1.1392,-1.1392,-1.1243,-1.1094,-1.0951,-1.0948,-1.087,-1.0721,-1.0721,-1.0721,-1.0721,-1.0721,-1.0721,0.0,0.0,0.0,0.0,-1.0727,-1.0755,-1.0668,-1.0635,-1.0755,-1.0738,-1.073,-1.0636,-1.0707,0.0,0.0,0.0,0.0,0.0,0.0,0.0,-0.3468,-0.3948,-0.4292,-0.4473,-0.4683,-0.492,-0.5018,-0.5227,-0.5593,-0.612,0.0,0.0,0.0,0.0,0.0,0.0,0.0,0.0,0.0,-0.5804,-0.5545,-0.509,-0.4747,-0.4416,-0.4221,-0.3959,-0.3587,-0.3247,-0.2957,0.0,0.0,0.0,0.0,0.0,0.0,0.0,0.0,0.0,0.0,0.0,0.0,0.0,0.0,0.0,0.0,0.0,0.0,0.0,-0.7035,-0.795,-0.8939,-0.881,-0.9316,-0.9713,-0.8966,-0.7969,-0.6907,-0.6327,-0.5398,-0.467,-0.4294,-0.4508,-0.4722,-0.4761,-0.4777,-0.503,-0.5523,-0.5272,-0.5384,-0.6303,-0.7039,-0.791,-0.8845,-1.02,-1.1305,0.0,0.0,0.0,0.0,0.0,0.0,0.0,-1.1321,-1.1236,-1.1236,-1.1094,-1.0945,-1.0795,-1.0792,-1.0768,-1.0721,-1.0721,-1.0721,-1.0721,-1.0721,0.0,0.0,0.0,0.0,0.0,-0.8046,-0.8467,-1.0394,-0.8061,-0.7109,-0.7376,-0.9785,-1.0751,-1.0336,0.0,0.0,0.0,0.0,0.0,0.0,0.0,-0.3625,-0.3997,-0.4302,-0.4597,-0.4843,-0.4961,-0.523,-0.5457,-0.5701,-0.6214,0.0,0.0,0.0,0.0,0.0,0.0,0.0,-0.6639,-0.6427,-0.6053,-0.5588,-0.5098,-0.4701,-0.4357,-0.4209,-0.3912,-0.3574,-0.3329,-0.3091,0.0,0.0,0.0,0.0,0.0,0.0,-0.2247,0.0,0.0,0.0,0.0,0.0,0.0,0.0,0.0,0.0,0.0,0.0,0.0,0.0,-0.7138,-0.787,-0.8147,-0.8571,-0.8824,-0.8513,-0.7674,-0.6767,-0.612,-0.5075,-0.4158,-0.4123,-0.4252,-0.4443,-0.4548,-0.4666,-0.4926,-0.5379,-0.5333,-0.5341,-0.5953,-0.651,0.0,-0.8603,0.0,0.0,0.0,0.0,0.0,0.0,0.0,0.0,0.0,0.0,-1.1084,-1.1084,-1.0938,-1.0816,-1.0721,-1.0721,-1.0721,-1.0721,-1.0721,-1.0721,-1.0721,-1.0721,0.0,0.0,0.0,0.0,0.0,-0.6303,-0.5908,-0.673,-0.7266,-0.5774,-0.362,-0.591,-0.8325,-1.0161,0.0,0.0,0.0,0.0,0.0,0.0,0.0,-0.3673,-0.3899,-0.4309,-0.4376,-0.456,-0.507,-0.5188,-0.5485,-0.6039,0.0,0.0,0.0,0.0,0.0,0.0,0.0,0.0,-0.7487,-0.6994,-0.6334,-0.5477,-0.5153,-0.4739,-0.4263,-0.4049,-0.3803,-0.3386,-0.3307,-0.3058,0.0,0.0,0.0,0.0,0.0,0.0,0.0,0.0,0.0,0.0,0.0,0.0,0.0,0.0,0.0,0.0,0.0,0.0,0.0,0.0,0.0,0.0,0.0,-0.7773,-0.782,-0.8351,-0.7525,-0.6586,-0.6208,-0.4949,0.0,-0.3855,-0.4075,-0.4269,-0.438,-0.4645,-0.4915,-0.5269,-0.5328,-0.5538,-0.5853,-0.5552,0.0,0.0,-0.5398,0.0,0.0,0.0,0.0,0.0,0.0,0.0,0.0,0.0,-1.0945,-1.0931,-1.0795,-1.0721,-1.0721,-1.0721,-1.0721,-1.0721,-1.0721,-1.0721,-1.0721,-1.0721,0.0,0.0,0.0,0.0,0.0,-0.5096,-0.3088,-0.0673,-0.7286,-0.5923,-0.0,-0.0,-0.4259,-0.953,0.0,0.0,0.0,0.0,0.0,0.0,0.0,0.0,0.0,0.0,-0.506,-0.529,-0.5263,-0.5602,-0.5881,0.0,0.0,0.0,0.0,0.0,0.0,0.0,0.0,0.0,-0.7119,-0.661,-0.6258,-0.611,-0.5236,-0.4796,-0.4736,-0.4191,-0.3815,-0.3545,-0.3193,-0.2763,0.0,0.0,0.0,0.0,0.0,0.0,0.0,0.0,0.0,0.0,-0.3344,-0.3693,0.0,0.0,0.0,0.0,0.0,0.0,0.0,0.0,-0.5423,-0.5502,-0.5929,0.0,-0.6863,-0.6286,-0.6239,-0.6025,0.0,-0.4579,-0.4102,-0.3731,-0.3893,-0.4106,-0.3932,-0.4086,-0.4259,-0.4527,-0.4318,-0.4391,-0.4789,-0.3926,0.0,-0.7238,-0.8736,0.0,0.0,0.0,0.0,0.0,0.0,0.0,0.0,0.0,-1.0894,-1.0778,-1.0741,-1.0721,-1.0721,-1.0721,-1.0721,-1.0721,-1.0721,-1.0721,-1.0721,-1.0721,0.0,0.0,0.0,0.0,-0.523,-0.2417,-0.0807,-0.0135,-0.1884,-0.148,-0.0,-0.0,-0.1057,-0.2364,0.0,0.0,0.0,0.0,0.0,0.0,0.0,0.0,0.0,0.0,0.0,-0.5644,-0.5749,-0.6036,0.0,0.0,0.0,0.0,0.0,0.0,0.0,0.0,0.0,-0.7841,-0.7024,-0.6517,-0.614,-0.5945,-0.5039,-0.4528,-0.4449,-0.3826,-0.3465,-0.3254,-0.2979,-0.2587,0.0,0.0,0.0,0.0,-0.1808,0.0,0.0,0.0,0.0,0.0,-0.2983,-0.328,0.0,-0.3975,-0.4235,-0.4442,0.0,0.0,0.0,0.0,-0.4791,-0.4591,-0.4727,-0.5332,-0.5918,-0.5631,-0.5448,-0.5229,-0.4631,-0.4164,-0.3775,-0.3685,-0.375,-0.3801,-0.3624,-0.3899,-0.4135,-0.4087,-0.4034,-0.4152,-0.4304,0.0,-0.3264,-0.6209,0.0,0.0,0.0,0.0,0.0,0.0,0.0,0.0,0.0,0.0,-1.0806,-1.0721,-1.0653,-1.0649,-1.0721,-1.0721,-1.0721,-1.0721,-1.0721,-1.0721,-1.0721,-1.0721,-1.0721,0.0,0.0,0.0,-0.5096,-0.1478,-0.0,-0.0,-0.0,-0.0,-0.0,-0.0,-0.0,-0.0,0.0,0.0,0.0,0.0,0.0,0.0,0.0,0.0,0.0,0.0,0.0,0.0,0.0,0.0,0.0,0.0,0.0,0.0,0.0,0.0,0.0,0.0,-0.7715,-0.7457,-0.693,-0.638,-0.5884,-0.5408,-0.4584,-0.4062,-0.3781,-0.3328,-0.2963,-0.2724,-0.2523,-0.2364,0.0,0.0,0.0,0.0,-0.1572,0.0,0.0,0.0,0.0,0.0,0.0,0.0,0.0,-0.3529,-0.3832,-0.4062,-0.4281,0.0,0.0,0.0,0.0,0.0,-0.3913,-0.4364,-0.4934,-0.5276,-0.4974,-0.4495,-0.43,-0.3696,-0.325,-0.3686,-0.3576,-0.3385,-0.3332,-0.3796,-0.4002,-0.3566,-0.3681,-0.3946,-0.403,-0.2852,-0.3096,-0.573,0.0,0.0,0.0,0.0,0.0,0.0,0.0,0.0,0.0,0.0,0.0,-1.0721,-1.0565,-1.0514,-1.0585,-1.0653,-1.0683,-1.0683,-1.0711,-1.0721,-1.0721,-1.0697,-1.0697,0.0,0.0,0.0,-0.5093,-0.1478,-0.0,-0.0,-0.0,-0.0,-0.0,-0.0,-0.0652,-0.1289,0.0,0.0,0.0,0.0,0.0,0.0,0.0,0.0,0.0,0.0,0.0,0.0,0.0,0.0,0.0,0.0,0.0,0.0,0.0,0.0,0.0,-0.5902,-0.6488,-0.6734,-0.6573,-0.5733,-0.5174,-0.5005,-0.4189,-0.3657,-0.3355,-0.2826,-0.2359,-0.1981,-0.186,-0.175,-0.1529,-0.1422,-0.1346,-0.1234,-0.1291,0.0,0.0,0.0,0.0,0.0,0.0,0.0,0.0,-0.3006,-0.3213,-0.3322,-0.3641,0.0,0.0,0.0,0.0,0.0,-0.3466,-0.3479,-0.3607,-0.3944,-0.4196,-0.4233,-0.3969,-0.3362,-0.3048,-0.3483,-0.322,-0.3104,-0.3486,-0.3227,-0.2788,-0.2224,0.0,-0.2231,0.0,0.0,-0.4381,0.0,0.0,0.0,0.0,0.0,0.0,0.0,0.0,0.0,0.0,0.0,0.0,-1.0578,-1.0397,-1.0283,-1.0345,-1.0469,-1.0527,-1.0527,-1.066,-1.0721,-1.0714,-1.0585,-1.0599,0.0,0.0,-0.8632,-0.5082,-0.1474,-0.0,-0.0,-0.0,-0.0,-0.0,-0.0,-0.3498,-0.7503,0.0,0.0,0.0,0.0,0.0,0.0,0.0,0.0,0.0,0.0,0.0,0.0,0.0,0.0,0.0,0.0,0.0,0.0,0.0,0.0,-0.5102,-0.5018,-0.5061,-0.5211,-0.5448,-0.475,-0.4256,-0.4055,-0.34,-0.2906,-0.2647,-0.226,-0.198,-0.1647,-0.1343,-0.1243,-0.1449,-0.1169,-0.097,-0.0842,0.0,0.0,0.0,0.0,0.0,0.0,0.0,0.0,0.0,0.0,-0.255,-0.2573,-0.2968,0.0,0.0,0.0,0.0,0.0,-0.291,-0.2761,-0.27,-0.3035,-0.3588,-0.4021,-0.4042,-0.3413,-0.272,-0.2529,-0.2634,-0.2851,-0.2992,-0.256,-0.2102,-0.1706,0.0,-0.1518,0.0,0.0,0.0,0.0,0.0,0.0,0.0,0.0,0.0,0.0,0.0,0.0,0.0,0.0,0.0,0.0,-1.0183,-1.0131,-1.0197,-1.0151,-1.0297,-1.0382,-1.0612,-1.0677,-1.0595,-1.0524,-1.0531,-1.0595,0.0,-0.9795,-0.784,-0.2275,-0.0,-0.0,-0.0,-0.0,-0.0,-0.0,-0.1918,-0.4541,0.0,0.0,0.0,0.0,0.0,0.0,0.0,0.0,0.0,0.0,0.0,0.0,0.0,0.0,0.0,0.0,0.0,0.0,0.0,-0.4922,-0.4593,-0.435,-0.3864,-0.3862,-0.4375,-0.3851,-0.3411,-0.309,-0.2638,-0.2294,-0.1953,-0.1582,-0.1278,-0.1141,-0.0713,-0.0756,-0.1047,-0.077,-0.0517,-0.0393,0.0,0.0,0.0,0.0,0.0,0.0,0.0,0.0,0.0,0.0,0.0,0.0,0.0,0.0,0.0,-0.2465,-0.2422,-0.2322,-0.238,-0.2222,-0.2119,-0.2401,-0.2968,-0.3559,-0.3964,-0.3245,-0.2339,-0.1794,-0.2125,-0.2483,-0.2498,-0.2165,0.0,-0.1447,-0.1517,0.0,0.0,0.0,0.0,0.0,0.0,0.0,0.0,0.0,0.0,0.0,0.0,0.0,0.0,0.0,0.0,0.0,-1.008,-0.9995,-0.9995,-0.9942,-1.0019,-1.0229,-1.049,-1.0555,-1.0439,-1.0405,-1.0412,-1.0453,-1.0592,-1.0664,-1.0241,-0.4806,-0.1476,-0.0,-0.0,-0.0,-0.0,-0.0,-0.0,-0.0987,0.0,0.0,0.0,0.0,0.0,0.0,0.0,0.0,0.0,0.0,0.0,0.0,0.0,0.0,0.0,0.0,0.0,0.0,0.0,-0.4242,-0.3923,-0.3602,-0.3227,-0.3276,-0.3748,-0.326,-0.2854,-0.2558,-0.2305,-0.2027,-0.1605,-0.0605,-0.0,0.0268,0.0063,0.0062,0.0184,-0.0,-0.0,0.0168,0.0168,0.0,0.0,0.0,0.0,0.0,0.0,0.0,0.0,0.0,0.0,0.0,0.0,0.0,-0.1846,-0.1846,-0.1773,-0.1758,-0.2052,-0.1917,-0.1728,-0.1962,-0.2322,-0.2706,-0.3198,-0.2464,-0.1658,-0.1726,-0.1739,-0.1936,-0.2545,-0.2082,-0.1485,-0.0926,-0.1327,0.0,0.0,0.0,0.0,0.0,0.0,0.0,0.0,0.0,0.0,0.0,0.0,0.0,0.0,0.0,0.0,0.0,0.0,-0.9836,-0.9836,-0.9992,-1.0066,-1.0066,-1.0232,-1.0307,-1.029,-1.0148,-1.0171,-1.0452,-1.0181,-1.0382,-1.0662,-1.0138,-0.5994,-0.0,-0.0,-0.0,-0.0,-0.0,-0.0,-0.0985,0.0,0.0,0.0,0.0,0.0,0.0,0.0,0.0,0.0,0.0,0.0,0.0,0.0,0.0,0.0,0.0,0.0,0.0,0.0,-0.3573,-0.3241,-0.2881,-0.2505,-0.2348,-0.2407,-0.2469,-0.2263,-0.1738,-0.1085,-0.0705,-0.0606,-0.0,0.0538,0.1141,0.1097,0.1005,0.0924,0.1002,0.0972,0.101,0.1288,0.1288,0.0,0.0,0.0,0.0,0.0,0.0,0.0,0.0,-0.0505,-0.0563,-0.0747,-0.0924,-0.1044,-0.1125,-0.1261,-0.1455,-0.1756,-0.1827,-0.1818,-0.1661,-0.1864,-0.1945,-0.136,-0.0901,-0.0658,-0.0659,-0.1068,-0.1497,-0.181,-0.1699,-0.1353,-0.0475,0.0,0.0,0.0,0.0,0.0,0.0,0.0,0.0,0.0,0.0,0.0,0.0,0.0,0.0,0.0,0.0,0.0,0.0,0.0,-0.973,-0.9822,-0.9811,-0.9841,-0.991,-1.0161,-1.0181,-1.0125,-1.0063,-1.0114,-1.0019,-0.8565,-0.7615,-0.6976,-0.4923,-0.2488,-0.0,-0.0,-0.0,-0.0,-0.0,-0.0,-0.037,0.0,0.0,0.0,0.0,0.0,0.0,0.0,0.0,0.0,0.0,0.0,0.0,0.0,0.0,0.0,0.0,0.0,0.0,-0.3246,-0.2901,-0.258,-0.234,-0.1848,-0.1472,-0.1207,-0.1515,-0.1478,-0.11,-0.0252,0.033,0.0539,0.0807,0.1272,0.179,0.1803,0.1752,0.164,0.1707,0.1775,0.185,0.2128,0.213,0.0,0.0,0.0,0.0,0.0,0.0,0.0,0.0,0.0505,0.0451,0.0058,-0.0177,-0.0356,-0.0551,-0.0803,-0.1052,-0.1248,-0.157,-0.1788,-0.1411,-0.1467,-0.1352,-0.0532,-0.0191,-0.0,-0.0,-0.0516,-0.0845,-0.0845,-0.1323,0.0,0.0,0.0,0.0,0.0,0.0,0.0,0.0,0.0,0.0,0.0,0.0,0.0,0.0,0.0,0.0,0.0,0.0,0.0,0.0,0.0,-0.968,-0.9819,-0.9822,-0.9822,-0.9822,-1.0036,-1.0025,-0.995,-0.9964,-0.9888,-0.9865,-0.8228,-0.7127,-0.6164,-0.2919,-0.0901,-0.0,-0.0,-0.0,-0.0,-0.0,-0.0,-0.0,0.0,0.0,0.0,0.0,0.0,0.0,0.0,0.0,0.0,0.0,0.0,0.0,0.0,0.0,0.0,0.0,0.0,0.0,-0.2429,-0.2128,-0.1994,-0.1971,-0.1301,-0.0714,-0.0402,-0.0261,-0.0336,-0.0679,0.0065,0.0806,0.1613,0.2017,0.2252,0.2317,0.2123,0.212,0.2289,0.2101,0.2184,0.2521,0.2521,0.2408,0.2184,0.0,0.0,0.0,0.0,0.0,0.0,0.0,0.1403,0.1242,0.0817,0.0589,0.0356,-0.0061,-0.0309,-0.0373,-0.0385,-0.0969,-0.1518,-0.1216,-0.1081,-0.1091,-0.1119,-0.0506,-0.0,-0.0,-0.0,-0.0,-0.0,-0.0888,0.0,0.0,0.0,0.0,0.0,0.0,0.0,0.0,0.0,0.0,0.0,0.0,0.0,0.0,0.0,0.0,0.0,0.0,0.0,0.0,0.0,0.0,-0.9815,-0.9819,-0.9819,-0.9819,-0.9815,-0.9819,-0.9822,-0.9822,-0.9832,-0.9856,-0.9856,-0.9828,-0.9603,-0.6285,-0.3039,-0.0,-0.0,-0.0,-0.0,-0.0,-0.0,-0.0,0.0,0.0,0.0,0.0,0.0,0.0,0.0,0.0,0.0,0.0,0.0,0.0,0.0,0.0,0.0,0.0,0.0,0.0,-0.1591,-0.141,-0.1162,-0.0882,-0.0389,-0.0045,0.0097,0.0516,0.084,0.111,0.1318,0.1709,0.2152,0.2403,0.2516,0.268,0.2779,0.2905,0.2932,0.2952,0.2965,0.2965,0.319,0.3079,0.2852,0.0,0.0,0.0,0.0,0.0,0.0,0.0,0.0,0.0,0.1139,0.096,0.0778,0.0386,0.0259,0.0257,0.0264,-0.0479,-0.1209,-0.1112,-0.1136,-0.1153,-0.1318,-0.0601,-0.0,-0.0,-0.0,-0.0,-0.0,-0.0232,0.0,0.0,0.0,0.0,0.0,0.0,0.0,0.0,0.0,0.0,0.0,0.0,0.0,0.0,0.0,0.0,0.0,0.0,0.0,0.0,0.0,0.0,-0.951,-0.9602,-0.9608,-0.9537,-0.9735,-0.9839,-0.9822,-0.9822,-0.9825,-0.9832,-0.9849,-0.9774,-0.9728,-0.8711,-0.5032,-0.0,-0.0,-0.0,-0.0,-0.0,-0.0,-0.0,0.0,0.0,0.0,0.0,0.0,0.0,0.0,0.0,0.0,0.0,-0.3126,-0.2791,0.0,0.0,0.0,0.0,0.0,0.0,0.0,-0.0621,-0.0367,-0.0,0.0438,0.0776,0.0996,0.1364,0.184,0.2445,0.2211,0.2314,0.2649,0.3011,0.3173,0.3195,0.3605,0.3669,0.3509,0.3719,0.3688,0.3466,0.3749,0.3635,0.3408,0.0,0.0,0.0,0.0,0.0,0.0,0.0,0.0,0.0,0.1399,0.1281,0.1096,0.0846,0.0524,0.039,0.0668,0.0278,-0.0292,-0.0623,-0.0676,-0.0822,-0.1266,-0.0622,-0.0,-0.0,-0.0,-0.0,-0.0,-0.0,0.0,0.0,0.0,0.0,0.0,0.0,0.0,0.0,0.0,0.0,0.0,0.0,0.0,0.0,0.0,0.0,0.0,0.0,0.0,0.0,0.0,0.0,-0.9408,-0.9486,-0.8889,-0.7635,-0.784,-0.7797,-0.7954,-0.9184,-0.9799,-0.9799,-0.8877,-0.8569,-0.8637,-0.9506,-0.6967,-0.2457,-0.0747,-0.0745,-0.1848,-0.0494,-0.0,-0.0,0.0,0.0,0.0,0.0,0.0,0.0,0.0,0.0,0.0,0.0,-0.2484,-0.2099,0.0,0.0,0.0,0.0,0.0,0.0,0.0,0.0197,0.0415,0.0792,0.1179,0.1685,0.2219,0.235,0.2688,0.3261,0.2822,0.2785,0.3171,0.3772,0.4014,0.3909,0.4423,0.4469,0.4132,0.4405,0.4353,0.4076,0.4193,0.4079,0.3852,0.3694,0.0,0.0,0.0,0.0,0.0,0.0,0.0,0.0,0.1591,0.1477,0.1296,0.1151,0.058,0.0194,0.0939,0.1107,0.0949,0.0246,0.0088,-0.0187,-0.1126,-0.0659,-0.0,-0.0,-0.0,-0.0,-0.0,-0.0,0.0,0.0,0.0,0.0,0.0,0.0,0.0,0.0,0.0,0.0,0.0,0.0,0.0,0.0,0.0,0.0,0.0,0.0,0.0,0.0,0.0,0.0,-0.9268,-0.9391,-0.7962,0.0,-0.502,-0.4904,-0.5015,-0.7997,-0.9573,-0.9703,-0.7768,-0.6892,-0.7101,-0.8979,-0.861,-0.6499,-0.2457,-0.2705,-0.5044,-0.1973,-0.074,-0.0369,0.0,0.0,0.0,0.0,0.0,0.0,0.0,0.0,0.0,0.0,0.0,0.0,0.0,0.0,0.0,0.0,0.0,0.0,0.0,0.1235,0.1413,0.1468,0.2062,0.2605,0.3125,0.3058,0.3321,0.3894,0.3412,0.3589,0.4323,0.4604,0.4871,0.5175,0.5171,0.5093,0.5007,0.4901,0.4791,0.468,0.4632,0.4522,0.4298,0.4024,0.3816,0.0,0.0,0.0,0.0,0.0,0.0,0.0,0.1407,0.1194,0.1049,0.1074,0.0699,0.0444,0.0955,0.108,0.1071,0.0929,0.0468,-0.0102,-0.0214,-0.0111,-0.0,-0.0,-0.0,-0.0,-0.0,0.0,0.0,0.0,0.0,0.0,0.0,0.0,0.0,0.0,0.0,0.0,0.0,0.0,0.0,0.0,0.0,0.0,0.0,0.0,0.0,0.0,0.0,-0.8737,-0.8783,-0.8933,-0.8722,0.0,-0.587,-0.485,-0.491,-0.5664,-0.7304,-0.9731,-0.9268,-0.909,-0.9112,-0.9619,-0.9536,-0.902,-0.8041,-0.8172,-0.8679,-0.7945,-0.6058,-0.3442,0.0,0.0,0.0,0.0,0.0,0.0,0.0,0.0,0.0,0.0,0.0,0.0,0.0,0.0,0.0,0.0,0.0,0.0,0.0,0.0,0.1858,0.2149,0.2763,0.3166,0.3337,0.3531,0.3819,0.4268,0.4118,0.431,0.4835,0.5027,0.5289,0.5622,0.5614,0.5504,0.5289,0.5344,0.5124,0.4794,0.4794,0.4684,0.4463,0.419,0.4064,0.3948,0.3442,0.0,0.0,0.0,0.0,0.0,0.0,0.0,0.0594,0.0187,0.0128,0.026,0.0476,-0.13,-0.2655,-0.0087,0.029,-0.0,-0.0,-0.0,-0.0,-0.0,-0.0,-0.0,0.0,0.0,0.0,0.0,0.0,0.0,0.0,0.0,0.0,0.0,0.0,0.0,0.0,0.0,0.0,0.0,0.0,0.0,0.0,0.0,0.0,0.0,-0.8516,-0.7799,-0.646,-0.5179,-0.4645,-0.4645,-0.3273,-0.2522,-0.2524,-0.2603,-0.3462,-0.5131,-0.6584,-0.7225,-0.7396,-0.8985,-0.9654,-0.965,-0.8613,-0.8888,-0.9764,-0.9804,-0.8033,-0.5641,0.0,0.0,0.0,0.0,0.0,0.0,0.0,0.0,0.0,0.0,0.0,0.0,0.0,0.0,0.0,0.0,0.0,0.0,0.0,0.0,0.0,0.2812,0.3336,0.3558,0.343,0.3921,0.4268,0.4447,0.4719,0.4952,0.508,0.5267,0.5513,0.5782,0.5896,0.5786,0.5407,0.5631,0.5352,0.4802,0.4901,0.4791,0.4519,0.4301,0.421,0.4125,0.3607,0.3229,0.2865,0.2297,0.0,0.0,0.0,0.0,0.0307,-0.0801,-0.064,-0.0133,-0.0067,-0.3247,-0.5747,-0.2239,-0.068,-0.0,-0.0,-0.0,-0.0,-0.0,-0.0,0.0,0.0,0.0,0.0,0.0,0.0,0.0,0.0,0.0,0.0,0.0,0.0,0.0,0.0,0.0,0.0,0.0,0.0,0.0,0.0,0.0,-0.7183,-0.8364,-0.8347,-0.7072,-0.4753,-0.2538,-0.0953,-0.0,-0.0,-0.0,-0.0,-0.0,-0.0,-0.0114,-0.2631,-0.4268,-0.5498,-0.8322,-0.9595,-0.9506,-0.7785,-0.8201,-0.9829,-0.9734,-0.8596,-0.7314,0.0,0.0,0.0,0.0,0.0,0.0,0.0,0.0,0.0,0.0,0.0175,0.0576,0.0,0.0,0.0,0.0,0.0,0.0,0.0,0.0,0.0,0.3393,0.3782,0.4004,0.4004,0.4346,0.4576,0.4675,0.4969,0.5262,0.5444,0.5649,0.6009,0.6544,0.6059,0.5845,0.5891,0.5517,0.5301,0.5187,0.5011,0.4901,0.4791,0.4356,0.4147,0.3964,0.3525,0.3124,0.2749,0.213,0.1793,0.0,0.0,0.0,0.0596,-0.0735,-0.1056,-0.0821,-0.0199,-0.0517,-0.1974,-0.598,-0.3462,-0.0,-0.0,-0.0,-0.0,0.0,0.0,0.0,0.0,0.0,0.0,0.0,0.0,0.0,0.0,0.0,0.0,0.0,0.0,0.0,0.0,0.0,0.0,0.0,0.0,0.0,0.0,-0.0709,-0.324,-0.7932,-0.8062,-0.7817,-0.7501,-0.7116,-0.4598,-0.0,-0.0,-0.0,-0.0,-0.0,-0.0,-0.0,-0.0457,-0.3561,-0.8323,-0.8813,-0.9298,-0.9765,-0.942,-0.9499,-0.9717,-0.9499,-0.9313,-0.9258,0.0,0.0,0.0,0.0,0.0,0.0,0.0,0.0,0.0,0.0,0.0,0.1145,0.0,0.0,0.0,0.0,0.0,0.0,0.0,0.0,0.0,0.3322,0.3855,0.4095,0.3976,0.4578,0.4783,0.4591,0.5031,0.5264,0.5241,0.5534,0.5892,0.6168,0.5841,0.5732,0.5786,0.5567,0.5293,0.5069,0.4956,0.4794,0.4646,0.4389,0.4197,0.3998,0.3756,0.3355,0.2851,0.2403,0.2057,0.1687,0.1039,0.0,0.0,0.0,-0.0864,-0.1091,-0.1221,-0.2054,-0.2934,-0.3365,-0.3999,-0.3731,-0.0679,-0.0,-0.0,-0.0,0.0,0.0,0.0,0.0,0.0,0.0,0.0,0.0,0.0,0.0,0.0,0.0,0.0,0.0,0.0,0.0,0.0,0.0,0.0,-0.0,-0.0,-0.0,-0.2414,-0.7798,-0.8006,-0.7308,-0.5809,-0.7286,-0.5333,-0.0,-0.0,-0.0,-0.0,-0.0,-0.0,-0.0,-0.0,-0.1469,-0.4186,-0.7489,-0.9096,-0.9275,-0.9469,-0.9537,-0.9581,-0.9412,-0.9379,-0.9462,0.0,0.0,0.0,0.0,0.0,0.0,0.0,0.0,0.0,0.0,0.0,0.0,0.0,0.0,0.0,0.0,0.0,0.0,0.0,0.0,0.0,0.3344,0.3939,0.4166,0.3974,0.4573,0.48,0.4566,0.4985,0.5112,0.499,0.5306,0.5498,0.5643,0.5634,0.5682,0.5639,0.563,0.5422,0.5076,0.4986,0.4811,0.4608,0.4065,0.3975,0.4161,0.3983,0.3576,0.3116,0.2754,0.2337,0.1851,0.1153,0.0781,0.0,0.0,0.0,-0.137,-0.2055,-0.3175,-0.3479,-0.0706,-0.3007,-0.4879,-0.0917,0.0,-0.0,0.0,0.0,0.0,0.0,0.0,0.0,0.0,0.0,0.0,0.0,0.0,0.0,0.0,0.0,0.0,0.0,0.0,0.0,0.0,0.0,-0.1905,-0.2005,-0.2001,-0.3912,-0.7908,-0.8012,-0.7077,-0.5033,-0.5658,-0.394,-0.0,-0.0,-0.0,-0.0,-0.0,-0.0,-0.0,-0.0,-0.0,-0.0445,-0.5622,-0.8198,-0.896,-0.9286,-0.9347,-0.9374,-0.9337,-0.9323,-0.9303,0.0,0.0,0.0,0.0,0.0,0.0,0.0,0.0,0.0,0.0,0.0,0.0,0.1483,0.1544,0.1676,0.1878,0.1947,0.2296,0.3018,0.3495,0.3748,0.3677,0.4197,0.0,0.4199,0.4298,0.4504,0.4792,0.4808,0.4837,0.4886,0.5073,0.511,0.5143,0.566,0.5825,0.5789,0.566,0.5607,0.5536,0.5225,0.5057,0.4879,0.2988,0.3173,0.4349,0.4063,0.3853,0.3597,0.3128,0.2579,0.205,0.1774,0.1263,0.0715,0.0,0.0,0.0,-0.2074,-0.1825,-0.1242,-0.022,-0.0233,-0.0329,0.0,0.0,0.0,0.0,0.0,0.0,0.0,0.0,0.0,0.0,0.0,0.0,0.0,0.0,0.0,0.0,0.0,0.0,0.0,0.0,0.0,0.0,0.0,-0.7018,-0.7511,-0.7619,-0.7674,-0.7989,-0.8032,-0.7942,-0.7815,-0.2928,-0.0303,-0.0,-0.0,-0.0,-0.0,-0.0,-0.0,-0.0,-0.0,-0.0,-0.0218,-0.3384,-0.6347,-0.895,-0.9167,-0.9252,-0.9364,-0.9218,-0.9164,-0.9144,0.0,0.0,0.0,0.0,0.0,0.0,0.0,0.0,0.0,0.0,0.0,0.0,0.0,0.1714,0.1845,0.1947,0.2287,0.2672,0.307,0.3455,0.3755,0.3899,0.4272,0.4413,0.4271,0.4466,0.4546,0.4491,0.4615,0.4632,0.4591,0.4955,0.5082,0.498,0.5159,0.5339,0.5549,0.5376,0.5296,0.5261,0.5126,0.4354,0.324,0.3127,0.2446,0.1813,0.3833,0.4308,0.398,0.3823,0.3385,0.2797,0.2303,0.1868,0.1285,-0.0383,-0.0968,-0.1231,-0.1802,-0.1911,-0.1817,-0.1663,-0.0818,-0.0,-0.0,-0.0,0.0,0.0,0.0,0.0,0.0,0.0,0.0,0.0,0.0,0.0,0.0,0.0,0.0,0.0,0.0,0.0,0.0,0.0,0.0,0.0,0.0,0.0,-0.7788,-0.7878,-0.642,-0.3016,-0.2821,-0.2825,-0.2828,-0.101,-0.0,-0.0,-0.0,-0.0,-0.0,-0.0,-0.0,-0.0,-0.0,-0.0,-0.0108,-0.1194,-0.4503,-0.8933,-0.9008,-0.9062,-0.9089,-0.9035,-0.9015,-0.9008,0.0,0.0,0.0,0.0,0.0,0.0,0.0,0.0,0.0,0.1728,0.0,0.0,0.0,0.0,0.1809,0.2018,0.2445,0.2817,0.3113,0.3509,0.3813,0.4042,0.439,0.4529,0.4459,0.4586,0.4609,0.4493,0.4546,0.4525,0.4429,0.4804,0.4894,0.4784,0.4732,0.5011,0.5544,0.5422,0.5398,0.5483,0.5286,0.4273,0.3024,0.4299,0.3803,0.2733,0.4493,0.5018,0.4756,0.4463,0.3993,0.3466,0.2905,0.234,0.155,0.0065,-0.0589,-0.0919,-0.174,-0.2032,-0.2199,-0.2401,-0.1512,-0.059,-0.0077,0.0,0.0,0.0,0.0,0.0,0.0,0.0,0.0,0.0,0.0,0.0,0.0,0.0,0.0,0.0,0.0,0.0,0.0,0.0,0.0,0.0,0.0,0.0,-0.7528,-0.7758,-0.5466,-0.0201,-0.0905,-0.1811,-0.2726,-0.0908,-0.0403,-0.131,-0.222,-0.1716,-0.0,-0.0,-0.0,-0.0,-0.0,-0.0,-0.0106,-0.096,-0.3775,-0.756,-0.852,-0.8906,-0.894,-0.894,-0.894,-0.894,0.0,0.0,0.0,0.0,0.0,0.0,0.0,0.0,0.1614,0.1343,0.0,0.0,0.0,0.0,0.0,0.2075,0.2366,0.2716,0.3204,0.3644,0.3992,0.4222,0.4562,0.4738,0.48,0.4623,0.4645,0.4908,0.4719,0.4561,0.4519,0.4485,0.4542,0.4584,0.4334,0.4883,0.5919,0.5879,0.6013,0.6145,0.5618,0.4915,0.4495,0.6364,0.7216,0.7224,0.612,0.5767,0.0,0.4989,0.4475,0.4046,0.3549,0.2506,0.1464,0.1084,0.0202,-0.0874,0.0,0.0,0.0,-0.217,-0.2175,0.0,-0.0353,0.0,0.0,0.0,0.0,0.0,0.0,0.0,0.0,0.0,0.0,0.0,0.0,0.0,0.0,0.0,0.0,0.0,0.0,0.0,0.0,0.0,0.0,-0.7227,-0.7404,-0.7636,-0.541,-0.0401,-0.2808,-0.5336,-0.8016,-0.2819,-0.1507,-0.4016,-0.6676,-0.5251,-0.0201,-0.0202,-0.0101,-0.0,-0.0,-0.0102,-0.0415,-0.2997,-0.4323,-0.4897,-0.7618,-0.8804,-0.894,-0.894,-0.894,-0.894,0.0,0.0,0.0,0.0,0.0,-0.0439,0.0659,0.1307,0.1688,0.0,0.0,0.0,0.159,0.1792,0.2078,0.2297,0.2639,0.3158,0.3814,0.3952,0.4253,0.4768,0.5025,0.5086,0.4938,0.5029,0.5042,0.4981,0.4713,0.4678,0.4767,0.4752,0.4815,0.4967,0.5153,0.5476,0.5875,0.5553,0.5675,0.6196,0.5859,0.474,0.3433,0.6283,0.7285,0.0,0.0,0.528,0.432,0.0,0.5042,0.4804,0.37,0.2793,0.1953,0.1424,0.0941,0.0403,-0.0605,0.0,0.0,0.0,0.0,0.0,0.0,0.0,0.0,0.0,0.0,0.0,0.0,0.0,0.0,0.0,0.0,0.0,0.0,0.0,0.0,0.0,0.0,0.0,0.0,0.0,0.0,0.0,-0.7125,-0.7135,-0.7217,-0.7653,-0.7301,-0.5828,-0.6499,-0.7248,-0.7963,-0.6523,-0.5233,-0.4016,-0.6762,-0.7178,-0.5744,-0.3822,-0.181,-0.0,-0.0,-0.2224,-0.5821,-0.6622,-0.7157,-0.7508,-0.8363,-0.8709,-0.894,-0.894,-0.894,-0.894,0.0,0.0,0.0,0.0,0.0,-0.0224,0.0671,0.1432,0.1869,0.0,0.0,0.0,0.1806,0.1935,0.2174,0.2567,0.2831,0.3249,0.3937,0.4069,0.4329,0.4853,0.5019,0.5137,0.5193,0.5318,0.536,0.529,0.5088,0.5012,0.504,0.4978,0.4992,0.5094,0.5373,0.5647,0.5875,0.5817,0.5967,0.6312,0.6324,0.5586,0.4389,0.438,0.4882,0.0,0.0,0.0,0.5761,0.597,0.5797,0.523,0.3964,0.3207,0.2593,0.1963,0.1574,0.1277,0.0807,0.047,0.0067,-0.0823,0.0,0.0,-0.1904,-0.1224,0.0,0.0,0.0,0.0,0.0,0.0,0.0,0.0,0.0,0.0,0.0,0.0,0.0,0.0,0.0,0.0,0.0,0.0,0.0,-0.3945,-0.5943,-0.7108,-0.7122,-0.6548,-0.6729,-0.7977,-0.7254,-0.7093,-0.7797,-0.7926,-0.7174,-0.5654,-0.7232,-0.7982,-0.7982,-0.6345,-0.4826,-0.3318,-0.211,-0.4124,-0.8009,-0.7994,-0.8206,-0.8438,-0.8577,-0.8612,-0.8852,-0.8916,-0.894,-0.894,0.0,0.0,-0.1433,-0.1344,-0.0582,0.0179,0.0581,0.1609,0.2205,0.0,0.2153,0.2282,0.1989,0.1998,0.2299,0.2967,0.3098,0.3364,0.3954,0.4136,0.4398,0.4817,0.4864,0.5119,0.5527,0.555,0.5626,0.5723,0.5681,0.5523,0.532,0.5282,0.5246,0.5198,0.5429,0.5649,0.5941,0.6363,0.6506,0.6448,0.6919,0.6824,0.0,0.0,0.1399,0.3557,0.5598,0.6865,0.7508,0.6885,0.5972,0.0,0.4192,0.3714,0.333,0.2561,0.2105,0.1959,0.2155,0.1547,0.0739,0.0269,-0.0,0.0,-0.1706,-0.1595,-0.0984,0.0,0.0,0.0,0.0,0.0,0.0,0.0,0.0,0.0,0.0,0.0,0.0,0.0,0.0,0.0,0.0,-0.0,-0.0,-0.0,-0.3943,-0.6565,-0.7083,-0.5148,-0.4924,-0.7051,-0.5682,-0.5774,-0.753,-0.7852,-0.7914,-0.7814,-0.797,-0.7952,-0.7969,-0.7969,-0.7975,-0.7885,-0.5432,-0.5834,-0.7972,-0.7972,-0.8157,-0.8299,-0.8431,-0.8574,-0.873,-0.8882,-0.894,-0.894,0.0,-0.0671,-0.0851,-0.1299,-0.0537,0.0447,0.1339,0.2146,0.2588,0.2524,0.2475,0.2473,0.2385,0.2933,0.3457,0.3822,0.4192,0.4651,0.5124,0.5114,0.5255,0.5625,0.5625,0.5686,0.5904,0.5903,0.5933,0.5933,0.5906,0.5929,0.5919,0.5942,0.588,0.5854,0.6218,0.6255,0.6116,0.6809,0.6831,0.6493,0.7174,0.618,0.3964,0.1073,0.0312,0.0794,0.1244,0.1534,0.191,0.3701,0.2832,0.1578,0.4311,0.4613,0.3793,0.3334,0.2805,0.2355,0.244,0.2288,0.1884,0.1277,0.1167,0.0,-0.05,-0.0806,-0.082,0.0,0.0,0.0,0.0,0.0,0.0,0.0,0.0,0.0,0.0,0.0,0.0,0.0,0.0,0.0,0.0,-0.0,-0.0,-0.0,-0.0848,-0.3048,-0.69,-0.6649,-0.4894,-0.1637,-0.3036,-0.4917,-0.7181,-0.7493,-0.7706,-0.7811,-0.7845,-0.7926,-0.8045,-0.8045,-0.7959,-0.7975,-0.7463,-0.7563,-0.7972,-0.7972,-0.8153,-0.8289,-0.8428,-0.8574,-0.873,-0.8882,-0.894,-0.894,0.0847,0.058,0.0312,0.0045,0.0625,0.1383,0.2135,0.2893,0.3388,0.33,0.3034,0.2971,0.3212,0.3715,0.4213,0.4758,0.5212,0.5595,0.5973,0.5851,0.5823,0.6018,0.5966,0.6013,0.6296,0.632,0.6396,0.6578,0.6521,0.6512,0.6502,0.6634,0.6436,0.6057,0.6813,0.6874,0.6489,0.7065,0.7293,0.7272,0.7492,0.0,0.4696,0.1311,-0.0,-0.0,-0.0,-0.0,0.0177,0.1355,0.0993,0.0,0.2215,0.3588,0.4315,0.314,0.2815,0.2836,0.279,0.2662,0.2576,0.2344,0.2153,0.0,0.0,0.0778,0.0286,0.0,0.0,0.0,0.0,0.0,0.0,0.0,0.0,0.0,0.0,0.0,0.0,0.0,0.0,0.0,0.0,-0.0,-0.0,-0.0,-0.0,-0.1013,-0.3423,-0.3585,-0.2475,-0.0088,-0.2336,-0.4723,-0.7121,-0.7332,-0.7519,-0.7594,-0.774,-0.7851,-0.7929,-0.8004,-0.8045,-0.7955,-0.7955,-0.7955,-0.7955,-0.7955,-0.8096,-0.8177,-0.8397,-0.853,-0.8625,-0.8855,-0.894,-0.894,0.2233,0.1964,0.1695,0.1739,0.2158,0.262,0.306,0.3732,0.4128,0.3957,0.3684,0.3648,0.3999,0.4304,0.482,0.553,0.5888,0.6182,0.6587,0.6413,0.6266,0.6316,0.6219,0.6313,0.6619,0.6623,0.6815,0.72,0.711,0.7066,0.7109,0.7298,0.7062,0.6365,0.7345,0.7438,0.6926,0.7502,0.7803,0.7828,0.0,0.7057,0.5818,0.2327,0.056,-0.0,-0.0,-0.0,-0.0,-0.0,-0.0,0.009,0.0878,0.2412,0.3853,0.2709,0.2832,0.3264,0.3211,0.3105,0.3067,0.3274,0.0,0.2752,0.0,0.0,0.0,0.0,0.0,0.0,0.0,0.0,0.0,0.0,0.0,0.0,0.0,0.0,0.0,0.0,0.0,0.0,0.0,-0.0762,-0.0853,-0.0081,-0.0,-0.0,-0.0,-0.0,-0.0,-0.0,-0.1857,-0.4291,-0.7108,-0.7288,-0.7346,-0.7377,-0.7614,-0.7756,-0.7814,-0.794,-0.8011,-0.8038,-0.8038,-0.8038,-0.8038,-0.8038,-0.8038,-0.8065,-0.8336,-0.8442,-0.8479,-0.8781,-0.8896,-0.8899,0.3081,0.309,0.3049,0.3004,0.3514,0.4023,0.4198,0.4369,0.4351,0.4108,0.4442,0.458,0.4192,0.486,0.5498,0.5962,0.5859,0.6124,0.7075,0.6729,0.6513,0.663,0.6799,0.684,0.6679,0.674,0.6906,0.72,0.7238,0.7481,0.7894,0.7836,0.7738,0.7613,0.7875,0.7668,0.7186,0.815,0.7985,0.0,0.7761,0.6996,0.0,0.4691,0.2606,-0.0,-0.0,-0.0,-0.0,0.0,-0.0,0.0549,0.0,0.3019,0.0783,0.2103,0.3088,0.3713,0.3776,0.3818,0.0,0.0,0.3751,0.0,0.0,0.0,0.2104,0.1078,0.0,0.0,0.0,0.0,0.0,0.0,0.0,0.0,0.0,0.0,0.0,0.0,0.0,0.0,0.0,0.0,-0.4008,-0.0315,-0.0,-0.0,-0.0,-0.0,-0.0,-0.0,-0.0266,-0.2596,-0.7042,-0.7118,-0.7171,-0.7119,-0.7322,-0.7556,-0.7811,-0.7828,-0.7913,-0.8038,-0.8038,-0.8038,-0.8038,-0.8038,-0.8038,-0.8058,-0.8228,-0.8296,-0.833,-0.8628,-0.8737,-0.8757,0.3217,0.3265,0.3293,0.3507,0.3854,0.4228,0.4735,0.5047,0.5197,0.5266,0.5356,0.5496,0.5734,0.637,0.6804,0.6897,0.7032,0.7291,0.0,0.7427,0.7413,0.7897,0.7852,0.7668,0.7413,0.7518,0.7668,0.777,0.7881,0.8072,0.8343,0.833,0.8102,0.7687,0.7762,0.7579,0.7157,0.7445,0.7628,0.0,0.0,0.0,0.0,0.7195,0.4201,-0.0,-0.0,-0.0,-0.0,0.0,0.2048,0.0,0.0,0.0,0.0,0.3036,0.3591,0.4405,0.441,0.4469,0.0,0.0,0.0,0.0,0.3769,0.0,0.2807,0.0,0.0,0.0,0.0,0.0,0.0,0.0,-0.2146,0.0,0.0,0.0,0.0,0.0,0.0,0.0,0.0,0.0,0.0,0.0,0.0,-0.0,-0.0,-0.0,-0.0,-0.0,-0.0,-0.0984,-0.2957,-0.483,-0.6201,-0.7088,-0.7339,-0.7482,-0.7692,-0.7773,-0.7896,-0.8038,-0.8038,-0.8038,-0.8038,-0.8038,-0.8038,-0.8045,-0.8109,-0.8191,-0.8296,-0.8503,-0.8635,-0.872,0.3141,0.3157,0.3312,0.3731,0.3887,0.4189,0.4948,0.542,0.5775,0.6072,0.6207,0.6526,0.7045,0.7459,0.7722,0.7709,0.7646,0.7845,0.0,0.8016,0.7951,0.813,0.8456,0.8293,0.7616,0.8027,0.8259,0.8381,0.8435,0.8618,0.8915,0.8816,0.8555,0.8091,0.7996,0.774,0.7328,0.0,0.702,0.7064,0.5615,0.6515,0.8674,0.8713,0.5049,-0.0,-0.0,-0.0,-0.0,-0.0,0.2562,0.0,0.6661,0.0,0.637,0.4646,0.4661,0.5363,0.5283,0.0,0.0,0.0,0.0,0.0,0.0,0.0,0.0,0.0,0.0,0.0,0.0,0.0,-0.1084,-0.1479,0.0,-0.2185,0.0,0.0,0.0,0.0,0.0,0.0,0.0,0.0,0.0,0.0,-0.2783,-0.1253,-0.0078,-0.0,-0.0,-0.0,-0.0,-0.0,-0.0,-0.2314,-0.4736,-0.7101,-0.7228,-0.7369,-0.7426,-0.7664,-0.7815,-0.7952,-0.7952,-0.7952,-0.7952,-0.8048,-0.8048,-0.8048,-0.8041,-0.8109,-0.8225,-0.837,-0.852,-0.8655,0.3006,0.3112,0.331,0.3735,0.3821,0.4072,0.4775,0.5349,0.5809,0.6048,0.6989,0.7634,0.7666,0.7602,0.7693,0.8099,0.0,0.6875,0.7768,0.0,0.7683,0.651,0.8134,0.8393,0.6992,0.7766,0.84,0.8769,0.8664,0.8953,0.9682,0.9242,0.9202,0.9287,0.8737,0.8294,0.8066,0.7673,0.635,0.4773,0.7432,0.8627,0.8702,0.0,0.5122,-0.0,-0.0,0.0,0.0,-0.0,0.0098,0.0,0.0,0.0,0.0,0.0,0.0,0.0,0.0,0.0,0.0,0.5744,0.0,0.0,0.0,0.0,0.4173,0.0,0.0,0.0,0.0,-0.032,-0.1182,-0.1346,-0.1637,0.0,0.0,0.0,0.0,0.0,0.0,0.0,0.0,0.0,0.0,-0.0292,-0.3829,-0.4288,-0.0228,-0.0,-0.0,-0.0,-0.0,-0.0,-0.0,-0.0089,-0.2508,-0.7135,-0.708,-0.7121,-0.7168,-0.7414,-0.7753,-0.7989,-0.7989,-0.7989,-0.7989,-0.7975,-0.7972,-0.7969,-0.8048,-0.8041,-0.8065,-0.8221,-0.8367,-0.8509,0.4025,0.3582,0.3224,0.3237,0.3423,0.3853,0.0,0.5727,0.0,0.0,0.7683,0.0,0.0,0.8505,0.8541,0.0,0.0,0.7867,0.8333,0.8651,0.0,0.8105,0.9388,0.9455,0.8043,0.8675,0.9092,0.9246,0.908,0.9212,0.964,0.9254,0.922,0.9388,0.8393,0.7864,0.0,0.0,0.0,0.0,0.0,0.8718,0.8769,0.0,0.0,0.0275,0.2056,0.152,0.0,-0.0,0.2365,0.5594,0.7419,0.7778,0.7557,0.7257,0.6992,0.0,0.0,0.0,0.6505,0.6327,0.0,0.0,0.0,0.0,0.0,0.0,0.0,0.0,0.0,0.0572,-0.0063,-0.0627,-0.1011,-0.1263,0.0,0.0,0.0,0.0,0.0,0.0,0.0,0.0,0.0,-0.0071,-0.1342,-0.1528,0.0,-0.0,-0.0,-0.0,-0.0,-0.0,-0.0,-0.0,-0.0805,-0.2418,-0.4053,-0.4785,-0.4754,-0.4884,-0.5081,-0.5432,-0.6037,-0.6237,-0.6339,-0.7547,-0.7952,-0.8048,-0.8041,-0.8038,-0.8058,-0.8214,-0.836,-0.852,0.4716,0.4047,0.3437,0.3379,0.0,0.0,0.0,0.0,0.0,0.0,0.8112,0.0,0.8894,0.0,0.9011,0.0,0.8418,0.8472,0.8979,0.8986,0.0,0.8784,0.9539,0.9308,0.8102,0.8817,0.9253,0.9319,0.9417,0.9564,0.9737,0.9415,0.9307,0.938,0.8548,0.7962,0.7586,0.6842,0.6534,0.0,0.0,0.8755,0.0,0.0,0.5909,0.2809,0.0,0.3472,0.2722,0.1769,0.3682,0.6759,0.7691,0.7851,0.7551,0.7543,0.7342,0.7221,0.7115,0.7101,0.0,0.6878,0.6857,0.0,0.6273,0.0,0.0,0.0,0.0,0.0,0.0,0.1286,0.0563,-0.0251,-0.0745,-0.104,0.0,-0.1146,0.0,0.0,0.0,0.0,0.0,0.0,-0.0,-0.0,-0.0,-0.0,0.0,0.0,-0.0,-0.0,-0.1417,-0.1536,-0.0,-0.0,-0.0888,-0.2508,-0.406,-0.4422,-0.3703,-0.373,-0.3804,-0.4016,-0.4618,-0.5429,-0.6448,-0.755,-0.7952,-0.7952,-0.8041,-0.8038,-0.8058,-0.8214,-0.8394,-0.8601,0.0,0.4427,0.0,0.0,0.4295,0.0,0.0,0.0,0.7231,0.0,0.8304,0.9109,0.9414,0.9263,0.9043,0.9043,0.8634,0.8634,0.9375,0.9108,0.0,0.0,0.869,0.8241,0.717,0.8351,0.8981,0.9028,0.9625,0.9971,1.008,0.9758,0.9616,0.9499,0.9051,0.85,0.7795,0.7509,0.6898,0.6276,0.7676,0.8305,0.845,0.8333,0.8051,0.7301,0.5063,0.5823,0.762,0.5068,0.4218,0.462,0.7156,0.7972,0.7912,0.7709,0.7719,0.7763,0.7482,0.732,0.7292,0.7428,0.0,0.0,0.0,0.0,0.6059,0.0,0.0,0.0,0.0,0.0,0.0667,-0.032,-0.0717,-0.0898,-0.0898,-0.0922,-0.0882,0.0,0.0,0.0,0.0,-0.0387,0.0065,-0.0067,-0.0069,-0.0071,0.0,0.0,-0.0,-0.0,-0.3867,-0.4205,-0.0421,-0.0086,-0.2279,-0.677,-0.7002,-0.6087,-0.4176,-0.4159,-0.4139,-0.4212,-0.421,-0.5639,-0.8019,-0.7985,-0.7972,-0.7969,-0.8048,-0.8048,-0.8079,-0.8225,-0.8469,-0.8743,0.5645,0.5266,0.4715,0.0,0.4455,0.4789,0.0,0.0,0.0,0.0,0.864,0.9382,0.9112,0.9014,0.8902,0.8902,0.8701,0.0,0.0,0.0,0.0,0.819,0.9065,0.895,0.7805,0.9135,0.9647,0.948,1.011,1.0368,1.0224,1.0024,0.9845,0.9712,0.9124,0.8575,0.8021,0.7588,0.6034,0.3793,0.2666,0.2215,0.0,0.0,0.6401,0.797,0.7279,0.7381,0.7888,0.7238,0.6954,0.7054,0.7769,0.7962,0.8031,0.795,0.795,0.7963,0.7889,0.7798,0.7788,0.764,0.7604,0.7584,0.0,0.0,0.0,0.0,0.0,0.0,0.0,0.0,-0.0405,-0.1072,-0.0823,-0.0561,-0.0673,-0.0791,0.0,-0.0909,0.0,0.0,-0.0934,-0.0382,-0.0194,-0.0653,-0.1297,0.0,0.0,0.0,0.0,-0.0,-0.1045,-0.2798,-0.5231,-0.1805,-0.0615,-0.1879,-0.5428,-0.6803,-0.627,-0.6572,-0.6807,-0.6926,-0.681,-0.7267,-0.7985,-0.7959,-0.8048,-0.8048,-0.8041,-0.8174,-0.8374,-0.8414,-0.8618,-0.8886,0.6334,0.0,0.0,0.5287,0.0,0.0,0.5909,0.0,0.0,0.8066,0.8715,0.0,0.8899,0.8927,0.894,0.894,0.8859,0.0,0.9253,0.0,0.0,0.8794,0.8857,0.8554,0.7658,0.8693,0.9241,0.9117,0.9799,1.0236,1.0502,1.0149,1.0001,0.9797,0.9421,0.8864,0.8156,0.7396,0.5614,0.3338,0.3126,0.0,0.0,0.505,0.6699,0.8185,0.8038,0.7918,0.7882,0.7949,0.7965,0.7959,0.7969,0.7959,0.8028,0.796,0.7987,0.8024,0.796,0.7987,0.8018,0.7831,0.7811,0.7811,0.7618,0.7161,0.669,0.0,0.0,0.0,0.0,0.0,0.0,-0.0739,-0.0704,-0.0571,-0.0337,-0.0673,0.0,0.0,-0.0741,0.0,-0.0888,-0.0617,-0.0443,-0.0507,-0.1306,0.0,0.0,0.0,0.0,-0.0,-0.0,-0.1327,-0.396,-0.3129,-0.1861,-0.0089,-0.3762,-0.6088,-0.7148,-0.7411,-0.766,-0.7949,-0.7838,-0.7818,-0.7959,-0.8045,-0.8038,-0.8045,-0.8113,-0.8279,-0.8489,-0.8557,-0.8733,-0.894,0.0,0.0,0.0,0.0,0.0,0.0,0.0,0.7639,0.0,0.8586,0.0,0.8783,0.8933,0.8928,0.894,0.894,0.0,0.9244,0.9875,0.9072,0.8849,0.9497,0.8453,0.7631,0.718,0.7909,0.8458,0.856,0.9294,1.0027,1.0803,1.0335,1.0068,0.9965,0.9706,0.9145,0.8285,0.7246,0.5619,0.3929,0.586,0.7161,0.7884,0.7725,0.776,0.7997,0.8024,0.7974,0.7868,0.7918,0.7856,0.7739,0.7962,0.7955,0.8014,0.7879,0.7936,0.8011,0.7879,0.7936,0.8038,0.8038,0.8038,0.7967,0.7692,0.753,0.7353,0.7168,0.6368,0.5884,0.0,0.0,0.0,-0.0307,-0.0545,0.0,0.0,0.0,0.0,0.0,0.0,0.0,0.0,-0.083,-0.0675,-0.0184,0.0,0.0,0.0,0.0,0.0,-0.0,-0.0,0.0,-0.0,0.0,-0.3933,-0.0988,-0.2772,-0.4871,-0.7096,-0.7259,-0.7502,-0.7784,-0.7784,-0.7882,-0.8038,-0.8038,-0.8038,-0.8055,-0.8187,-0.834,-0.8499,-0.8632,-0.8791,-0.894,0.0,0.0,0.0,0.0,0.0,0.8042,0.8283,0.8672,0.8903,0.8925,0.9169,0.9241,0.9109,0.896,0.894,0.894,0.894,0.0,0.0,0.0,0.0,0.8734,0.8213,0.779,0.7339,0.8204,0.8759,0.8921,0.9725,1.0512,1.1157,1.0723,1.049,1.0429,0.9856,0.9077,0.8151,0.7455,0.0,0.4559,0.4555,0.5776,0.7729,0.7863,0.8004,0.8035,0.8041,0.7939,0.7932,0.8041,0.7033,0.6124,0.754,0.8041,0.8035,0.8007,0.8018,0.8035,0.8007,0.8018,0.8038,0.8038,0.8038,0.7994,0.7914,0.7873,0.7825,0.765,0.7285,0.6465,0.4526,0.0,0.0,0.0,0.0,0.0,0.0,0.0,0.0,0.0,0.0,-0.0184,0.0,0.0,0.0,0.0,0.0,0.0,0.0,0.0,0.0,0.0,0.0,0.0,0.0,0.0,-0.2712,-0.5818,-0.4332,-0.4837,-0.7135,-0.7104,-0.7346,-0.7638,-0.7638,-0.779,-0.8038,-0.8038,-0.8038,-0.8041,-0.8069,-0.8245,-0.8486,-0.8513,-0.8699,-0.894,0.0,0.0,0.0,0.0,0.0,0.0,0.0,0.9123,0.0,0.932,0.9137,0.9025,0.8957,0.8917,0.8851,0.895,0.8886,0.8916,0.8825,0.8682,0.8533,0.8381,0.8235,0.795,0.7499,0.7876,0.8416,0.9068,0.9437,1.0131,1.109,1.0735,1.0529,1.0395,0.96,0.8953,0.0,0.0,0.0,0.6367,0.5974,0.659,0.7859,0.7821,0.7933,0.7955,0.7955,0.7965,0.7769,0.6431,0.6323,0.693,0.7756,0.7952,0.8038,0.8038,0.8038,0.8038,0.8038,0.8038,0.8038,0.8038,0.8038,0.8021,0.8048,0.8031,0.799,0.7842,0.7749,0.671,0.3582,0.0812,0.0,0.0,0.0,0.0,0.0,0.0,-0.0138,0.0,0.0,0.0,0.0,0.0,0.0,0.0,0.0,0.0,0.0,0.0,0.0,0.0,0.0,0.0,0.0,0.0,0.0,-0.3375,-0.2248,-0.3576,-0.7104,-0.7251,-0.7394,-0.7604,-0.7678,-0.7834,-0.8038,-0.8038,-0.8038,-0.8045,-0.813,-0.8248,-0.8391,-0.8543,-0.8696,-0.8832,0.0,0.821,0.0,0.0,0.8684,0.0,0.8955,0.9442,0.9779,0.955,0.9137,0.8602,0.8045,0.7981,0.8073,0.8256,0.8623,0.8833,0.8771,0.8699,0.8557,0.8326,0.8255,0.8041,0.7651,0.7465,0.7964,0.0,0.0,0.9658,1.0828,1.0699,1.0461,1.0001,0.0,0.0,0.0,0.0,0.7703,0.7766,0.7526,0.7607,0.7942,0.7774,0.7848,0.8041,0.7959,0.7965,0.7659,0.5529,0.6229,0.7952,0.7972,0.7962,0.8038,0.8038,0.8038,0.8038,0.8038,0.8041,0.8045,0.8041,0.8041,0.8045,0.8045,0.8041,0.8007,0.7993,0.8018,0.6932,0.3333,0.2169,0.0,0.0,0.0,0.0,0.0,0.0,0.0,0.0,0.0,0.0,0.082,0.0,0.0,0.0,0.0,-0.3657,-0.4768,-0.2992,0.0,0.0,0.0,-0.0,-0.0,0.0,-0.0,0.0,-0.0538,-0.2777,-0.6418,-0.707,-0.7489,-0.7651,-0.7763,-0.7896,-0.8038,-0.8038,-0.8038,-0.8052,-0.8174,-0.8241,-0.8303,-0.8564,-0.8682,-0.873,0.0,0.0,0.0,0.0,0.0,0.0,0.0,0.9555,0.9808,0.9774,0.9526,0.8352,0.5598,0.5066,0.5232,0.6175,0.7891,0.8864,0.8927,0.8659,0.8489,0.8462,0.8204,0.7977,0.7794,0.7516,0.772,0.0,0.0,0.9521,1.0626,1.0847,1.0542,0.0,0.0,0.0,0.0,0.7785,0.7681,0.7478,0.7526,0.7675,0.7828,0.797,0.8028,0.8038,0.8041,0.8041,0.7945,0.7659,0.7769,0.7965,0.8048,0.8041,0.8038,0.8038,0.8038,0.8038,0.8038,0.7955,0.7965,0.8045,0.7955,0.7969,0.7969,0.7955,0.8041,0.8048,0.8046,0.7053,0.4043,0.167,0.0526,0.0,0.0,0.0,0.0,0.0,-0.0,-0.0,0.0,0.0,0.0,0.0333,0.0,0.0,-0.4515,-0.4303,-0.3336,-0.4586,-0.5246,-0.5096,0.0,-0.0,-0.0,-0.0,0.0,-0.0,-0.2254,-0.3607,-0.4318,-0.6444,-0.7529,-0.779,-0.7804,-0.7896,-0.8038,-0.8038,-0.8038,-0.8041,-0.8055,-0.8147,-0.8289,-0.8445,-0.8591,-0.873,0.0,0.0,0.0,0.0,0.0,0.0,0.0,0.9666,0.9829,0.9852,0.8563,0.6326,0.2435,0.1905,0.1987,0.2321,0.6405,0.8943,0.8873,0.8655,0.8491,0.8397,0.8292,0.8106,0.795,0.7743,0.7966,0.0,0.0,0.0,0.0,0.0,0.0,0.0,0.0,0.8404,0.805,0.7756,0.7688,0.7641,0.7702,0.7818,0.7957,0.8018,0.8038,0.8038,0.8038,0.8048,0.7959,0.7955,0.7952,0.7952,0.7959,0.8048,0.8038,0.8038,0.8038,0.8041,0.7955,0.7965,0.7662,0.6027,0.6848,0.7982,0.7982,0.715,0.6736,0.7775,0.8034,0.7624,0.6418,0.2788,0.0176,0.0,0.0,0.0,0.0,0.0,0.0,-0.0,0.0,0.0073,0.0,0.0,0.0,0.0,0.0,-0.3369,-0.2888,-0.4567,-0.5601,-0.5867,0.0,-0.2194,-0.0,-0.0,-0.0,-0.0091,-0.3873,-0.5899,-0.6199,-0.7111,-0.7675,-0.7946,-0.7946,-0.7984,-0.8038,-0.8038,-0.8038,-0.8038,-0.8038,-0.8075,-0.816,-0.8394,-0.852,-0.8608,1.0174,0.0,0.9598,0.0,0.9759,0.9676,0.9754,0.9822,0.9825,0.9842,0.8471,0.6377,0.3197,0.1206,0.0711,0.2584,0.4953,0.6694,0.753,0.7466,0.7648,0.8302,0.8217,0.0,0.8041,0.7889,0.7948,0.8404,0.8921,0.0,0.0,0.0,0.0,0.0,0.8298,0.8166,0.8063,0.7785,0.7682,0.7811,0.7811,0.7906,0.8048,0.8048,0.7952,0.7955,0.7955,0.7965,0.7872,0.7138,0.7338,0.7955,0.7962,0.7955,0.8048,0.8041,0.8045,0.7952,0.7969,0.7979,0.7372,0.4622,0.6047,0.7999,0.7992,0.6648,0.5627,0.6653,0.6872,0.6557,0.5764,0.2568,-0.0,-0.0,0.0,0.0,0.0,0.0,0.0,-0.089,-0.0995,-0.0811,-0.0074,0.0142,0.0,0.0,0.0,0.0,-0.3255,-0.456,0.0,0.0,0.0,0.0,0.0,-0.0524,-0.0354,-0.1259,-0.4613,-0.6703,-0.7591,-0.7763,-0.7851,-0.8038,-0.8038,-0.8038,-0.8038,-0.8038,-0.8065,-0.8106,-0.8106,-0.8133,-0.8201,-0.8455,-0.855,-0.8584,1.2243,1.0703,0.9519,0.9734,0.9812,0.9812,0.9819,0.9822,0.9822,0.9822,0.9819,0.9721,0.9652,0.3936,0.255,0.8756,0.3638,0.1388,0.4369,0.4546,0.5629,0.0,0.0,0.7965,0.8038,0.7889,0.7811,0.7807,0.0,0.0,0.8598,0.0,0.9076,0.8598,0.8345,0.8004,0.76,0.76,0.7682,0.7811,0.7811,0.7916,0.7972,0.7972,0.7979,0.7992,0.7992,0.7992,0.7578,0.4926,0.5839,0.7982,0.8048,0.7955,0.7969,0.8045,0.7955,0.7972,0.7972,0.7999,0.7397,0.4626,0.6055,0.8019,0.7995,0.6648,0.512,0.4218,0.406,0.3209,0.0574,-0.0,-0.0,-0.0,0.0,0.0,0.0,0.0,0.0,-0.2939,-0.3392,-0.2654,-0.0227,0.0,0.0,0.0,0.0,0.0,0.0,0.0,0.0,-0.0156,-0.4017,0.0,-0.5328,-0.1759,-0.1348,-0.3969,-0.4025,-0.5317,-0.756,-0.7916,-0.8035,-0.8038,-0.8038,-0.8038,-0.8038,-0.8038,-0.813,-0.8269,-0.8269,-0.8353,-0.8496,-0.8652,-0.8706,-0.873,1.0631,1.0076,0.9775,0.9795,0.9907,0.9941,0.9836,0.9998,1.0059,0.9849,0.9914,0.9944,0.9856,0.7922,0.5642,0.0,0.1161,0.0458,0.0,0.1424,0.1837,0.2592,0.6071,0.8024,0.8011,0.7969,0.7933,0.7811,0.0,0.0,0.0,0.8737,0.8547,0.8023,0.7974,0.7948,0.7899,0.7899,0.7926,0.7967,0.7984,0.7925,0.7769,0.5934,0.5229,0.5231,0.5231,0.6458,0.7598,0.4929,0.5754,0.7717,0.5837,0.6542,0.7982,0.7975,0.7979,0.7989,0.8006,0.8016,0.6891,0.242,0.1916,0.3537,0.7211,0.762,0.7095,0.6762,0.3809,0.099,0.0192,-0.0,-0.0,-0.0,-0.0,0.0,0.0,0.0,-0.0255,-0.0929,-0.2367,-0.311,0.0,-0.0948,0.0,0.0,0.0,0.0,0.0,0.0,0.0,0.0,-0.2506,0.0,-0.1761,-0.0536,-0.0453,-0.1284,-0.4991,-0.7085,-0.7691,-0.7861,-0.8038,-0.8038,-0.8038,-0.8038,-0.8038,-0.8038,-0.813,-0.8272,-0.8272,-0.8357,-0.8503,-0.8655,-0.8689,-0.8689,1.0657,1.0179,0.9822,0.9822,0.99,0.993,0.9836,0.9985,1.0039,0.9846,0.9903,0.9927,0.9832,0.9758,0.0,0.4027,0.1399,-0.0,-0.0,-0.0,-0.0,-0.0,0.3195,0.5645,0.7108,0.0,0.0,0.7984,0.8315,0.8481,0.8391,0.8391,0.8192,0.7896,0.7896,0.795,0.8038,0.8038,0.8038,0.8041,0.7955,0.7656,0.6845,0.482,0.3413,0.2511,0.2513,0.3527,0.4853,0.4234,0.4444,0.4863,0.4236,0.4435,0.5144,0.625,0.7175,0.8006,0.8022,0.6486,0.4144,0.0808,-0.0,0.0909,0.4248,0.6595,0.8029,0.8009,0.5356,0.2401,0.0388,-0.0,-0.0,-0.0,-0.0,-0.0,-0.0,0.0,0.0,0.0,0.0,0.0,0.0,-0.2181,0.0,0.0,0.0,0.0,0.0,0.0,0.0,-0.3214,-0.1137,0.0,-0.0,-0.0,-0.0,-0.0,-0.3394,-0.5968,-0.7835,-0.7915,-0.7952,-0.7952,-0.7952,-0.7955,-0.7959,-0.7955,-0.8073,-0.8253,-0.8313,-0.8442,-0.8665,-0.876,-0.8777,-0.8771,1.2097,1.0778,0.0,0.0,0.9829,0.0,0.9822,0.9839,0.9846,0.9825,0.9829,0.9832,0.9822,0.9822,0.9778,0.9789,0.0,0.0,0.0,-0.0,-0.0,-0.0,-0.0,0.1806,0.5838,0.7321,0.8183,0.8255,0.8109,0.8038,0.8038,0.8038,0.8038,0.8038,0.8038,0.8038,0.8038,0.8038,0.8038,0.8038,0.8041,0.7033,0.5522,0.4618,0.2611,0.0302,0.0101,-0.0,0.0404,0.2832,0.2022,0.0404,0.2933,0.2022,0.0504,0.3015,0.5448,0.7406,0.7406,0.3838,-0.0,-0.0,-0.0,-0.0,-0.0,0.3823,0.7588,0.7918,0.7717,0.5939,0.0887,-0.0,-0.0,-0.0,-0.0,-0.0,-0.0,0.0,0.0,0.0,0.0,0.0,0.0,-0.321,-0.3516,0.0,0.0,0.0,0.0,0.0,-0.0252,-0.0,-0.0,-0.0,-0.0,-0.0,-0.0,-0.0,-0.0,-0.2568,-0.7463,-0.7869,-0.7975,-0.7975,-0.7769,-0.7672,-0.7682,-0.7682,-0.7939,-0.8276,-0.8294,-0.8485,-0.8699,-0.8823,-0.894,-0.894,0.0,0.0,0.9822,0.9822,0.9917,0.9958,0.9839,1.0022,1.0086,0.9852,0.9924,0.9951,0.9832,0.9822,0.9812,0.9785,0.8336,0.5358,0.0352,-0.0,-0.0,-0.0,-0.0,0.2609,0.8078,0.8482,0.8484,0.8119,0.8065,0.8038,0.8038,0.8038,0.8038,0.8038,0.8038,0.8038,0.8038,0.8038,0.8038,0.8041,0.7959,0.7762,0.7359,0.7163,0.5434,0.281,0.0704,-0.0,0.0101,0.0707,0.0505,0.0101,0.0707,0.0505,0.0101,0.0807,0.1412,0.1918,0.1918,0.101,-0.0,-0.0,-0.0,-0.0,-0.0,0.1007,0.3027,0.7199,0.4752,0.1506,0.0197,-0.0,-0.0,-0.0,-0.0,-0.0,-0.0,-0.0,0.0,0.0,-0.0,-0.0169,-0.0685,-0.0853,-0.093,0.0,0.0,0.0,0.0,-0.4257,-0.2891,-0.0092,-0.0,-0.0,-0.0,-0.0,-0.0,-0.0,-0.0,-0.0701,-0.201,-0.6147,-0.7985,-0.7885,-0.5837,-0.4924,-0.4931,-0.4898,-0.62,-0.8066,-0.8319,-0.7684,-0.6904,-0.8336,-0.894,-0.894,0.9836,0.9822,0.9822,0.9822,0.989,0.9917,0.9832,0.9961,1.0036,0.9937,0.9937,0.9941,0.9927,0.9863,0.9822,0.9822,0.9847,0.7823,0.3349,0.1173,-0.0,-0.0,-0.0,0.1561,0.4757,0.6593,0.7583,0.7971,0.7982,0.8038,0.8038,0.8038,0.8038,0.8038,0.8038,0.8038,0.8038,0.8038,0.8038,0.8041,0.7952,0.7959,0.7959,0.7975,0.7056,0.5632,0.4223,0.2914,0.1607,0.0403,-0.0,-0.0,-0.0,-0.0,-0.0,-0.0,-0.0,-0.0,-0.0,-0.0,-0.0,-0.0,-0.0,-0.0,-0.0,-0.0,0.0808,0.3739,0.2019,-0.0,-0.0,-0.0,-0.0,-0.0,-0.0,-0.0,-0.0,-0.0,0.0,-0.0,-0.0,-0.0,-0.0,-0.0,-0.0,-0.0,0.0,0.0,-0.4195,-0.5016,-0.3764,-0.0095,-0.0,-0.0,-0.0,-0.0,-0.0,-0.0,-0.0,-0.0,-0.0101,-0.3016,-0.5648,-0.7902,-0.6464,-0.4433,-0.2215,-0.2136,-0.2992,-0.4614,-0.7232,-0.7356,-0.6279,-0.8134,-0.8947,-0.894,0.9825,0.9822,0.9822,0.9822,0.9822,0.9822,0.9822,0.9822,0.9869,0.9998,0.99,0.9869,0.9998,0.9897,0.9822,0.9822,0.9851,0.8982,0.7228,0.3586,0.1059,-0.0,-0.0,-0.0,-0.0,0.3635,0.6345,0.7991,0.8046,0.8062,0.8038,0.8038,0.8038,0.8038,0.8038,0.8038,0.8038,0.8038,0.8038,0.8038,0.8038,0.8038,0.8041,0.7962,0.7969,0.7969,0.7982,0.655,0.4218,0.201,0.0905,0.0603,0.0605,0.0303,-0.0,-0.0,-0.0,-0.0,-0.0,-0.0,-0.0,-0.0,-0.0,-0.0,-0.0,-0.0,-0.0,-0.0,-0.0,-0.0,-0.0,-0.0,-0.0,-0.0,-0.0,-0.0,-0.0,0.0,-0.0,-0.0,-0.0,-0.0,-0.0,-0.0,-0.0,-0.0,-0.0,-0.1062,0.0,-0.4232,-0.3204,-0.0099,-0.0,-0.0,-0.0,-0.0,-0.0,-0.0,-0.0,-0.0,-0.0,-0.0,-0.2518,-0.679,-0.679,-0.4244,-0.0,-0.0,-0.0,-0.0423,-0.498,-0.6383,-0.6008,-0.8168,-0.885,-0.894,0.9846,0.9822,0.9822,0.9822,0.9822,0.9822,0.9822,0.9822,0.9829,0.9852,0.9836,0.9829,0.9852,0.9836,0.9822,0.9822,0.9805,0.9687,0.9352,0.863,0.5856,0.0235,-0.0,-0.0,-0.0,0.308,0.5794,0.8001,0.8156,0.8167,0.8038,0.8038,0.8038,0.8038,0.8038,0.8038,0.8038,0.8038,0.8038,0.8038,0.8038,0.8038,0.8038,0.8041,0.8045,0.8048,0.7969,0.7769,0.7359,0.6859,0.5233,0.3413,0.3416,0.1809,-0.0,-0.0,-0.0,-0.0,-0.0,-0.0,-0.0,-0.0,-0.0,-0.0,-0.0,-0.0,-0.0,-0.0,-0.0,-0.0,-0.0,-0.0,-0.0,-0.0,-0.0,-0.0,-0.0,0.0,-0.0,-0.0,-0.0,-0.0,-0.0,-0.0,-0.0,-0.0,-0.0,-0.0194,-0.0597,-0.0792,-0.0595,-0.0,-0.0,-0.0,-0.0,-0.0,-0.0,-0.0,-0.0,-0.0,-0.0,-0.0,-0.0404,-0.1212,-0.1212,-0.0808,-0.0,-0.0,-0.0,-0.0105,-0.0873,-0.2645,-0.5041,-0.791,-0.885,-0.894,1.0914,1.0418,1.0061,1.0899,1.0422,0.9822,0.9822,0.9822,0.9849,0.9934,0.9873,0.9852,0.9934,0.9869,0.9822,0.9822,0.9822,0.9791,0.9727,0.9768,0.7875,0.368,0.1288,-0.0,-0.0,0.2969,0.5712,0.8233,0.8326,0.8191,0.8038,0.8038,0.8038,0.8038,0.8038,0.8038,0.8038,0.8038,0.8038,0.8038,0.8038,0.8038,0.8038,0.8038,0.8038,0.8041,0.7952,0.7955,0.7959,0.7975,0.716,0.6139,0.6145,0.5336,0.4024,0.2611,0.1107,-0.0,-0.0,-0.0,-0.0,-0.0,-0.0,-0.0,-0.0,-0.0,-0.0,-0.0,-0.0,-0.0,-0.0,-0.0,-0.0,-0.0,-0.0,0.0,0.0,-0.0,-0.0,-0.0,-0.0,-0.0,-0.0,-0.0,-0.0,-0.0,-0.0,-0.0,-0.0,-0.0,-0.0,-0.0,-0.0,-0.0,-0.0,-0.0,-0.0,-0.0,-0.0,-0.0,-0.0,-0.0,-0.0,-0.0,-0.0,-0.0,-0.0,-0.0,-0.0,-0.0,-0.0,-0.0885,-0.2652,-0.7265,-0.8866,-0.8846,1.1856,1.0899,1.0301,1.1976,1.0899,0.9822,0.9822,0.9822,0.9863,0.9981,0.9893,0.9866,0.9981,0.989,0.9822,0.9822,0.9822,0.9761,0.9618,0.9727,0.8979,0.7367,0.3272,0.1033,0.1009,0.3974,0.6521,0.8434,0.8394,0.8225,0.8038,0.8038,0.8038,0.8038,0.8038,0.8038,0.8038,0.8038,0.8038,0.8038,0.8038,0.8038,0.8038,0.8038,0.8038,0.8038,0.8038,0.8038,0.8041,0.7959,0.7965,0.7965,0.7975,0.7982,0.7575,0.5532,0.3521,0.1715,0.1109,0.0907,0.0907,0.0907,0.0907,0.0907,0.0907,0.0403,-0.0,-0.0,-0.0,-0.0,-0.0,-0.0,-0.0,-0.0,0.0,0.0,0.0,-0.0,-0.0,-0.0,-0.0,-0.0,-0.0,-0.0,0.0497,0.1816,0.0707,-0.0,-0.0,-0.0,-0.0,-0.0,-0.0,-0.0,-0.0,-0.0,-0.0,-0.0,-0.0,-0.0,-0.0,-0.0,-0.0,-0.0,-0.0,-0.0,-0.0,-0.0,-0.0,-0.0,-0.0,-0.0442,-0.1563,-0.6163,-0.8307,-0.8853,1.1856,1.0899,1.0301,1.1976,1.0899,0.9822,0.9822,0.9822,0.9825,0.9836,0.9829,0.9825,0.9836,0.9829,0.9822,0.9822,0.9822,0.9761,0.9618,0.9618,0.9507,0.9349,0.5998,0.4145,0.4136,0.7043,0.8481,0.8302,0.8482,0.8319,0.8038,0.8038,0.8038,0.8038,0.8038,0.8038,0.8038,0.8038,0.8038,0.8038,0.8038,0.8038,0.8038,0.8038,0.8038,0.8038,0.8038,0.8038,0.8038,0.8041,0.8041,0.8041,0.8041,0.7959,0.7975,0.7769,0.7572,0.6865,0.4422,0.3715,0.3715,0.3715,0.3715,0.3715,0.3715,0.1809,-0.0,-0.0,-0.0,-0.0,-0.0,-0.0,-0.0,-0.0,0.0,0.0,-0.0,-0.0,-0.0,-0.0,-0.0,-0.0,-0.0,-0.0,0.2017,0.6997,0.2827,-0.0,-0.0,-0.0,-0.0,-0.0,-0.0,-0.0,-0.0,-0.0,-0.0,-0.0,-0.0,-0.0,-0.0,-0.0,-0.0,-0.0,-0.0,-0.0,-0.0,-0.0,-0.0,-0.0,-0.0,-0.1656,-0.4247,-0.4695,-0.6594,-0.894,1.3412,1.3168,1.3287,1.4945,1.388,1.2813,1.2813,1.1976,1.1257,1.1257,1.0422,0.9822,0.9822,0.9822,0.9785,0.9696,0.969,0.9588,0.9344,0.9327,0.9286,0.9308,0.8097,0.7356,0.7184,0.8213,0.8615,0.8299,0.83,0.8245,0.8038,0.8038,0.8038,0.8038,0.8038,0.8038,0.8038,0.8038,0.8038,0.8038,0.8038,0.8038,0.8038,0.8038,0.8038,0.8038,0.8038,0.8038,0.8038,0.8038,0.8038,0.8038,0.8038,0.8045,0.7952,0.7952,0.7955,0.7753,0.6731,0.6439,0.645,0.645,0.645,0.645,0.645,0.5648,0.4033,0.0704,-0.0,-0.0,-0.0,-0.0,-0.0,-0.0,0.0,-0.0,-0.0,-0.0,-0.0,-0.0,-0.0,-0.0,-0.0,0.3035,0.578,0.7821,0.6078,0.4237,0.2611,0.0905,-0.0,-0.0,-0.0,-0.0,-0.0,-0.0,-0.0,-0.0,-0.0,-0.0,-0.0,-0.0,-0.0,-0.0,-0.0,-0.0,-0.0,-0.0,-0.0,-0.0,-0.0,-0.3009,-0.719,-0.7184,-0.8009,-0.9076,1.4955,1.496,1.5074,1.6727,1.5666,1.4604,1.4604,1.3646,1.2933,1.2933,1.1976,1.1257,1.1257,1.1257,1.1071,1.0439,1.0306,1.0054,0.9284,0.911,0.9093,0.911,0.911,0.9072,0.8876,0.8756,0.8618,0.8468,0.8462,0.8306,0.8113,0.8113,0.8085,0.8038,0.8038,0.8038,0.8038,0.8038,0.8038,0.8038,0.8038,0.8038,0.8038,0.8038,0.8038,0.8038,0.8038,0.8038,0.8038,0.8038,0.8038,0.8038,0.8038,0.8038,0.8038,0.8038,0.8072,0.8102,0.8052,0.8092,0.8036,0.7985,0.7975,0.7975,0.7975,0.7992,0.6773,0.2612,0.1509,0.1209,0.1209,0.1209,0.1209,0.1209,0.0598,0.0298,0.1107,0.1995,0.1889,0.0201,0.0705,0.1612,0.242,0.5056,0.7101,0.7908,0.8012,0.7202,0.548,0.1926,-0.0,-0.0,-0.0,-0.0,-0.0,-0.0,-0.0,-0.0,-0.0,-0.0,-0.0,-0.0,-0.0,-0.0,-0.0,-0.0,-0.0,-0.0,-0.0,-0.0224,-0.2017,-0.4711,-0.7644,-0.8546,-0.8933,-0.91,1.6374,1.5666,1.5192,1.6733,1.5666,1.4604,1.4604,1.4604,1.4604,1.4604,1.4604,1.4604,1.4604,1.4604,1.3917,1.2181,1.2047,1.1197,0.9281,0.9018,0.894,0.894,0.894,0.894,0.894,0.8937,0.8862,0.871,0.871,0.856,0.8272,0.8272,0.8187,0.8038,0.8038,0.8038,0.8038,0.8038,0.8038,0.8038,0.8038,0.8038,0.8038,0.8038,0.8038,0.8038,0.8038,0.8038,0.8038,0.8038,0.8038,0.8038,0.8038,0.8038,0.8038,0.8038,0.815,0.8238,0.8082,0.8153,0.8235,0.8079,0.8038,0.8038,0.8038,0.7955,0.7459,0.5827,0.4718,0.4016,0.4016,0.4016,0.4016,0.4016,0.1808,0.1005,0.3615,0.6263,0.6062,0.0702,0.2405,0.5127,0.7785,0.5634,0.5125,0.7769,0.7982,0.816,0.8525,0.3103,-0.0,-0.0,-0.0,-0.0,-0.0,-0.0,-0.0,-0.0,-0.0,-0.0,-0.0,-0.0,-0.0,-0.0,-0.0,-0.0,-0.0,-0.0,-0.0,-0.0561,-0.6519,-0.7075,-0.4918,-0.7841,-0.885,-0.896,1.6844,1.7572,1.8169,1.8642,1.8286,1.7935,1.7935,1.6973,1.6256,1.6256,1.5311,1.4604,1.4604,1.4604,1.4395,1.3698,1.3428,1.2488,1.0667,0.9507,0.894,0.894,0.894,0.894,0.894,0.8832,0.8757,0.871,0.8604,0.8455,0.8272,0.8272,0.8187,0.8038,0.8038,0.8038,0.8038,0.8038,0.8038,0.8038,0.8038,0.8038,0.8038,0.8038,0.8038,0.8038,0.8038,0.8038,0.8038,0.8038,0.8038,0.8038,0.8038,0.8038,0.8038,0.8038,0.815,0.8364,0.8421,0.8412,0.8357,0.8102,0.8038,0.8038,0.8038,0.7955,0.7869,0.7356,0.6956,0.6759,0.6759,0.6759,0.6759,0.6759,0.6321,0.5546,0.4508,0.6479,0.7421,0.5853,0.6297,0.7205,0.8245,0.7431,0.7199,0.8113,0.8119,0.8073,0.8337,0.6878,0.4189,0.0108,-0.0,-0.0,-0.0,-0.0,-0.0,-0.0,-0.0,-0.0,-0.0,-0.0,-0.0,-0.0,-0.0,-0.0,-0.0,-0.0,-0.0,-0.0224,-0.1906,-0.4707,-0.775,-0.8546,-0.9103,-0.9225,1.7806,1.8765,1.9366,1.9366,1.9366,1.9366,1.9366,1.8525,1.7923,1.7923,1.7097,1.6503,1.6503,1.6503,1.6121,1.5194,1.4184,1.2889,1.1232,1.0241,0.9482,0.8937,0.894,0.894,0.894,0.8849,0.8771,0.871,0.8618,0.8469,0.8272,0.8272,0.8187,0.8038,0.8038,0.8038,0.8038,0.8038,0.8038,0.8038,0.8038,0.8038,0.8038,0.8038,0.8038,0.8038,0.8038,0.8038,0.8048,0.8109,0.817,0.8204,0.8147,0.817,0.8214,0.8214,0.8323,0.8431,0.8584,0.8567,0.8516,0.8275,0.8174,0.813,0.813,0.8143,0.8153,0.8153,0.8201,0.8245,0.8245,0.8245,0.8245,0.8245,0.8333,0.7862,0.6261,0.7327,0.8183,0.817,0.8094,0.818,0.8484,0.8303,0.8279,0.8357,0.8272,0.8323,0.8471,0.8516,0.7071,0.3633,0.1199,-0.0,-0.0,-0.0,-0.0,-0.0,-0.0,-0.0,-0.0,-0.0,-0.0,-0.0,-0.0,-0.0,-0.0,-0.0,-0.0,-0.0,-0.0,-0.2237,-0.5712,-0.8084,-0.8977,-0.9201,1.9127,1.9366,1.9366,1.9366,1.9366,1.9366,1.9366,1.9366,1.9366,1.9366,1.9366,1.9366,1.9366,1.9366,1.8659,1.6724,1.4647,1.2965,1.1538,1.1214,1.0457,0.9154,0.8937,0.893,0.892,0.893,0.8869,0.873,0.8716,0.8567,0.8289,0.8275,0.8187,0.8038,0.8038,0.8038,0.8038,0.8038,0.8038,0.8038,0.8038,0.8038,0.8038,0.8038,0.8038,0.8038,0.8038,0.8038,0.8062,0.8218,0.8364,0.8459,0.833,0.8377,0.8482,0.8482,0.8591,0.8679,0.854,0.8615,0.8699,0.8557,0.8414,0.8306,0.8292,0.8289,0.8289,0.8289,0.8391,0.8482,0.8482,0.8482,0.8482,0.8482,0.8404,0.8418,0.8503,0.852,0.8523,0.8394,0.8381,0.8381,0.8608,0.8503,0.8503,0.8503,0.8489,0.8554,0.8723,0.8629,0.8712,0.889,0.3353,0.0224,-0.0,-0.0,-0.0,-0.0,-0.0,-0.0,-0.0,-0.0,-0.0,-0.0,-0.0,-0.0,-0.0,-0.0,-0.0,-0.0,-0.0,-0.0,-0.067,-0.6712,-0.8873,-0.8893,1.9366,1.9366,1.9366,1.9366,1.9366,1.9366,1.9366,1.9366,1.9366,1.9366,1.9366,1.9366,1.9366,1.9366,1.9103,1.8392,1.6477,1.5087,1.446,1.2403,1.1,1.0676,0.9482,0.8882,0.8764,0.8876,0.8923,0.8889,0.8767,0.8615,0.8435,0.8323,0.8187,0.8038,0.8038,0.8038,0.8038,0.8038,0.8038,0.8038,0.8038,0.8038,0.8038,0.8038,0.8038,0.8038,0.8038,0.8038,0.8062,0.8218,0.8364,0.8476,0.8445,0.8459,0.8482,0.8587,0.8591,0.8703,0.8779,0.8882,0.8879,0.8849,0.8726,0.8584,0.8465,0.8435,0.8435,0.8435,0.8462,0.8482,0.8482,0.8482,0.8482,0.8482,0.8587,0.8665,0.8662,0.8665,0.8665,0.8659,0.8557,0.853,0.8648,0.8662,0.8662,0.8662,0.855,0.8601,0.8876,0.8781,0.8696,0.889,0.5371,0.2348,-0.0,-0.0,-0.0,-0.0,-0.0,-0.0,-0.0,-0.0,-0.0,-0.0,-0.0,-0.0,-0.0,-0.0,-0.0,-0.0,-0.0,-0.0,-0.067,-0.6733,-0.895,-0.8911,1.9366,1.9366,1.9366,1.9366,1.9366,1.9366,1.9366,1.9366,1.9366,1.9366,1.9366,1.9366,1.9366,1.9239,1.8978,1.8544,1.6863,1.5476,1.4465,1.2295,1.0781,1.0135,0.93,0.8794,0.8713,0.8716,0.8686,0.8621,0.854,0.8421,0.8269,0.8194,0.8116,0.8041,0.8116,0.815,0.815,0.815,0.815,0.8143,0.8069,0.8082,0.815,0.815,0.8191,0.8252,0.8252,0.8296,0.836,0.837,0.8516,0.8686,0.8615,0.8642,0.8699,0.8699,0.8757,0.8818,0.8931,0.8879,0.894,0.894,0.8879,0.8777,0.8625,0.8591,0.8591,0.8591,0.8648,0.8699,0.8699,0.8699,0.8699,0.8699,0.8767,0.8818,0.8818,0.8818,0.8818,0.8818,0.875,0.8733,0.8811,0.8818,0.8818,0.8818,0.8747,0.8771,0.893,0.8872,0.8779,0.8893,0.7413,0.4482,-0.0,-0.0,-0.0,-0.0,-0.0,-0.0,-0.0,-0.0,-0.0,-0.0,-0.0,-0.0,-0.0,-0.0,-0.0,-0.0,-0.0,-0.0,-0.0336,-0.347,-0.6417,-0.8967,1.9366,1.9366,1.9366,1.9366,1.9366,1.9366,1.9366,1.9366,1.9366,1.9366,1.9366,1.9366,1.9366,1.8816,1.8282,1.7642,1.6326,1.4886,1.3383,1.1973,1.055,0.9332,0.8886,0.8686,0.8635,0.8509,0.8401,0.8306,0.8306,0.8241,0.8113,0.8092,0.8092,0.8119,0.8197,0.8245,0.8269,0.8241,0.8245,0.8258,0.813,0.817,0.8306,0.8306,0.8381,0.8482,0.8482,0.8581,0.8693,0.8564,0.8706,0.8916,0.8791,0.8835,0.894,0.894,0.894,0.894,0.894,0.894,0.894,0.894,0.894,0.8913,0.8808,0.8788,0.8788,0.8788,0.8906,0.9005,0.8981,0.8977,0.8967,0.8944,0.894,0.894,0.894,0.894,0.894,0.894,0.894,0.894,0.894,0.894,0.894,0.894,0.894,0.894,0.8944,0.8853,0.8873,0.8897,0.8907,0.6067,0.0112,-0.0,-0.0,-0.0,-0.0,-0.0,-0.0,-0.0,-0.0,-0.0,-0.0,-0.0,-0.0,-0.0,-0.0,-0.0,-0.0,-0.0,-0.0112,-0.0559,-0.3908,-0.8177,1.9366,1.9366,1.9366,1.9366,1.9366,1.9366,1.9366,1.9366,1.9366,1.9366,1.9366,1.9366,1.9366,1.7812,1.6573,1.6168,1.4625,1.3516,1.327,1.1973,1.0925,1.0659,0.9359,0.8591,0.8336,0.8309,0.835,0.8455,0.8455,0.8442,0.8421,0.8296,0.8306,0.8411,0.8177,0.8143,0.8262,0.813,0.8147,0.8269,0.8248,0.8326,0.8455,0.8455,0.8465,0.8482,0.8482,0.8581,0.8706,0.8686,0.8794,0.8933,0.8913,0.8923,0.894,0.894,0.894,0.894,0.894,0.894,0.894,0.894,0.894,0.8964,0.9069,0.9093,0.9093,0.9093,0.9215,0.9279,0.915,0.9123,0.9083,0.8957,0.894,0.894,0.894,0.894,0.894,0.894,0.894,0.894,0.894,0.894,0.894,0.894,0.894,0.8947,0.8856,0.886,0.8876,0.891,0.8913,0.6067,0.0112,-0.0,-0.0,-0.0,-0.0,-0.0,-0.0,-0.0,-0.0,-0.0,-0.0,-0.0,-0.0,-0.0,-0.0,-0.0,-0.0,-0.0,-0.0336,-0.2907,-0.4359,-0.5477,1.9366,1.9366,1.9366,1.9366,1.9366,1.9366,1.9366,1.9366,1.9366,1.9366,1.9366,1.9366,1.9366,1.7678,1.6352,1.5949,1.3727,1.2197,1.2087,1.0672,0.9881,0.981,0.899,0.8523,0.8391,0.8225,0.8174,0.8235,0.8235,0.8279,0.836,0.8211,0.8262,0.8472,0.8262,0.8299,0.8506,0.8353,0.8377,0.8509,0.8425,0.8476,0.8611,0.8611,0.8662,0.8737,0.8737,0.8781,0.8838,0.8838,0.8882,0.894,0.894,0.8994,0.9042,0.896,0.9055,0.9167,0.9083,0.912,0.9071,0.9184,0.9188,0.9201,0.9266,0.9344,0.9265,0.93,0.9334,0.9361,0.9293,0.9283,0.9232,0.9083,0.9059,0.9028,0.895,0.894,0.894,0.894,0.894,0.894,0.894,0.894,0.8944,0.8846,0.8846,0.8856,0.888,0.8886,0.8897,0.8913,0.5616,0.269,-0.0,-0.0,-0.0,-0.0,-0.0,-0.0,-0.0,-0.0,-0.0,-0.0,-0.0,-0.0,-0.0,-0.0,-0.0,-0.0,-0.0,-0.0,-0.0561,-0.527,-0.6959,-0.7176]},{"header":{"parameterUnit":"m.s-1","parameterCategory":1,"la1":30.6,"la2":28.766,"lo1":-90.7593,"lo2":-88.6598,"dy":0.0162,"dx":0.0183,"nx":116,"ny":114,"refTime":"2023-06-07T18:00:00:Z","depth":0,"parameterNumber":3,"parameterNumberName":"V-component_of_WINDS"},"data":[0.0,0.0,0.0,0.0,0.0,0.0,0.0,0.0,0.0,0.0,0.0,0.0,0.0,0.0,0.0,0.0,0.0,0.0,0.0,0.0,0.0,0.0,0.0,0.0,0.0,0.0,0.0,0.0,0.0,0.0,0.0,0.0,0.0,0.0,0.0,0.0,0.0,0.0,0.0,0.0,0.0,0.0,0.0,0.0,0.0,0.0,0.0,0.0,0.0,0.0,0.0,0.0,0.0,0.0,0.0,0.0,0.0,0.0,0.0,0.0,0.0,0.0,0.0,0.0,0.0,0.0,0.0,0.0,0.0,0.0,0.0,0.0,0.0,0.0,0.0,0.0,0.0,0.0,0.0,0.0,0.0,0.0,0.0,0.0,0.0,0.0,0.0,0.0,0.0,0.0,0.0,0.0,0.0,0.0,0.0,0.0,0.0,0.0,0.0,0.0,0.0,0.0,0.0,0.0,0.0,0.0,0.0,0.0,0.0,0.0,0.0,0.0,0.0,0.0,0.0,0.0,0.0,0.0,0.0,0.0,0.0,0.0,0.0,0.0,0.0,0.0,0.0,0.0,0.0,0.0,0.0,0.0,0.0,0.0,0.0,0.0,0.0,0.0,0.0,0.0,0.0,0.0,0.0,0.0,0.0,0.0,0.0,0.0,0.0,0.0,0.0,0.0,0.0,0.0,0.0,0.0,0.0,0.0,0.0,0.0,0.0,0.0,0.0,0.0,0.0,0.0,0.0,0.0,0.0,0.0,0.0,0.0,0.0,0.0,0.0,0.0,0.0,0.0,0.0,0.0,0.0,0.0,0.0,0.0,0.0,0.0,0.0,0.0,0.0,0.0,0.0,0.0,0.0,0.0,0.0,0.0,0.0,0.0,0.0,0.0,0.0,0.0,0.0,0.0,0.0,0.0,0.0,0.0,0.0,0.0,0.0,0.0,0.0,0.0,0.0,0.0,0.0,0.0,0.0,0.0,0.0,0.0,0.0,0.0,0.0,0.0,0.0,0.0,0.0,0.0,0.0,0.0,0.0,0.0,0.0,0.0,0.0,0.0,0.0,0.0,0.0,0.0,0.0,0.0,0.0,0.0,0.0,0.0,0.0,0.0,0.0,0.0,0.0,0.0,0.0,0.0,0.0,0.0,0.0,0.0,0.0,0.0,0.0,0.0,0.0,0.0,0.0,0.0,0.0,0.0,0.0,0.0,0.0,0.0,0.0,0.0,0.0,0.0,0.0,0.0,0.0,0.0,0.0,0.0,0.0,0.0,0.0,0.0,0.0,0.0,0.0,0.0,0.0,0.0,0.0,0.0,0.0,0.0,0.0,0.0,0.0,0.0,0.0,0.0,0.0,0.0,0.0,0.0,0.0,0.0,0.0,0.0,0.0,0.0,0.0,0.0,0.0,0.0,0.0,0.0,0.0,0.0,0.0,0.0,0.0,0.0,0.0,0.0,0.0,0.0,0.0,0.0,0.0,0.0,0.0,0.0,0.0,0.0,0.0,0.0,0.0,0.0,0.0,0.0,0.0,0.0,0.0,0.0,0.0,0.0,0.0,0.0,0.0,0.0,0.0,0.0,0.0,0.0,0.0,0.0,0.0,0.0,0.0,0.0,0.0,0.0,0.0,0.0,0.0,0.0,0.0,0.0,0.0,0.0,0.0,0.0,0.0,0.0,0.0,0.0,0.0,0.0,0.0,0.0,0.0,0.0,0.0,0.0,0.0,0.0,0.0,0.0,0.0,0.0,0.0,0.0,0.0,0.0,0.0,0.0,0.0,0.0,0.0,0.0,0.0,0.0,0.0,0.0,0.0,0.0,0.0,0.0,0.0,0.0,0.0,0.0,0.0,0.0,0.0,0.0,0.0,0.0,0.0,0.0,0.0,0.0,0.0,0.0,0.0,0.0,0.0,0.0,0.0,0.0,0.0,0.0,0.0,0.0,0.0,0.0,0.0,0.0,0.0,0.0,0.0,0.0,0.0,0.0,0.0,0.0,0.0,0.0,0.0,0.0,0.0,0.0,0.0,0.0,0.0,0.0,0.0,0.0,0.0,0.0,0.0,0.0,0.0,0.0,0.0,0.0,0.0,0.0,0.0,0.0,0.0,0.0,0.0,0.0,0.0,0.0,0.0,0.0,0.0,0.0,0.0,0.0,0.0,0.0,0.0,0.0,0.0,0.0,0.0,0.0,0.0,0.0,0.0,0.0,0.0,0.0,0.0,0.0,0.0,0.0,0.0,0.0,0.0,0.0,0.0,0.0,0.0,0.0,0.0,0.0,0.0,0.0,0.0,0.0,0.0,0.0,0.0,0.0,0.0,0.0,0.0,0.0,0.0,0.0,0.0,0.0,0.0,0.0,0.0,0.0,0.0,0.0,0.0,0.0,0.0,0.0,0.0,0.0,0.0,0.0,0.0,0.0,0.0,0.0,0.0,0.0,0.0,0.0,0.0,0.0,0.0,0.0,0.0,0.0,0.0,0.0,0.0,0.0,0.0,0.0,0.0,0.0,0.0,0.0,0.0,0.0,0.0,0.0,0.0,0.0,0.0,0.0,0.0,0.0,0.0,0.0,0.0,0.0,0.0,0.0,0.0,0.0,0.0,0.0,0.0,0.0,0.0,0.0,0.0,0.0,0.0,0.0,0.0,0.0,0.0,0.0,0.0,0.0,0.0,0.0,0.0,0.0,0.0,0.0,0.0,0.0,0.0,0.0,0.0,0.0,0.0,0.0,0.0,0.0,0.0,0.0,0.0,0.0,0.0,0.0,0.0,0.0,0.0,0.0,0.0,0.0,0.0,0.0,0.0,0.0,0.0,0.0,0.0,0.0,0.0,0.0,0.0,0.0,0.0,0.0,0.0,0.0,0.0,0.0,0.0,0.0,0.0,0.0,0.0,0.0,0.0,0.0,0.0,0.0,0.0,0.0,0.0,0.0,0.0,0.0,0.0,0.0,0.0,0.0,0.0,0.0,0.0,0.0,0.0,0.0,0.0,0.0,0.0,0.0,0.0,0.0,0.0,0.0,0.0,0.0,0.0,0.0,0.0,0.0,0.0,0.0,0.0,0.0,0.0,0.0,0.0,0.0,0.0,0.0,0.0,0.0,0.0,0.0,0.0,0.0,0.0,0.0,0.0,0.0,0.0,0.0,0.0,0.0,0.0,0.0,0.0,0.0,0.0,0.0,0.0,0.0,0.0,0.0,0.0,0.0,0.0,0.0,0.0,0.0,0.0,0.0,0.0,0.0,0.0,0.0,0.0,0.0,0.0,0.0,0.0,0.0,0.0,0.0,0.0,0.0,0.0,0.0,0.0,0.0,0.0,0.0,0.0,0.0,0.0,0.0,0.0,0.0,0.0,0.0,0.0,0.0,0.0,0.0,0.0,0.0,0.0,0.0,0.0,0.0,0.0,0.0,0.0,0.0,0.0,0.0,0.0,0.0,0.0,0.0,0.0,0.0,0.0,0.0,0.0,0.0,0.0,0.0,0.0,0.0,0.0,0.0,0.0,0.0,0.0,0.0,0.0,0.0,0.0,0.0,0.0,0.0,0.0,0.0,0.0,0.0,0.0,0.0,0.0,0.0,0.0,0.0,0.0,0.0,0.0,0.0,0.0,0.0,0.0,0.0,0.0,0.0,0.0,0.0,0.0,0.0,0.0,0.0,0.0,0.0,0.0,0.0,0.0,0.0,0.0,0.0,0.0,0.0,0.0,0.0,0.0,0.0,0.0,0.0,0.0,0.0,0.0,0.0,0.0,0.0,0.0,0.0,0.0,0.0,0.0,0.0,0.0,0.0,0.0,0.0,0.0,0.0,0.0,0.0,0.0,0.0,0.0,0.0,0.0,0.0,0.0,0.0,0.0,0.0,0.0,0.0,0.0,0.0,0.0,0.0,0.0,0.0,0.0,0.0,0.0,0.0,0.0,0.0,0.0,0.0,0.0,0.0,0.0,0.0,0.0,0.0,0.0,0.0,0.0,0.0,0.0,0.0,0.0,0.0,0.0,0.0,0.0,0.0,0.0,0.0,0.0,0.0,0.0,0.0,0.0,0.0,0.0,0.0,0.0,0.0,0.0,0.0,0.0,0.0,0.0,0.0,0.0,0.0,0.0,0.0,0.0,0.0,0.0,0.0,0.0,0.0,0.0,0.0,0.0,0.0,0.0,0.0,0.0,0.0,0.0,0.0,0.0,0.0,0.0,0.0,0.0,0.0,0.0,0.0,0.0,0.0,0.0,0.0,0.0,0.0,0.0,0.0,0.0,0.0,0.0,0.0,0.0,0.0,0.0,0.0,0.0,0.0,0.0,0.0,0.0,0.0,0.0,0.0,0.0,0.0,0.0,0.0,0.0,0.0,0.0,0.0,0.0,0.0,0.0,0.0,0.0,0.0,0.0,0.0,0.0,0.0,0.0,0.0,0.0,0.0,0.0,0.0,0.0,0.0,0.0,0.0,0.0,0.0,0.0,0.0,0.0,0.0,0.0,0.0,0.0,0.0,0.0,0.0,0.0,0.0,0.0,0.0,0.0,0.0,0.0,0.0,0.0,0.0,0.0,0.0,0.0,0.0,0.0,0.0,0.0,0.0,0.0,0.0,0.0,0.0,0.0,0.0,0.0,0.0,0.0,0.0,0.0,0.0,0.0,0.0,0.0,0.0,0.0,0.0,0.0,0.0,0.0,0.0,0.0,0.0,0.0,0.0,0.0,0.0,0.0,0.0,0.0,0.0,0.0,0.0,0.0,0.0,0.0,0.0,0.0,0.0,0.0,0.0,0.0,0.0,0.0,0.0,0.0,0.0,0.0,0.0,0.0,0.0,0.0,0.0,0.0,0.0,0.0,0.0,0.0,0.0,0.0,0.0,0.0,0.0,0.0,0.0,0.0,0.0,0.0,0.0,0.0,0.0,0.0,0.0,0.0,0.0,0.0,0.0,0.0,0.0,0.0,0.0,0.0,0.0,0.0,0.0,0.0,0.0,0.0,0.0,0.0,0.0,0.0,0.0,0.0,0.0,0.0,0.0,0.0,0.0,0.0,0.0,0.0,0.0,0.0,0.0,0.0,0.0,0.0,0.0,0.0,0.0,0.0,0.0,0.0,0.0,0.0,0.0,0.0,0.0,0.0,0.0,0.0,0.0,0.0,0.0,0.0,0.0,0.0,0.0,0.0,0.0,0.0,0.0,0.0,0.0,0.0,0.0,0.0,0.0,0.0,0.0,0.0,0.0,0.0,0.0,0.0,0.0,0.0,0.0,0.0,0.0,0.0,0.0,0.0,0.0,0.0,0.0,0.0,0.0,0.0,0.0,0.0,0.0,0.0,0.0,0.0,0.0,0.0,0.0,0.0,0.0,0.0,0.0,0.0,0.0,0.0,0.0,0.0,0.0,0.0,0.0,0.0,0.0,0.0,0.0,0.0,0.0,0.0,0.0,0.0,0.0,0.0,0.0,0.0,0.0,0.0,0.0,0.0,0.0,0.0,0.0,0.0,0.0,0.0,0.0,0.0,0.0,0.0,0.0,0.0,0.0,0.0,0.0,0.0,0.0,0.0,0.0,0.0,0.0,0.0,0.0,0.0,0.0,0.0,0.0,0.0,0.0,0.0,0.0,0.0,0.0,0.0,0.0,0.0,0.0,0.0,0.0,0.0,0.0,0.0,0.0,0.0,0.0,0.0,0.0,0.0,0.0,0.0,0.0,0.0,0.0,0.0,0.0,0.0,0.0,0.0,0.0,0.0,0.0,0.0,0.0,0.0,0.0,0.0,0.0,0.0,0.0,0.0,0.0,0.0,0.0,0.0,0.0,0.0,0.0,0.0,0.0,0.0,0.0,0.0,0.0,0.0,0.0,0.0,0.0,0.0,0.0,0.0,0.0,0.0,0.0,0.0,0.0,0.0,0.0,0.0,0.0,0.0,0.0,0.0,0.0,0.0,0.0,0.0,0.0,0.0,0.0,0.0,0.0,0.0,0.0,0.0,0.0,0.0,0.0,0.0,0.0,0.0,0.0,0.0,0.0,0.0,0.0,0.0,0.0,0.0,0.0,0.0,0.0,0.0,0.0,0.0,0.0,0.0,0.0,0.0,0.0,0.0,0.0,0.0,0.0,0.0,0.0,0.0,0.0,-2.2753,0.0,0.0,0.0,0.0,0.0,0.0,0.0,0.0,0.0,0.0,0.0,0.0,0.0,0.0,0.0,0.0,0.0,0.0,0.0,0.0,0.0,0.0,0.0,0.0,0.0,0.0,0.0,0.0,0.0,0.0,0.0,0.0,0.0,0.0,0.0,0.0,0.0,0.0,-2.1705,-2.2111,-2.2481,-2.2784,-2.1909,-2.1088,-2.032,0.0,0.0,0.0,0.0,0.0,0.0,0.0,0.0,0.0,0.0,0.0,0.0,0.0,0.0,0.0,0.0,0.0,0.0,0.0,0.0,0.0,0.0,0.0,0.0,0.0,0.0,0.0,0.0,0.0,0.0,0.0,0.0,0.0,0.0,0.0,0.0,0.0,0.0,0.0,0.0,0.0,0.0,0.0,0.0,0.0,0.0,0.0,0.0,0.0,0.0,0.0,0.0,0.0,0.0,0.0,0.0,0.0,0.0,0.0,0.0,0.0,0.0,0.0,0.0,0.0,0.0,0.0,0.0,0.0,0.0,0.0,-2.4615,0.0,0.0,0.0,0.0,0.0,0.0,0.0,0.0,0.0,0.0,0.0,0.0,0.0,0.0,0.0,0.0,0.0,0.0,0.0,0.0,0.0,0.0,0.0,0.0,-1.9799,-2.016,-2.1441,-2.2319,0.0,0.0,0.0,0.0,0.0,0.0,0.0,-2.3348,-2.3182,-2.3075,-2.361,-2.4834,-2.6732,-2.6884,-2.6312,-2.5121,-2.312,0.0,0.0,0.0,0.0,0.0,0.0,0.0,0.0,0.0,0.0,0.0,0.0,0.0,0.0,0.0,0.0,0.0,0.0,0.0,0.0,0.0,0.0,0.0,0.0,0.0,0.0,0.0,0.0,0.0,0.0,0.0,0.0,0.0,0.0,0.0,0.0,0.0,0.0,0.0,0.0,0.0,0.0,0.0,0.0,0.0,0.0,0.0,0.0,0.0,0.0,0.0,0.0,0.0,0.0,0.0,0.0,0.0,0.0,0.0,0.0,0.0,0.0,0.0,-3.4062,-3.4931,-3.6055,-3.6208,-3.6734,-3.7352,-3.366,-3.1362,-3.0078,0.0,0.0,0.0,0.0,0.0,0.0,0.0,0.0,0.0,0.0,0.0,0.0,0.0,0.0,0.0,0.0,0.0,0.0,0.0,0.0,0.0,0.0,-2.1398,-2.2078,-2.3597,-2.3922,-2.4386,0.0,0.0,0.0,0.0,0.0,0.0,-2.5284,-2.4588,-2.3816,-2.3015,-2.5859,-2.8883,-3.2019,-3.2763,-3.3422,-3.3633,-2.6887,-2.5106,-2.7002,0.0,0.0,0.0,0.0,0.0,0.0,0.0,0.0,0.0,0.0,0.0,0.0,0.0,0.0,0.0,0.0,0.0,0.0,0.0,0.0,0.0,0.0,0.0,0.0,0.0,0.0,0.0,0.0,0.0,0.0,0.0,0.0,0.0,0.0,0.0,0.0,0.0,0.0,0.0,0.0,0.0,-2.2086,-2.1462,0.0,0.0,0.0,0.0,0.0,0.0,0.0,0.0,0.0,0.0,0.0,0.0,0.0,0.0,-3.4781,-3.8144,-3.953,-3.8916,-4.1874,-4.2637,-4.1405,-4.2167,-4.2984,-4.3739,-4.2419,0.0,-3.2754,-3.0957,0.0,0.0,0.0,0.0,0.0,0.0,0.0,0.0,0.0,0.0,0.0,0.0,0.0,0.0,0.0,0.0,0.0,0.0,0.0,0.0,0.0,-2.2635,-2.3691,-2.4902,-2.678,-2.7842,-2.7788,-2.9013,0.0,0.0,0.0,-2.6949,-2.705,-2.5769,-2.5779,-2.7223,-3.0098,-3.2977,-3.5828,-3.6691,-3.7301,-3.7519,-3.3669,-3.103,-2.9304,-2.6841,0.0,0.0,0.0,0.0,0.0,0.0,0.0,0.0,0.0,0.0,0.0,0.0,0.0,0.0,0.0,0.0,0.0,0.0,0.0,0.0,0.0,0.0,0.0,0.0,0.0,0.0,0.0,0.0,0.0,0.0,0.0,0.0,0.0,0.0,0.0,0.0,0.0,0.0,0.0,-2.2551,-2.4291,-2.3981,-2.5117,-2.5212,0.0,0.0,0.0,0.0,0.0,0.0,0.0,0.0,0.0,-3.5268,-3.7463,-3.9642,-4.1777,-4.4277,-4.5586,-4.5701,-4.7207,-4.7519,-4.6797,-4.7187,-4.7558,-4.7869,-4.7006,-4.4919,-4.1797,-3.7656,-3.4628,-3.251,0.0,0.0,0.0,0.0,0.0,-3.2162,0.0,0.0,0.0,0.0,0.0,0.0,0.0,0.0,0.0,0.0,0.0,0.0,-2.3001,-2.458,-2.6172,-2.7649,-2.9905,-3.1177,-3.1047,-3.1582,-3.1487,-3.052,-2.882,-2.8182,-2.8824,-2.7676,-2.8559,-3.1652,-3.4096,-3.6632,-3.9164,-4.0027,-4.0633,-4.0873,-3.9988,-3.7076,-3.2658,-3.0075,-2.8029,-2.6384,0.0,0.0,0.0,0.0,0.0,0.0,0.0,0.0,0.0,0.0,0.0,0.0,0.0,0.0,0.0,0.0,0.0,0.0,0.0,0.0,0.0,0.0,0.0,0.0,0.0,0.0,0.0,0.0,0.0,0.0,0.0,0.0,0.0,0.0,0.0,0.0,0.0,-2.5188,-2.7176,-2.6426,-2.9139,-2.9922,0.0,0.0,0.0,0.0,0.0,0.0,-3.6181,-3.7572,-3.9697,-4.2741,-4.4897,-4.6737,-4.8262,-4.9785,-5.0742,-5.1172,-5.1144,-5.1113,-5.1113,-5.1086,-5.1079,-5.102,-5.0142,-4.9768,-4.9322,-4.3572,-3.9922,-3.793,-3.7471,-3.6905,-3.6406,-3.7007,-3.7364,-3.7834,0.0,0.0,0.0,0.0,0.0,0.0,0.0,0.0,0.0,0.0,0.0,-2.3043,-2.6282,-2.8087,-3.0378,-3.366,-3.3348,-3.3687,-3.5368,-3.3297,-3.2322,-3.3076,-3.1496,-3.0599,-3.0563,-3.0863,-3.2254,-3.4779,-3.6936,-3.9467,-4.2293,-4.317,-4.4172,-4.524,-4.4374,-4.2082,-3.8537,-3.3666,-3.1979,-3.2231,-2.8288,0.0,0.0,0.0,0.0,0.0,0.0,0.0,0.0,0.0,0.0,0.0,0.0,0.0,0.0,0.0,0.0,0.0,0.0,0.0,0.0,0.0,0.0,0.0,0.0,0.0,0.0,0.0,0.0,0.0,0.0,0.0,0.0,0.0,0.0,0.0,0.0,0.0,0.0,-2.8431,-3.4619,0.0,0.0,0.0,0.0,-3.7856,-3.8861,-4.0893,-4.4226,-4.4493,-4.648,-5.0683,-5.1758,-5.2695,-5.3594,-5.4512,-5.457,-5.3808,-5.3668,-5.3608,-5.3609,-5.3482,-5.3429,-5.337,-5.2504,-5.2134,-5.1746,-4.6797,-4.418,-4.3144,-4.1484,-4.0817,-4.0779,-4.083,-4.1363,-4.2091,0.0,0.0,0.0,0.0,0.0,0.0,0.0,0.0,-2.065,-2.0975,-2.3364,-2.5907,-2.8252,-3.0911,-3.368,-3.6532,-3.6966,-3.7146,-3.7258,-3.6474,-3.5394,-3.4082,-3.2986,-3.2357,-3.226,-3.3186,-3.5172,-3.821,-4.0648,-4.287,-4.4944,-4.5533,-4.6014,-4.6394,-4.5528,-4.4162,-4.2258,-3.8301,-3.556,-3.3572,-3.0453,-2.8218,0.0,0.0,0.0,0.0,0.0,0.0,0.0,0.0,0.0,0.0,0.0,0.0,0.0,0.0,0.0,0.0,0.0,0.0,0.0,0.0,0.0,0.0,0.0,0.0,0.0,0.0,0.0,0.0,0.0,0.0,0.0,0.0,0.0,0.0,0.0,0.0,0.0,-3.6571,-4.1803,0.0,-4.1167,-4.2226,-4.3396,-4.4114,-4.6033,-4.8138,-5.0357,-5.1657,-5.3261,-5.5332,-5.6367,-5.7031,-5.7344,-5.7656,-5.7363,-5.6504,-5.6364,-5.5722,-5.4624,-5.4496,-5.4452,-5.4394,-5.3527,-5.3451,-5.3795,-5.1489,-4.9679,-4.8334,-4.771,-4.7462,-4.7459,-4.7475,-4.7319,-4.7103,0.0,0.0,0.0,0.0,0.0,0.0,0.0,0.0,-2.1084,-2.136,-2.4554,-2.768,-2.9964,-3.3392,-3.6578,-3.9141,-3.9311,-3.9321,-3.9372,-3.8092,-3.6712,-3.534,-3.442,-3.3877,-3.3742,-3.5471,-3.7795,-4.0656,-4.3109,-4.4986,-4.632,-4.6854,-4.6973,-4.6666,-4.6242,-4.5493,-4.4441,-4.2629,-3.9591,-3.5784,-3.3527,-3.199,-3.0699,0.0,0.0,0.0,0.0,0.0,0.0,0.0,0.0,0.0,0.0,0.0,0.0,0.0,0.0,0.0,0.0,0.0,0.0,0.0,0.0,0.0,0.0,0.0,0.0,0.0,0.0,0.0,0.0,0.0,0.0,0.0,0.0,0.0,0.0,0.0,-4.2636,-4.2781,-4.7825,-5.031,-4.7831,-4.9449,-5.08,-5.1192,-5.3089,-5.478,-5.6036,-5.6834,-5.7757,-5.8886,-5.9355,-5.9609,-5.9609,-5.9609,-5.9149,-5.8223,-5.7795,-5.6966,-5.5799,-5.5355,-5.5162,-5.5143,-5.4874,-5.4912,-5.5143,-5.4874,-5.3898,-5.254,-5.2075,-5.1867,-5.1867,-5.1867,-5.1319,-5.0552,0.0,0.0,0.0,0.0,0.0,0.0,0.0,-2.1379,-2.2202,-2.2947,-2.5294,-2.8169,-3.1507,-3.5556,-3.905,-4.1607,-4.0242,-3.9976,-4.1721,-3.795,-3.6065,-3.7036,-3.5886,-3.5211,-3.5236,-3.7845,-4.0188,-4.2172,-4.4335,-4.5754,-4.6374,-4.7236,-4.7178,-4.6358,-4.6724,-4.6244,-4.5192,-4.6417,-4.4068,-3.9392,-3.7648,-3.6922,-3.644,0.0,0.0,0.0,0.0,0.0,0.0,0.0,0.0,0.0,0.0,0.0,0.0,0.0,0.0,0.0,0.0,0.0,0.0,0.0,0.0,0.0,0.0,0.0,0.0,0.0,0.0,0.0,0.0,0.0,0.0,0.0,0.0,0.0,-3.6484,-4.2124,-4.6479,-4.6679,-5.2589,-5.5694,-5.3299,-5.6874,-5.9267,-5.9077,-5.9845,-6.0608,-6.1247,-5.9873,-5.9847,-6.1521,-6.0898,-6.0508,-6.0488,-6.0488,-5.9954,-5.8927,-5.7955,-5.7412,-5.7203,-5.6222,-5.578,-5.5818,-5.6665,-5.6549,-5.5838,-5.6684,-5.653,-5.5607,-5.4218,-5.3659,-5.3659,-5.3659,-5.3103,-5.2221,0.0,0.0,0.0,0.0,0.0,0.0,0.0,-2.2179,-2.2994,-2.3835,-2.7015,-3.0325,-3.3291,-3.6408,-3.9393,-4.2145,-3.9697,-3.8739,-4.0475,-3.8047,-3.7246,-3.881,-3.6651,-3.7026,-4.0444,-4.1197,-4.2915,-4.5628,-4.7162,-4.7858,-4.7768,-4.8531,-4.8165,-4.6814,-4.719,-4.6686,-4.5672,-4.6847,-4.6538,-4.4973,-4.1728,-3.9716,-3.8292,0.0,0.0,0.0,0.0,0.0,0.0,0.0,0.0,0.0,0.0,0.0,0.0,0.0,0.0,0.0,0.0,0.0,0.0,0.0,0.0,0.0,0.0,0.0,0.0,0.0,0.0,0.0,0.0,0.0,0.0,0.0,0.0,-4.2978,-4.2441,-4.884,-5.4062,-5.5345,-5.9341,-6.1748,-6.117,-6.2109,-6.2662,-6.2482,-6.2813,-6.2988,-6.294,-6.2771,-6.289,-6.3372,-6.3279,-6.293,-6.2285,-6.2285,-6.1456,-5.9835,-5.9472,-5.8873,-5.8146,-5.7761,-5.7588,-5.7607,-5.7838,-5.7819,-5.7607,-5.7838,-5.7434,-5.653,-5.553,-5.5105,-5.5105,-5.5105,-5.4201,-5.2837,0.0,0.0,0.0,0.0,0.0,0.0,0.0,-2.2197,-2.2897,-2.3994,-2.7325,-3.0625,-3.3294,-3.6264,-3.8917,-4.1034,-3.9388,-3.8695,-3.9739,-3.8864,-3.8373,-3.8535,-3.8228,-3.9411,-4.2297,-4.3218,-4.4859,-4.7252,-4.8201,-4.8593,-4.8522,-4.9675,-4.9258,-4.7569,-4.8452,-4.7999,-4.6626,-4.7793,-4.8097,-4.7561,-4.5322,-4.3869,-4.2641,-3.8903,-3.8015,-3.8334,-3.4942,-3.4438,-3.4966,-3.2184,0.0,0.0,0.0,0.0,0.0,0.0,0.0,0.0,0.0,0.0,0.0,0.0,0.0,0.0,0.0,0.0,0.0,0.0,0.0,0.0,0.0,0.0,0.0,0.0,-4.4592,-4.9742,-5.1435,-5.5624,-5.9282,-6.131,-6.4007,-6.5725,-6.5804,-6.6126,-6.6244,-6.6076,-6.5489,-6.5057,-6.4793,-6.4337,-6.407,-6.3989,-6.4128,-6.3934,-6.333,-6.2964,-6.2207,-6.1069,-6.03,-5.9569,-5.8915,-5.8492,-5.83,0.0,-5.8665,-5.8607,-5.8338,-5.8665,-5.8319,0.0,0.0,0.0,0.0,0.0,-5.4587,-5.3626,0.0,0.0,0.0,0.0,0.0,0.0,0.0,-2.1944,-2.2445,-2.3863,-2.6781,-2.9602,-3.1889,-3.4899,-3.7296,-3.8661,-3.8696,-3.8839,-3.9292,-3.9564,-3.9128,-3.7872,-4.0258,-4.1994,-4.2699,-4.4758,-4.6562,-4.8018,-4.8574,-4.8934,-4.9115,-5.0656,-5.0311,-4.8503,-5.0065,-4.9674,-4.7899,-4.9121,-4.9183,-4.8472,-4.8414,-4.8279,-4.7681,-4.3794,-4.2855,-4.3197,-4.0029,-3.8578,-3.7989,-3.6829,0.0,0.0,0.0,0.0,0.0,0.0,0.0,0.0,0.0,0.0,0.0,0.0,0.0,0.0,0.0,0.0,0.0,0.0,0.0,0.0,0.0,0.0,0.0,0.0,-5.0947,-5.6792,-6.0996,-6.1918,-6.2979,-6.5134,-6.692,-6.7996,-6.8011,-6.8797,-6.9269,-6.9147,-6.772,-6.6803,-6.6659,0.0,0.0,0.0,0.0,-6.4243,-6.3954,-6.3171,-6.2635,-6.2281,-6.0804,-5.9938,-5.9627,-5.8915,-5.8588,-5.8627,-5.9338,-5.9242,-5.8646,-5.9358,-5.9108,-5.8204,-5.7338,-5.6472,-5.5607,-5.4895,-5.4511,0.0,0.0,0.0,0.0,0.0,0.0,0.0,0.0,-2.277,-2.3282,-2.4753,-2.6503,-2.8061,-2.9235,-3.0711,-3.2686,-3.5344,-3.4946,-3.578,-3.8722,-3.7547,-3.8336,-4.194,-4.1996,-4.3525,-4.6929,-4.842,-4.9651,-5.0593,-5.1698,-5.1775,-5.0841,-5.1475,-5.0913,-4.94,-5.0634,-5.0462,-4.9303,-5.043,-5.0837,-5.065,-5.0334,-4.9356,-4.7855,-4.5717,-4.5428,-4.5928,-4.3847,-4.4328,-4.5503,-4.2671,-4.2517,-4.2984,-4.006,-3.6933,0.0,0.0,0.0,0.0,0.0,0.0,0.0,0.0,0.0,0.0,0.0,0.0,0.0,0.0,0.0,0.0,0.0,0.0,0.0,-4.8908,-5.4265,-5.935,-6.338,-6.5282,-6.6461,-6.7056,-6.7911,-6.8529,-6.8691,-6.8749,-6.8746,-6.8719,-6.8546,-6.8377,-6.8169,-6.7383,0.0,-6.6873,-6.6276,-6.5601,-6.4871,-6.4679,-6.3823,-6.23,0.0,0.0,-6.0531,-6.0396,-6.0319,-6.0319,-6.0473,-6.0454,-6.0319,-6.0473,-5.9665,-5.8204,-5.7338,-5.6472,-5.5684,-5.553,-5.4607,-5.3433,0.0,0.0,0.0,0.0,0.0,0.0,0.0,-2.2888,-2.351,-2.5363,-2.6883,-2.8296,-2.9564,-3.0932,-3.2451,-3.4149,-3.4244,-3.5438,-3.8357,-3.829,-3.9539,-4.2659,-4.3558,-4.5511,-4.8834,-4.9909,-5.1047,-5.2238,-5.2702,-5.2341,-5.1318,-5.1939,-5.162,-5.0499,-5.172,-5.192,-5.1438,-5.202,-5.2238,-5.2165,-5.1124,-5.0414,-4.9817,-4.8144,-4.749,-4.7336,-4.6067,-4.6682,-4.7721,-4.525,-4.5519,-4.6482,-4.41,-4.1558,-3.9219,0.0,0.0,0.0,0.0,0.0,0.0,0.0,0.0,0.0,0.0,0.0,0.0,0.0,0.0,-4.0839,-4.3395,0.0,-5.1024,-5.5094,-5.9127,-6.2855,-6.6045,-6.7679,-6.8583,-6.8633,-6.9775,-7.0587,-7.0696,-7.1057,-7.1284,-7.131,-7.0622,-7.0152,-7.0068,-6.8914,-6.82,-6.8104,-6.7321,-6.6628,-6.6109,-6.5282,-6.4166,-6.2801,-6.2397,-6.1704,-6.08,-6.08,-6.08,-6.08,-6.08,-6.08,-6.08,-6.08,-6.005,-5.8819,-5.7973,-5.6838,-5.5703,-5.5703,-5.5164,-5.4453,0.0,0.0,0.0,0.0,0.0,0.0,0.0,-2.2772,-2.3426,-2.5475,-2.6984,-2.835,-2.9626,-3.1124,-3.2447,-3.3441,-3.407,-3.5646,-3.8531,-3.9429,-4.0778,-4.2926,-4.4856,-4.7207,-5.0014,-5.0713,-5.1825,-5.3453,-5.3273,-5.2752,-5.195,-5.2638,-5.26,-5.1969,-5.2982,-5.3392,-5.333,-5.3413,-5.3392,-5.3196,-5.1759,-5.1471,-5.176,-5.0394,-4.926,-4.8279,-4.7625,-4.749,-4.7451,-4.6432,-4.6894,-4.772,-4.6658,-4.5287,-4.375,-4.2139,-3.989,0.0,0.0,0.0,0.0,0.0,0.0,0.0,0.0,-3.7644,-3.9387,-4.2027,-4.4581,-4.74,-5.0812,-5.3619,-5.6807,-6.1097,-6.3757,-6.6038,-6.834,-6.9263,-6.9763,-6.9917,-7.1418,-7.2437,-7.2426,-7.3331,-7.3899,-7.3899,-7.2476,-7.1657,-7.1657,-7.0006,-6.8987,-6.8814,-6.7859,-6.7263,-6.709,-6.5609,-6.4339,-6.3301,-6.2647,-6.1781,-6.08,-6.08,-6.08,-6.08,-6.08,-6.08,-6.08,-6.08,-6.0185,-5.9204,-5.855,-5.7223,-5.5703,-5.5703,-5.5588,-5.5472,0.0,0.0,0.0,0.0,0.0,0.0,0.0,0.0,-2.3231,-2.4672,-2.5668,-2.6233,-2.6096,-2.6888,-2.8716,-3.1914,-3.2292,-3.4573,-3.9815,-3.8691,-4.011,-4.5259,-4.5755,-4.7726,-5.1647,-5.1827,-5.2688,-5.4357,-5.5028,-5.4929,-5.4141,-5.4237,-5.4237,-5.4141,-5.4278,-5.4108,-5.3748,-5.4191,-5.4108,-5.3697,-5.3135,-5.251,-5.1895,-5.1702,-5.0644,-4.924,-4.9144,-4.7721,-4.6067,-4.7375,-4.7547,-4.7316,-4.7991,-4.7577,-4.6542,-4.491,-4.2571,-4.0096,-3.8303,-3.6878,-3.6533,-3.9217,-3.9381,-4.0607,0.0,-4.8943,-5.0019,-5.3224,-5.5899,-5.7824,-5.8284,-6.0481,-6.2906,-6.4974,-6.6186,-6.7475,-6.9302,-6.9648,-6.9975,-7.0687,-7.1629,-7.2225,-7.2225,-7.3033,-7.3572,-7.3572,-7.2668,-7.211,-7.211,-7.0533,-6.961,-6.959,-6.7994,-6.7109,-6.709,-6.6205,-6.4936,-6.3301,-6.3224,-6.2339,-6.08,-6.08,-6.08,-6.08,-6.08,-6.08,-6.08,-6.08,-5.9877,-5.8434,-5.8338,-5.7223,-5.5703,-5.5703,-5.5241,-5.4626,0.0,0.0,0.0,0.0,0.0,0.0,0.0,0.0,0.0,-2.4974,-2.5447,-2.5987,-2.687,-2.8192,-2.9861,-3.1873,-3.1939,-3.3906,-3.8635,-3.8032,-3.9992,-4.5645,-4.5902,-4.7698,-5.157,-5.1895,-5.294,-5.4834,-5.5178,-5.5044,-5.4491,-5.3989,-5.4014,-5.4491,-5.4219,-5.4398,-5.4929,-5.5122,-5.51,-5.4852,-5.4218,-5.3433,-5.2549,-5.1568,-4.9529,-4.7335,-4.8384,-4.7761,0.0,-4.668,-4.6893,-4.7121,-4.7558,-4.7133,-4.627,-4.5176,-4.3378,-4.161,-4.0928,-4.0167,-4.0254,-4.3067,-4.4258,-4.5915,-5.043,-5.226,-5.4092,-5.7879,-5.9915,-6.1473,-6.2954,-6.4109,-6.5378,-6.709,-6.8052,-6.9033,-7.0225,-6.9571,-6.8879,-6.8706,-6.9013,-7.0014,-7.2014,-7.3418,-7.4014,-7.3553,-7.3168,-7.2745,-7.2225,-7.1052,-7.0398,-7.0398,-6.8744,-6.7859,-6.7859,-6.6551,-6.5282,-6.4051,-6.3551,-6.2685,-6.1531,-6.1031,-6.08,-6.08,-6.08,-6.08,-6.08,-6.08,-6.0089,-5.8954,-5.8492,-5.753,-5.6395,-5.5876,-5.5491,-5.5203,0.0,0.0,0.0,0.0,0.0,0.0,0.0,0.0,0.0,0.0,-2.5278,-2.607,-2.7751,-2.9145,-3.0424,-3.1568,-3.1533,-3.3008,-3.6604,-3.7044,-3.9399,-4.436,-4.5204,-4.7296,-5.0999,-5.1579,-5.2847,-5.4933,-5.4933,-5.4775,-5.447,-5.3869,-5.4012,-5.4795,-5.4358,-5.4728,-5.57,-5.5695,-5.564,-5.5477,-5.4797,-5.3837,-5.2626,-5.0702,-4.8182,-4.5834,-4.7147,-4.6437,-4.4877,-4.4809,-4.5169,-4.5742,-4.6016,-4.5716,-4.517,-4.4637,-4.3128,-4.1712,-4.1968,-4.2463,-4.3549,-4.6324,-4.8581,-5.0759,-5.3167,-5.5268,-5.7636,-6.1131,-6.2531,-6.3705,-6.5551,-6.607,-6.6705,-6.8167,-6.9129,-6.9898,-7.0494,-6.9109,-6.7725,-6.6859,-6.634,-6.7109,-6.984,-7.2052,-7.3264,-7.3149,-7.2918,-7.261,-7.2206,-7.136,-7.0898,-7.0898,-6.9513,-6.8648,-6.8398,-6.6955,-6.5686,-6.4589,-6.3724,-6.2878,-6.207,-6.1204,-6.08,-6.08,-6.08,-6.08,-6.08,-6.08,-6.0281,-5.9415,-5.8607,-5.7761,-5.6876,-5.6011,-5.5703,-5.5703,0.0,0.0,0.0,0.0,0.0,0.0,0.0,0.0,0.0,0.0,0.0,0.0,0.0,-2.8019,-2.8829,-3.0417,-3.0587,-3.164,-3.3979,-3.5524,-3.7812,-4.1111,-4.3497,-4.6465,-5.016,-5.0999,-5.2435,-5.4535,-5.4535,-5.4516,-5.4497,-5.4465,-5.488,-5.5648,-5.5228,-5.5313,-5.5681,-5.57,-5.547,-5.5084,-5.4671,-5.3472,-5.1664,-4.9144,-4.7183,-4.58,-4.5858,-4.3166,-3.9886,-4.1626,-4.2274,-4.2492,-4.3341,-4.3634,-4.3664,-4.3636,-4.1821,-3.9974,-4.0889,-4.2841,-4.5425,-4.8759,-5.2031,-5.5055,-5.7527,-6.005,-6.2358,-6.4128,-6.5186,-6.5801,-6.5878,-6.6532,-6.7359,-6.8263,-6.9129,-6.9706,-6.9725,-6.8244,-6.684,-6.6032,-6.4436,-6.3801,0.0,-6.7878,-7.0514,-7.211,-7.1456,-7.1341,-7.2149,-7.136,-7.0898,-7.0898,-7.009,-6.9244,-6.8417,-6.7513,-6.6224,-6.4589,-6.3724,-6.2878,-6.207,-6.1204,-6.08,-6.08,-6.08,-6.08,-6.08,-6.08,-6.0281,-5.9415,-5.8607,-5.7761,-5.6876,-5.6011,-5.5703,-5.5703,0.0,0.0,0.0,0.0,0.0,0.0,0.0,0.0,0.0,0.0,0.0,0.0,0.0,0.0,0.0,0.0,-2.8473,-2.982,-3.2189,-3.3768,-3.6111,-3.9368,-4.1827,-4.4173,-4.6484,-4.8163,-4.9888,-5.1668,-5.2192,-5.285,-5.3635,-5.3086,-5.3569,-5.4861,-5.4148,-5.4391,-5.5323,-5.5581,-5.5621,-5.5339,-5.3507,-5.2433,-5.151,-4.7893,-4.5144,-4.3165,0.0,-4.1703,-4.0466,-4.0507,-4.014,-3.9714,-3.9915,-3.9618,-3.9131,-3.863,-3.9473,-4.0855,-4.2237,-4.575,-4.9794,-5.3008,-5.5917,-5.8611,-6.1065,-6.2281,-6.3224,-6.4359,-6.3103,-6.1784,-6.1784,-6.2439,-6.3268,-6.4155,-6.6833,-6.884,-6.884,-6.834,-6.7013,-6.4474,-6.3666,0.0,0.0,0.0,0.0,-6.9552,-6.9937,-7.0456,-7.1283,-7.1052,-7.0898,-7.0898,-7.0129,-6.9456,-6.8936,-6.7705,-6.6551,-6.5436,-6.3622,-6.2219,-6.1223,-6.0935,-6.08,-6.08,-6.08,-6.08,-6.08,-6.08,-5.9973,-5.8684,-5.8415,-5.7415,-5.6088,-5.5799,-5.5703,-5.5703,0.0,0.0,0.0,0.0,0.0,0.0,0.0,0.0,0.0,0.0,0.0,0.0,0.0,0.0,0.0,0.0,0.0,-2.8261,-3.0102,-3.1697,-3.3768,-3.6442,-3.8897,-4.1084,-4.3048,-4.4406,-4.6033,-4.7965,-4.8438,-4.9224,-5.0303,-5.0287,-5.099,-5.227,-5.1983,-5.2483,-5.3536,-5.3798,-5.376,-5.3355,-5.1413,-5.0259,-4.9336,-4.5428,-4.2955,0.0,-3.9743,-3.9356,-3.9552,-3.8993,-3.8423,-3.7918,-3.7839,-3.7665,-3.7346,-3.6526,-3.8941,-4.2332,-4.4579,-4.8722,-5.3121,-5.6082,-5.8707,-6.0945,-6.2531,-6.2878,-6.2858,-6.2801,-6.0641,-5.8586,-5.7988,-5.8297,-5.8934,-5.9843,-6.2461,-6.4894,-6.6434,-6.5876,-6.5023,-6.4301,-6.3435,-6.2685,0.0,0.0,0.0,-6.7378,-6.859,-6.9725,-7.0841,-7.0898,-7.1033,-7.1341,-7.0552,-6.9879,-6.936,-6.8167,-6.6686,-6.4955,-6.3488,-6.2084,-6.08,-6.08,-6.08,-6.08,-6.08,-6.08,-6.08,-6.08,-5.9973,-5.8704,-5.8415,-5.7434,-5.6126,-5.5799,-5.5703,-5.5703,0.0,0.0,0.0,0.0,0.0,0.0,0.0,0.0,0.0,0.0,0.0,0.0,0.0,0.0,0.0,0.0,0.0,0.0,-2.7727,-2.9337,-3.0923,-3.2385,-3.486,-3.7349,-3.9753,-3.996,-4.1215,-4.3688,-4.3545,-4.3962,-4.4879,-4.6192,-4.7224,-4.807,-4.8759,-4.9589,-5.0411,-5.0418,-5.001,-4.9317,-4.8375,-4.7069,-4.5337,-4.1914,-4.0667,-4.0292,-3.6934,-3.6317,-3.706,-3.7112,-3.715,-3.7168,-3.7206,-3.7819,-3.8372,-3.7609,-4.041,-4.4517,-4.7864,-5.1828,-5.5576,-5.8066,-6.045,-6.2127,-6.205,-6.1954,-6.1396,-5.9608,-5.7906,-5.6194,-5.4477,-5.4323,-5.4785,-5.578,-5.681,-5.8934,-6.31,-6.1711,-6.1687,-6.5576,-6.3878,-6.3031,-6.4589,-6.3993,0.0,-6.584,0.0,-6.9109,-7.086,-7.0918,-7.1283,-7.211,-7.1321,-7.0475,-6.961,-6.8667,-6.6571,-6.3339,-6.3243,-6.2339,-6.08,-6.08,-6.08,-6.08,-6.08,-6.08,-6.08,-6.08,-6.0281,-5.9415,-5.8607,-5.7761,-5.6876,-5.6011,-5.5703,-5.5703,0.0,0.0,0.0,0.0,0.0,0.0,0.0,0.0,0.0,0.0,0.0,0.0,0.0,0.0,0.0,0.0,0.0,0.0,-2.6088,-2.7638,-2.8703,-2.9108,-3.2084,-3.4028,-3.4681,-3.6554,-3.8136,-3.9481,-4.0095,-4.0878,-4.1745,-4.2165,-4.3119,-4.4468,-4.3776,-4.4645,-4.6581,-4.6285,-4.6385,-4.6598,-4.4517,-4.3408,-4.2627,-3.931,-3.7666,-3.6936,-3.551,-3.5091,-3.5365,-3.6021,-3.7031,-3.8103,-3.864,-3.9412,-4.0442,-4.2106,-4.5636,-4.9705,-5.302,-5.7061,-6.0473,-6.105,-6.2108,-6.2666,-6.1416,-6.0165,-5.863,-5.6326,-5.3588,-5.0867,-4.8546,-5.0689,-5.3307,-5.4793,-5.9338,-6.3503,-6.5851,-6.7256,-6.7962,-6.7782,-6.7186,-6.6705,-6.6474,-6.6263,0.0,0.0,-6.7186,-6.8725,-7.1706,-7.1245,-7.1014,-7.1217,-7.1033,-7.0014,-6.8141,-6.6218,-6.4839,-6.396,-6.2238,-6.12,-6.08,-6.08,-6.08,-6.08,-6.08,-6.08,-6.08,-6.08,-6.0281,-5.9415,-5.8607,-5.7761,-5.6876,-5.6011,-5.5703,-5.5703,0.0,0.0,0.0,0.0,0.0,0.0,0.0,0.0,0.0,0.0,0.0,0.0,0.0,0.0,0.0,0.0,0.0,0.0,0.0,-2.6346,-2.699,-2.7359,-2.9175,-3.0368,-3.0765,-3.1879,-3.3112,-3.4386,-3.5233,-3.5938,-3.6459,-3.7872,-3.8859,-3.9444,-3.9642,-4.0547,-4.1903,-4.1828,-4.1869,0.0,0.0,-3.9691,-3.913,-3.6889,-3.5744,-3.5204,-3.4413,-3.4778,-3.5947,-3.7918,-3.9157,-4.0017,-4.0855,-4.2449,-4.4604,-4.7503,-5.0868,-5.4265,-5.7193,-6.0304,-6.2642,-6.2204,-6.2435,-6.2127,-5.9711,-5.7884,-5.5747,-5.2491,-4.9486,-4.7016,-4.5583,-4.7254,-4.9629,-5.2148,-5.6232,-6.0487,-6.4397,-6.6189,-6.7551,-6.8821,-6.9283,-6.9302,-6.8821,-6.9109,-6.934,0.0,-6.8648,-6.9225,-7.1514,-7.1168,-7.1091,-7.1448,-7.111,-6.9956,-6.7968,-6.6301,-6.4916,-6.3782,-6.2512,-6.1507,-6.08,-6.08,-6.08,-6.08,0.0,-6.08,-6.08,-6.08,-6.0281,-5.9454,-5.9011,-5.8069,-5.6934,-5.6434,-5.603,-5.5703,0.0,0.0,0.0,0.0,0.0,0.0,0.0,0.0,0.0,0.0,0.0,0.0,0.0,0.0,0.0,0.0,0.0,0.0,0.0,0.0,-2.5611,-2.6221,-2.641,-2.6878,-2.768,-2.7266,-2.7888,-2.9583,-3.0253,-3.0608,-3.0741,-3.36,-3.4624,-3.4146,-3.5898,-3.6839,-3.7126,-3.7323,-3.7094,-3.6599,-3.6616,-3.6153,-3.5391,0.0,-3.4289,-3.4106,-3.3468,-3.4698,-3.7172,-4.0653,-4.2157,-4.2797,-4.4056,-4.6592,-4.9785,-5.3146,-5.5769,-5.8156,-6.0766,-6.2531,-6.3455,-6.2627,-6.2089,-6.0881,-5.7543,-5.5114,-5.2453,-4.8469,-4.5747,-4.406,-4.3937,-4.4349,-4.5882,-4.9517,-5.1699,-5.521,-6.1769,-6.2888,-6.4733,-6.9328,-7.0571,-7.1129,-7.1225,-7.1822,-7.2187,-7.2187,-7.0744,-7.0206,-7.1033,-7.0956,-7.1206,-7.1841,-7.1014,-6.984,-6.8321,-6.7282,-6.557,-6.3205,-6.3166,-6.232,-6.08,-6.08,-6.08,-6.08,0.0,0.0,-6.08,-6.08,-6.0339,-5.9665,-5.955,-5.855,-5.7146,-5.703,-5.6434,-5.5703,0.0,0.0,0.0,0.0,0.0,0.0,0.0,0.0,0.0,0.0,-2.1563,-2.2417,0.0,0.0,0.0,0.0,0.0,0.0,0.0,0.0,0.0,-2.3821,-2.4503,-2.4964,-2.5145,-2.5841,-2.6774,-2.7922,-2.816,-2.8326,-2.8472,-2.9798,-3.077,-3.1398,-3.174,-3.2725,-3.4095,-3.3437,-3.3497,-3.4038,-3.405,-3.3529,-3.2762,-3.2606,0.0,0.0,-3.2124,-3.34,-3.5466,-3.9557,-4.3231,-4.6612,-4.9508,-5.1799,-5.409,-5.7437,-5.9246,-6.0862,-6.4128,-6.5224,-6.5243,-6.4378,-6.2031,-5.9092,-5.5788,-5.151,-4.7463,-4.4733,-4.2673,-4.1183,-4.051,-4.3266,-4.6994,-5.1051,-5.4843,-5.916,-6.4504,-6.6442,-6.8155,-7.0417,-7.1456,-7.2264,-7.2995,-7.2533,0.0,0.0,0.0,-7.1071,-7.1918,-7.1283,-7.0667,-7.0148,-6.9302,-6.8475,-6.7751,-6.5936,-6.4243,-6.2642,-6.2416,-6.1781,-6.08,-6.08,-6.08,-6.08,0.0,0.0,-6.08,-6.08,-6.0704,-6.0492,-5.9781,-5.8915,-5.7992,-5.7261,-5.6434,-5.5703,0.0,0.0,0.0,0.0,0.0,0.0,0.0,-2.0814,-2.1244,-2.0776,-2.1669,-2.2193,-2.1714,-2.2722,-2.3353,0.0,0.0,0.0,0.0,0.0,0.0,0.0,-2.298,-2.3403,-2.3878,-2.4417,-2.5171,-2.6143,0.0,-2.6857,-2.6602,-2.8434,-2.9063,-2.8735,-3.0088,-3.0939,-3.1367,-3.1414,-3.1659,-3.2043,-3.2053,-3.1816,-3.1477,0.0,0.0,0.0,-3.1067,-3.2377,-3.4303,-3.809,-4.2435,-4.7005,-5.1241,-5.4068,-5.6376,-5.9319,-6.0781,-6.2012,-6.4532,-6.5551,-6.557,-6.4262,-6.1377,-5.7901,-5.4149,-4.9326,-4.4963,-4.2492,-4.0273,-3.893,-3.9414,-4.1512,-4.4581,-4.8813,-5.1524,-5.5325,-6.1713,-6.3671,-6.5724,-6.9186,-7.1129,-7.236,-7.2783,-7.286,-7.2687,-7.2225,0.0,-7.1379,-7.0918,-7.0071,-6.9417,-6.9052,-6.8186,-6.7398,-6.6705,-6.5301,-6.382,-6.23,-6.2166,-6.1627,-6.08,-6.08,-6.08,-6.08,-6.08,0.0,-6.08,-6.08,-6.08,-6.0762,-6.0339,-5.9665,-5.8819,-5.7992,-5.7107,-5.6299,0.0,0.0,0.0,0.0,0.0,0.0,0.0,-2.0819,-2.1481,-2.1369,-2.2229,-2.2481,-2.1455,-2.2886,-2.3637,0.0,0.0,0.0,0.0,0.0,0.0,0.0,0.0,0.0,-2.2778,0.0,0.0,-2.439,-2.5387,0.0,0.0,0.0,0.0,0.0,-2.9343,-3.0083,-2.9554,-3.042,-3.0807,0.0,0.0,-3.0838,0.0,0.0,0.0,0.0,0.0,-3.1183,-3.3035,-3.6207,-4.0236,-4.4739,-4.9279,-5.3105,-5.6338,-5.8511,-6.0031,-6.1512,-6.3935,-6.4955,-6.5013,-6.3647,-6.0354,-5.6436,-5.2466,-4.748,-4.3018,-4.0711,-3.836,-3.7157,-3.8663,-3.9765,-4.1835,-4.6139,-4.7619,-5.085,-5.8291,-6.0192,-6.2632,-6.7532,-7.036,-7.1995,-7.2168,-7.2822,0.0,-7.2245,0.0,0.0,-6.9763,-6.8879,-6.8321,-6.8129,-6.7455,-6.6609,-6.5628,-6.4936,-6.3762,-6.2089,-6.2089,-6.1627,-6.08,-6.08,-6.08,-6.08,-6.08,0.0,0.0,-6.08,-6.08,-6.08,-6.08,-6.0262,-5.9396,-5.8607,-5.7877,-5.7126,0.0,0.0,0.0,0.0,0.0,0.0,0.0,-2.0512,-2.1567,-2.1485,-2.2978,-2.3638,-2.2569,-2.1796,-2.1628,0.0,0.0,0.0,0.0,0.0,0.0,0.0,0.0,0.0,0.0,0.0,0.0,-2.2722,-2.3667,0.0,0.0,0.0,0.0,0.0,0.0,-2.9571,-2.9561,-3.0431,0.0,0.0,0.0,0.0,0.0,0.0,0.0,0.0,0.0,-2.9369,-3.1139,-3.3708,-3.6367,-3.9077,-4.1797,-4.7127,-5.2544,-5.3526,-5.5506,-5.8427,-6.3276,-6.4089,-6.3488,-6.3339,-5.9042,-5.397,-5.0595,-4.5229,-4.048,-3.8794,-3.6991,-3.6018,-3.6965,-3.8481,-4.0989,-4.524,-4.7347,-5.0809,-5.7482,-5.9832,-6.2471,-6.6731,-6.9475,-7.1321,-7.211,-7.2264,-7.2283,0.0,0.0,0.0,0.0,-6.8879,-6.8052,-6.7244,-6.7128,-6.632,-6.4743,-6.4647,-6.3762,-6.2089,-6.2089,-6.1627,-6.08,-6.08,-6.08,-6.08,0.0,0.0,0.0,-6.08,-6.08,-6.08,-6.08,-6.0262,-5.9396,-5.8607,-5.8261,-5.7934,0.0,0.0,0.0,0.0,0.0,0.0,-1.9114,-2.0472,-2.1748,-2.2181,-2.3313,-2.3688,-2.265,-2.2154,-2.1984,-2.2159,0.0,0.0,0.0,0.0,0.0,0.0,0.0,0.0,0.0,0.0,-2.1482,-2.2438,-2.2894,0.0,0.0,0.0,0.0,0.0,0.0,-2.9469,-2.9557,-3.0427,0.0,0.0,0.0,0.0,0.0,0.0,0.0,0.0,0.0,0.0,-2.9091,-3.0037,-3.234,-3.4625,-3.3521,-3.7099,-4.2929,-4.8968,-5.256,-5.5577,-6.0258,-6.2416,-6.307,-6.205,-5.7745,-5.3051,-5.0245,-4.4592,-3.9598,-3.8427,-3.6859,-3.5742,-3.6057,-3.7583,-3.9669,-4.2344,-4.3408,-4.6201,-5.2913,-5.4362,-5.727,-6.4061,-6.6654,-6.8821,0.0,0.0,-7.1379,0.0,0.0,0.0,0.0,-6.734,-6.6494,-6.5609,-6.559,-6.4782,-6.3108,-6.3089,-6.2493,-6.132,-6.132,-6.1127,-6.08,-6.08,-6.08,-6.08,-6.08,0.0,0.0,-6.08,-6.08,-6.08,-6.08,-6.0589,-6.0185,-5.9338,-5.9031,-5.8781,0.0,0.0,0.0,0.0,0.0,-1.9476,-1.8757,-2.0113,-2.1471,-2.2221,-2.3112,-2.3381,-2.2601,-2.2323,-2.2059,-2.1793,-2.0937,0.0,0.0,0.0,0.0,0.0,0.0,0.0,0.0,0.0,-2.0948,-2.1656,-2.2034,-2.2707,0.0,0.0,-2.5522,-2.6495,0.0,0.0,0.0,0.0,0.0,0.0,0.0,0.0,0.0,0.0,0.0,0.0,0.0,0.0,0.0,0.0,0.0,-3.083,-2.8327,-2.9943,-3.4369,-4.2604,-4.7717,-5.167,-5.6041,-5.9296,-6.1142,-5.9973,-5.5902,-5.1524,-4.9026,-4.362,-3.8802,-3.7693,-3.6521,-3.5579,-3.5264,-3.6674,-3.8418,-4.0113,-4.0846,-4.3286,-4.9296,-5.0713,-5.3725,-6.074,0.0,-6.551,0.0,-7.029,0.0,0.0,0.0,0.0,0.0,-6.5974,-6.5224,-6.4628,-6.4359,-6.3531,-6.2108,-6.2089,-6.1647,-6.08,-6.08,-6.08,-6.08,-6.08,-6.08,-6.08,0.0,0.0,0.0,-6.0819,-6.0858,-6.0935,-6.0877,-6.0858,-6.0762,-5.9896,-5.9742,-5.9704,0.0,0.0,0.0,0.0,0.0,0.0,-1.7915,-1.9232,-2.0589,-2.132,-2.2299,-2.2838,-2.2618,-2.1895,-2.129,-2.1023,-2.0094,0.0,0.0,0.0,0.0,0.0,0.0,0.0,0.0,0.0,-1.9782,-1.9938,-2.0857,-2.1795,-2.2738,-2.3676,-2.4612,-2.5599,0.0,0.0,0.0,0.0,0.0,0.0,0.0,0.0,0.0,0.0,0.0,0.0,0.0,0.0,0.0,0.0,0.0,0.0,0.0,-2.7437,-2.8506,-3.3718,-4.0062,-4.6315,-5.0692,-5.4402,-5.7063,-5.7049,-5.3262,-4.8903,-4.6394,-4.1886,-3.7735,-3.6067,-3.5648,-3.533,-3.4461,-3.5731,-3.7464,-3.9136,-4.0924,-4.3543,-4.7731,-5.0542,-5.3459,-5.6869,-5.88,-6.1504,-6.5662,0.0,0.0,0.0,0.0,0.0,0.0,-6.5147,-6.4609,-6.4609,-6.3762,-6.2916,-6.2108,-6.2089,-6.1647,-6.08,-6.08,-6.08,-6.08,-6.08,-6.08,0.0,0.0,0.0,0.0,-6.0839,-6.0993,-6.1285,-6.1093,-6.0993,-6.0896,-6.0084,-6.0319,-6.0723,0.0,0.0,0.0,0.0,0.0,0.0,0.0,-1.8267,-1.9626,-2.0413,-2.1273,-2.1568,-2.0893,-2.0508,-2.0032,-1.9344,-1.8835,0.0,0.0,0.0,0.0,0.0,0.0,0.0,0.0,0.0,-1.9751,-1.9825,-2.0229,-2.1194,-2.2719,-2.3054,-2.4309,-2.6359,-2.6934,-2.7557,0.0,0.0,0.0,0.0,0.0,0.0,0.0,0.0,0.0,0.0,0.0,0.0,0.0,0.0,0.0,0.0,0.0,0.0,0.0,-2.848,-3.3764,-3.9909,-4.379,-4.6836,-4.8828,-4.8375,-4.5776,-4.3003,-4.171,-3.8411,-3.5475,-3.4972,-3.4827,-3.47,-3.4418,-3.6288,-3.8205,-3.9301,-4.1443,-4.385,-4.6311,-4.9305,-5.2928,-5.7468,-6.2632,-6.6665,0.0,0.0,0.0,0.0,0.0,0.0,0.0,-6.4205,-6.3724,-6.3724,-6.2916,-6.207,-6.1223,-6.1204,-6.1069,-6.08,-6.08,-6.08,-6.08,-6.08,0.0,0.0,0.0,0.0,0.0,-6.1113,-6.1214,-6.1293,-6.1229,-6.1209,-6.1178,-6.0918,-6.0973,-6.0946,0.0,0.0,0.0,0.0,0.0,0.0,0.0,-1.724,-1.8219,-1.9012,-1.9525,-1.9606,-1.9012,-1.8859,-1.857,-1.7944,-1.767,0.0,0.0,0.0,0.0,0.0,0.0,0.0,-1.8617,-1.9207,-1.9798,-2.032,-2.0448,-2.1424,-2.3228,-2.3275,-2.4356,-2.6262,-2.6629,-2.7129,0.0,0.0,0.0,0.0,0.0,0.0,-2.635,0.0,0.0,0.0,0.0,0.0,0.0,0.0,0.0,0.0,0.0,0.0,0.0,0.0,-2.8897,-3.3422,-3.7924,-4.1208,-4.3369,-4.3292,-4.1404,-3.9384,-3.8639,-3.611,-3.3867,-3.3576,-3.4013,-3.4323,-3.3974,-3.6047,-3.8061,-3.8887,-4.1199,-4.3501,-4.5215,-4.8629,0.0,-5.7564,0.0,0.0,0.0,0.0,0.0,0.0,0.0,0.0,0.0,0.0,-6.2858,-6.2858,-6.2031,-6.1339,-6.08,-6.08,-6.08,-6.08,-6.08,-6.08,-6.08,-6.08,0.0,0.0,0.0,0.0,0.0,-6.1258,-6.1357,-6.1449,-6.1388,-6.1369,-6.1378,-6.1376,-6.1174,-6.0718,0.0,0.0,0.0,0.0,0.0,0.0,0.0,-1.623,-1.6559,-1.7283,-1.7388,-1.732,-1.7116,-1.7102,-1.7008,-1.682,0.0,0.0,0.0,0.0,0.0,0.0,0.0,0.0,-1.9008,-1.9216,-1.9936,-2.1178,-2.1259,-2.2295,-2.4178,-2.4195,-2.4709,-2.5716,-2.6454,-2.6838,0.0,0.0,0.0,0.0,0.0,0.0,0.0,0.0,0.0,0.0,0.0,0.0,0.0,0.0,0.0,0.0,0.0,0.0,0.0,0.0,0.0,0.0,0.0,-3.6965,-3.9766,-4.0595,-3.9166,-3.7353,-3.6606,-3.4668,0.0,-3.1975,-3.3188,-3.4148,-3.3268,-3.5281,-3.7334,-3.8094,-4.0471,-4.2788,-4.446,-4.8728,0.0,0.0,-6.1698,0.0,0.0,0.0,0.0,0.0,0.0,0.0,0.0,0.0,-6.207,-6.1993,-6.1223,-6.08,-6.08,-6.08,-6.08,-6.08,-6.08,-6.08,-6.08,-6.08,0.0,0.0,0.0,0.0,0.0,-6.1331,-6.1485,-6.1695,-6.1562,-6.1512,-6.1504,-6.1445,-6.0906,-6.0168,0.0,0.0,0.0,0.0,0.0,0.0,0.0,0.0,0.0,0.0,-1.6814,-1.6906,-1.6198,-1.6042,-1.5942,0.0,0.0,0.0,0.0,0.0,0.0,0.0,0.0,0.0,-1.8188,-1.9062,-2.0001,-2.0964,-2.1199,-2.2562,-2.4945,-2.5042,-2.5912,-2.7389,-2.698,-2.685,0.0,0.0,0.0,0.0,0.0,0.0,0.0,0.0,0.0,0.0,-2.7237,-2.7133,0.0,0.0,0.0,0.0,0.0,0.0,0.0,0.0,-2.5244,-2.5886,-2.7892,0.0,-3.1607,-3.1966,-3.2095,-3.2115,0.0,-3.1584,-3.1157,-3.0948,-3.2286,-3.344,-3.3225,-3.5862,-3.8122,-3.8249,-4.1082,-4.3608,-4.4626,-5.1315,0.0,-6.1155,-6.4193,0.0,0.0,0.0,0.0,0.0,0.0,0.0,0.0,0.0,-6.1781,-6.1127,-6.0916,-6.08,-6.08,-6.08,-6.08,-6.08,-6.08,-6.08,-6.08,-6.08,0.0,0.0,0.0,0.0,-6.132,-6.1515,-6.1635,-6.1699,-6.167,-6.1642,-6.1562,-6.0898,-6.0538,-6.0168,0.0,0.0,0.0,0.0,0.0,0.0,0.0,0.0,0.0,0.0,0.0,-1.5613,-1.5074,-1.494,0.0,0.0,0.0,0.0,0.0,0.0,0.0,0.0,0.0,-1.825,-1.8538,-1.9197,-2.0241,-2.1619,-2.1828,-2.3294,-2.589,-2.5989,-2.6769,-2.8015,-2.7201,-2.6868,0.0,0.0,0.0,0.0,-2.5855,0.0,0.0,0.0,0.0,0.0,-2.7239,-2.7205,0.0,-2.6204,-2.6005,-2.5852,0.0,0.0,0.0,0.0,-2.5233,-2.5389,-2.5821,-2.7117,-2.8453,-2.8969,-2.9759,-3.0433,-3.053,-3.0597,-3.0746,-3.113,-3.2283,-3.3358,-3.3771,-3.6334,-3.8529,-3.8887,-4.1896,-4.5181,-4.7991,0.0,-5.7485,-6.1661,0.0,0.0,0.0,0.0,0.0,0.0,0.0,0.0,0.0,0.0,-6.1281,-6.08,-6.0416,-6.0396,-6.08,-6.08,-6.08,-6.08,-6.08,-6.08,-6.08,-6.08,-6.08,0.0,0.0,0.0,-6.1331,-6.1584,-6.1699,-6.1699,-6.1699,-6.1699,-6.1582,-6.0723,-6.0176,-5.9668,0.0,0.0,0.0,0.0,0.0,0.0,0.0,0.0,0.0,0.0,0.0,0.0,0.0,0.0,0.0,0.0,0.0,0.0,0.0,0.0,0.0,0.0,-1.7431,-1.8115,-1.9301,-1.949,-2.0521,-2.2524,-2.2786,-2.4272,-2.6904,-2.7101,-2.7615,-2.8287,-2.7462,-2.7026,0.0,0.0,0.0,0.0,-2.5694,0.0,0.0,0.0,0.0,0.0,0.0,0.0,0.0,-2.5933,-2.6028,-2.6388,-2.5582,0.0,0.0,0.0,0.0,0.0,-2.5423,-2.6795,-2.8343,-2.8818,-2.9723,-3.053,-3.0598,-3.0657,-3.0923,-3.174,-3.2656,-3.3619,-3.4605,-3.6895,-3.8896,-3.9762,-4.3163,-4.7492,-5.2678,-5.4417,-5.6712,-6.0903,0.0,0.0,0.0,0.0,0.0,0.0,0.0,0.0,0.0,0.0,0.0,-6.08,-5.9915,-5.9627,-6.0031,-6.0416,-6.0589,-6.0589,-6.0742,-6.08,-6.08,-6.0666,-6.0666,0.0,0.0,0.0,-6.1293,-6.1564,-6.168,-6.1699,-6.1699,-6.1699,-6.1582,-6.0586,-5.9781,-5.9068,0.0,0.0,0.0,0.0,0.0,0.0,0.0,0.0,0.0,0.0,0.0,0.0,0.0,0.0,0.0,0.0,0.0,0.0,0.0,0.0,0.0,-1.5997,-1.7237,-1.8375,-1.9364,-1.967,-2.0751,-2.2577,-2.3457,-2.5224,-2.7826,-2.8689,-2.9162,-2.9249,-2.8377,-2.762,-2.6929,-2.6055,-2.5687,-2.5693,-2.571,0.0,0.0,0.0,0.0,0.0,0.0,0.0,0.0,-2.6903,-2.6171,-2.5665,-2.5503,0.0,0.0,0.0,0.0,0.0,-2.5468,-2.783,-2.992,-2.8517,-2.9389,-3.0607,-3.0662,-3.0695,-3.0944,-3.1802,-3.2693,-3.3783,-3.5395,-3.7831,-3.9864,-4.074,0.0,-5.1104,0.0,0.0,-6.0741,0.0,0.0,0.0,0.0,0.0,0.0,0.0,0.0,0.0,0.0,0.0,0.0,-6.0766,-5.9727,-5.8319,-5.6502,-5.8623,-5.9704,-5.9704,-6.0454,-6.08,-6.0762,-6.0031,-6.0108,0.0,0.0,-6.0461,-6.1156,-6.1427,-6.1601,-6.1699,-6.1699,-6.1699,-6.1504,-5.9961,-5.9311,-5.8978,0.0,0.0,0.0,0.0,0.0,0.0,0.0,0.0,0.0,0.0,0.0,0.0,0.0,0.0,0.0,0.0,0.0,0.0,0.0,0.0,-1.514,-1.6541,-1.7363,-1.8174,-1.9,-2.0171,-2.1397,-2.2707,-2.4196,-2.601,-2.8137,-2.9543,-3.0209,-3.017,-2.9286,-2.8469,-2.7657,-2.6771,-2.6134,-2.5709,0.0,0.0,0.0,0.0,0.0,0.0,0.0,0.0,0.0,0.0,-2.589,-2.5554,-2.5551,0.0,0.0,0.0,0.0,0.0,-2.5538,-2.742,-2.9388,-2.9493,-3.1495,-3.3352,-3.2917,-3.3165,-3.3621,-3.4027,-3.4431,-3.5236,-3.6988,-3.9057,-4.1861,-4.5984,0.0,-5.3514,0.0,0.0,0.0,0.0,0.0,0.0,0.0,0.0,0.0,0.0,0.0,0.0,0.0,0.0,0.0,0.0,-5.8495,-5.7453,-5.639,-5.7569,-5.8396,-5.8877,-6.0185,-6.055,-6.0089,-5.9685,-5.9723,-6.0089,0.0,-6.0145,-6.0569,-6.1305,-6.164,-6.1699,-6.1699,-6.1699,-6.1504,-5.9824,-5.8601,-5.7693,0.0,0.0,0.0,0.0,0.0,0.0,0.0,0.0,0.0,0.0,0.0,0.0,0.0,0.0,0.0,0.0,0.0,0.0,0.0,-1.4603,-1.5384,-1.6971,-1.7428,-1.8168,-1.9335,-2.0779,-2.2161,-2.3469,-2.5096,-2.6894,-2.884,-3.0193,-3.0813,-3.074,-2.9698,-2.8877,-2.8223,-2.7157,-2.6303,-2.57,0.0,0.0,0.0,0.0,0.0,0.0,0.0,0.0,0.0,0.0,0.0,0.0,0.0,0.0,0.0,-2.5604,-2.5746,-2.5892,-2.5906,-2.7469,-2.9377,-3.0511,-3.309,-3.5349,-3.5482,-3.6183,-3.6918,-3.734,-3.742,-3.7887,-3.9433,-4.131,0.0,-5.0995,-5.3474,0.0,0.0,0.0,0.0,0.0,0.0,0.0,0.0,0.0,0.0,0.0,0.0,0.0,0.0,0.0,0.0,0.0,-5.7165,-5.6684,-5.6684,-5.711,-5.7552,-5.8011,-5.9492,-5.9858,-5.9204,-5.9011,-5.905,-5.9281,-5.9315,-5.9719,-6.0388,-6.1061,-6.1486,-6.1699,-6.1699,-6.1465,-6.0937,-5.9433,-5.789,-5.6554,0.0,0.0,0.0,0.0,0.0,0.0,0.0,0.0,0.0,0.0,0.0,0.0,0.0,0.0,0.0,0.0,0.0,0.0,0.0,-1.4794,-1.5306,-1.6246,-1.72,-1.8819,-2.1254,-2.1492,-2.283,-2.5399,-2.6345,-2.8111,-3.0622,-3.0795,-3.0859,-3.0721,-2.9101,-2.8359,-2.8183,-2.6504,-2.5762,-2.5703,-2.5703,0.0,0.0,0.0,0.0,0.0,0.0,0.0,0.0,0.0,0.0,0.0,0.0,0.0,-2.5598,-2.5598,-2.617,-2.6817,-2.6816,-2.9254,-3.1652,-3.0973,-3.2201,-3.4386,-3.75,-3.8887,-3.9985,-4.1605,-4.1937,-4.2221,-4.3148,-4.5401,-4.859,-5.3078,-5.5277,0.0,0.0,0.0,0.0,0.0,0.0,0.0,0.0,0.0,0.0,0.0,0.0,0.0,0.0,0.0,0.0,0.0,0.0,-5.578,-5.578,-5.7398,-5.7822,-5.7088,-5.803,-5.8454,-5.8357,-5.755,-5.7684,-5.8527,-5.7742,-5.8877,-6.1247,-6.0583,-6.0858,-6.1699,-6.1699,-6.0742,-5.9277,-5.834,-5.7324,-5.6417,0.0,0.0,0.0,0.0,0.0,0.0,0.0,0.0,0.0,0.0,0.0,0.0,0.0,0.0,0.0,0.0,0.0,0.0,0.0,-1.5792,-1.6481,-1.7934,-1.8405,-1.9842,-2.243,-2.3012,-2.4054,-2.5664,-2.7615,-2.9366,-3.0853,-3.0859,-3.0816,-3.074,-2.9569,-2.8771,-2.8227,-2.7013,-2.6193,-2.5703,-2.5651,-2.5651,0.0,0.0,0.0,0.0,0.0,0.0,0.0,0.0,-2.5698,-2.5795,-2.6317,-2.6468,-2.6581,-2.7125,-2.751,-2.7755,-2.7718,-2.9866,-3.2019,-3.1695,-3.4148,-3.7117,-3.8941,-4.1279,-4.3061,-4.3178,-4.4499,-4.5737,-4.6058,-4.8662,-5.1662,-5.4373,0.0,0.0,0.0,0.0,0.0,0.0,0.0,0.0,0.0,0.0,0.0,0.0,0.0,0.0,0.0,0.0,0.0,0.0,0.0,-5.5184,-5.5703,-5.6359,-5.6533,-5.6203,-5.7627,-5.7742,-5.6701,-5.7069,-5.7357,-5.7552,-5.7313,-5.7841,-5.8944,-5.9249,-5.9987,-6.0898,-6.0898,-5.9863,-5.8359,-5.8027,-5.7324,-5.6522,0.0,0.0,0.0,0.0,0.0,0.0,0.0,0.0,0.0,0.0,0.0,0.0,0.0,0.0,0.0,0.0,0.0,0.0,-1.6321,-1.6663,-1.7526,-1.9056,-1.9189,-2.0416,-2.3035,-2.3917,-2.5054,-2.652,-2.8846,-3.0272,-3.0874,-3.0829,-3.0657,-3.0357,-2.9476,-2.8638,-2.7803,-2.6938,-2.6209,-2.5656,-2.5615,-2.5634,0.0,0.0,0.0,0.0,0.0,0.0,0.0,0.0,-2.5698,-2.5855,-2.6738,-2.6992,-2.7166,-2.8041,-2.8309,-2.8359,-2.8586,-2.9959,-3.1492,-3.2313,-3.536,-3.8707,-4.0641,-4.3769,-4.6211,-4.6133,-4.7341,-4.843,-4.843,-5.0529,0.0,0.0,0.0,0.0,0.0,0.0,0.0,0.0,0.0,0.0,0.0,0.0,0.0,0.0,0.0,0.0,0.0,0.0,0.0,0.0,0.0,-5.4895,-5.5684,-5.5703,-5.5703,-5.5703,-5.6915,-5.6857,-5.572,-5.6511,-5.6802,-5.6667,-5.675,-5.7017,-5.7444,-5.813,-5.9016,-5.9902,-5.9687,-5.8906,-5.7871,-5.7598,-5.7109,-5.6582,0.0,0.0,0.0,0.0,0.0,0.0,0.0,0.0,0.0,0.0,0.0,0.0,0.0,0.0,0.0,0.0,0.0,0.0,-1.6502,-1.7331,-1.8211,-1.9157,-1.9214,-2.0437,-2.3024,-2.3944,-2.5681,-2.8293,-2.9961,-3.079,-3.0778,-3.0774,-3.0307,-2.944,-2.8573,-2.7712,-2.6836,-2.597,-2.561,-2.5599,-2.5599,-2.559,-2.561,0.0,0.0,0.0,0.0,0.0,0.0,0.0,-2.5704,-2.5849,-2.6726,-2.7005,-2.7166,-2.8066,-2.8319,-2.8494,-2.9372,-2.9613,-3.0235,-3.277,-3.5394,-3.8441,-4.2739,-4.6384,-4.9375,-5.1074,-5.0781,-5.0215,-5.0234,-5.0891,0.0,0.0,0.0,0.0,0.0,0.0,0.0,0.0,0.0,0.0,0.0,0.0,0.0,0.0,0.0,0.0,0.0,0.0,0.0,0.0,0.0,0.0,-5.5665,-5.5684,-5.5684,-5.5684,-5.5665,-5.5684,-5.5703,-5.5703,-5.5761,-5.5895,-5.5895,-5.6456,-5.7386,-5.7391,-5.7987,-5.8808,-5.8164,-5.789,-5.7773,-5.6914,-5.6601,-5.6582,0.0,0.0,0.0,0.0,0.0,0.0,0.0,0.0,0.0,0.0,0.0,0.0,0.0,0.0,0.0,0.0,0.0,0.0,-1.6525,-1.7424,-1.8342,-1.9238,-1.9801,-2.0762,-2.2168,-2.3647,-2.567,-2.824,-2.8739,-2.8973,-2.8963,-2.8924,-2.8757,-2.8487,-2.7595,-2.7071,-2.6773,-2.5907,-2.5531,-2.5531,-2.5524,-2.5538,-2.5525,0.0,0.0,0.0,0.0,0.0,0.0,0.0,0.0,0.0,-2.7457,-2.7483,-2.7411,-2.9509,-2.9686,-2.9393,-3.0214,-3.1344,-3.2595,-3.3966,-3.717,-4.0628,-4.3124,-4.5914,-4.8984,-5.25,-5.2051,-5.1426,-5.2656,-5.3066,0.0,0.0,0.0,0.0,0.0,0.0,0.0,0.0,0.0,0.0,0.0,0.0,0.0,0.0,0.0,0.0,0.0,0.0,0.0,0.0,0.0,0.0,-5.3933,-5.4453,-5.4491,-5.4087,-5.3834,-5.441,-5.5703,-5.5703,-5.5722,-5.5761,-5.5857,-5.6148,-5.6612,-5.7429,-5.7515,-5.7187,-5.7695,-5.7539,-5.6953,-5.6699,-5.6601,-5.6582,0.0,0.0,0.0,0.0,0.0,0.0,0.0,0.0,0.0,0.0,-1.819,-1.7375,0.0,0.0,0.0,0.0,0.0,0.0,0.0,-1.7782,-1.8707,-1.9238,-2.0054,-2.0904,-2.1735,-2.3124,-2.4756,-2.6607,-2.7333,-2.7853,-2.8157,-2.8061,-2.7847,-2.751,-2.6928,-2.6525,-2.6211,-2.565,-2.5437,-2.5468,-2.5468,-2.5464,-2.5456,0.0,0.0,0.0,0.0,0.0,0.0,0.0,0.0,0.0,-2.7855,-2.7939,-2.7889,-2.9812,-3.0015,-2.9783,-3.0618,-3.1854,-3.3456,-3.5698,-3.8705,-4.1867,-4.4611,-4.7515,-5.0566,-5.3848,-5.3418,-5.2851,-5.4258,-5.4238,0.0,0.0,0.0,0.0,0.0,0.0,0.0,0.0,0.0,0.0,0.0,0.0,0.0,0.0,0.0,0.0,0.0,0.0,0.0,0.0,0.0,0.0,-5.3356,-5.3799,-5.3841,-5.3481,-5.3254,-5.3774,-5.4856,-5.4881,-5.4874,-5.4874,-5.5268,-5.5672,-5.6116,-5.6808,-5.6742,-5.6274,-5.7026,-5.6948,-5.6454,-5.656,-5.6562,-5.6523,0.0,0.0,0.0,0.0,0.0,0.0,0.0,0.0,0.0,0.0,-1.825,-1.7413,0.0,0.0,0.0,0.0,0.0,0.0,0.0,-1.8085,-1.8999,-1.9085,-1.9985,-2.083,-2.1566,-2.2357,-2.3145,-2.3959,-2.5764,-2.7064,-2.7828,-2.7713,-2.7265,-2.655,-2.6429,-2.6006,-2.5369,-2.5303,-2.5332,-2.5378,-2.5398,-2.5397,-2.5393,-2.5476,0.0,0.0,0.0,0.0,0.0,0.0,0.0,0.0,-2.8021,-2.8184,-2.8271,-2.9294,-2.9545,-2.9706,-3.0728,-3.1699,-3.3443,-3.7655,-4.0254,-4.2851,-4.69,-5.0308,-5.3047,-5.4726,-5.4551,-5.4355,-5.5156,-5.459,0.0,0.0,0.0,0.0,0.0,0.0,0.0,0.0,0.0,0.0,0.0,0.0,0.0,0.0,0.0,0.0,0.0,0.0,0.0,0.0,0.0,0.0,-5.3242,-5.326,-5.3275,0.0,-5.3358,-5.3369,-5.33,-5.3507,-5.3605,-5.3661,-5.4409,-5.5137,-5.582,-5.5904,-5.5943,-5.5952,-5.6274,-5.6322,-5.6239,-5.6508,-5.6518,-5.6405,0.0,0.0,0.0,0.0,0.0,0.0,0.0,0.0,0.0,0.0,0.0,0.0,0.0,0.0,0.0,0.0,0.0,0.0,0.0,-1.6614,-1.7462,-1.8144,-1.9618,-2.0479,-2.0604,-2.0772,-2.1266,-2.2081,-2.3898,-2.5136,-2.5832,-2.5783,-2.5655,-2.5436,-2.5417,-2.5313,-2.5171,-2.5212,-2.5233,-2.5253,-2.5302,-2.5322,-2.5341,-2.5406,-2.5537,0.0,0.0,0.0,0.0,0.0,0.0,0.0,-2.8012,-2.7357,-2.6698,-2.8945,-2.9113,-2.9059,-3.1255,-3.299,-3.5042,-3.87,-4.2947,-4.6816,-4.9121,-5.0703,-5.1973,-5.3047,-5.4199,-5.5078,-5.5273,0.0,0.0,0.0,0.0,0.0,0.0,0.0,0.0,0.0,0.0,0.0,0.0,0.0,0.0,0.0,0.0,0.0,0.0,0.0,0.0,0.0,0.0,-4.9548,-5.0452,-5.0664,-5.076,0.0,-5.1522,-5.155,-5.0994,-5.2783,-5.3665,-5.3815,-5.4649,-5.5055,-5.519,-5.5976,-5.6228,-5.6155,-5.6323,-5.6364,-5.6387,-5.6534,-5.6453,-5.6281,0.0,0.0,0.0,0.0,0.0,0.0,0.0,0.0,0.0,0.0,0.0,0.0,0.0,0.0,0.0,0.0,0.0,0.0,0.0,0.0,-1.6969,-1.782,-1.9058,-1.9708,-1.968,-2.0023,-2.0606,-2.1455,-2.2775,-2.3832,-2.4588,-2.4988,-2.5153,-2.5101,-2.5063,-2.5087,-2.5153,-2.5141,-2.5187,-2.5252,-2.5252,-2.5273,-2.5313,-2.5379,-2.5657,-2.603,-2.6142,0.0,0.0,0.0,0.0,0.0,0.0,0.0,-2.72,-2.8574,-2.9257,-2.9823,-3.1168,-3.308,-3.5722,-4.0039,-4.4335,-4.7754,-4.873,-4.9922,-5.0957,-5.1406,-5.3203,-5.4687,0.0,0.0,0.0,0.0,0.0,0.0,0.0,0.0,0.0,0.0,0.0,0.0,0.0,0.0,0.0,0.0,0.0,0.0,0.0,0.0,0.0,0.0,-4.8298,-4.8557,-4.9069,-4.9279,-4.9372,-4.9372,-4.9932,-5.021,-5.0249,-5.1829,-5.2816,-5.3289,-5.3621,-5.3972,-5.4343,-5.5171,-5.5455,-5.5436,-5.5962,-5.6117,-5.609,-5.6321,-5.6265,-5.6025,0.0,0.0,0.0,0.0,0.0,0.0,0.0,0.0,0.0,0.0,0.0,0.0,0.0,0.0,0.0,0.0,0.0,0.0,0.0,0.0,0.0,-1.751,-1.8451,-1.8966,-1.897,-1.9711,-2.0518,-2.1378,-2.2199,-2.3048,-2.39,-2.4778,-2.5125,-2.5044,-2.5038,-2.5063,-2.5168,-2.5139,-2.518,-2.529,-2.5212,-2.5233,-2.5303,-2.5361,-2.5851,-2.6418,-2.608,-2.6779,-2.7841,-2.7639,0.0,0.0,0.0,0.0,-2.8104,-2.825,-2.9329,-3.0507,-3.0801,-3.2965,-3.6286,-4.1013,-4.4506,-4.6875,-4.7285,-4.8613,-4.9785,-4.9941,-5.1777,0.0,0.0,0.0,0.0,0.0,0.0,0.0,0.0,0.0,0.0,0.0,0.0,0.0,0.0,0.0,0.0,0.0,0.0,0.0,0.0,0.0,-4.806,-4.8047,-4.7951,-4.8037,-4.8262,-4.843,-4.8506,-4.8516,-4.8789,-4.9277,-5.0019,-5.0957,-5.1797,-5.2461,-5.2395,-5.2757,-5.3429,-5.407,-5.4414,-5.4608,-5.5393,-5.5708,-5.5742,-5.5917,-5.5846,-5.5556,0.0,0.0,0.0,0.0,0.0,0.0,0.0,0.0,0.0,0.0,-1.6034,-1.5536,0.0,0.0,0.0,0.0,0.0,0.0,0.0,0.0,0.0,-1.6491,-1.7986,-1.8837,-1.8837,-1.9602,-2.0431,-2.1309,-2.2185,-2.302,-2.3819,-2.4714,-2.5031,-2.4856,-2.4999,-2.507,-2.5019,-2.5144,-2.521,-2.5214,-2.519,-2.5212,-2.5233,-2.5351,-2.5465,-2.5751,-2.7234,-2.742,-2.7303,-2.9533,-2.932,0.0,0.0,0.0,-2.7318,-2.8076,-2.8457,-2.8953,-3.0429,-3.3824,-3.7663,-4.0617,-4.279,-4.459,-4.6133,-4.7246,-4.8164,0.0,0.0,0.0,0.0,0.0,0.0,0.0,0.0,0.0,0.0,0.0,0.0,0.0,0.0,0.0,0.0,0.0,0.0,0.0,0.0,0.0,0.0,-4.642,-4.6332,-4.6159,-4.6315,-4.6714,-4.7359,-4.7616,-4.7748,-4.7754,-4.8535,-4.8965,-4.9121,-5.0683,-5.1465,-5.1601,-5.2322,-5.2575,-5.2548,-5.3379,-5.4109,-5.4682,-5.4821,-5.5283,-5.5821,-5.5283,-5.4919,-5.4592,0.0,0.0,0.0,0.0,0.0,0.0,0.0,0.0,0.0,0.0,0.0,-1.5407,0.0,0.0,0.0,0.0,0.0,0.0,0.0,0.0,0.0,-1.5627,-1.721,-1.8097,-1.8124,-1.983,-2.0925,-2.1368,-2.2691,-2.35,-2.3885,-2.522,-2.552,-2.4972,-2.5051,-2.5076,-2.5063,-2.5113,-2.5172,-2.5198,-2.5201,-2.5252,-2.5379,-2.588,-2.613,-2.6359,-2.7597,-2.7826,-2.7705,-2.8924,-2.852,-2.7585,-2.8008,0.0,0.0,0.0,-2.8268,-2.9394,-3.107,-3.3589,-3.6268,-3.8466,-4.0604,-4.2649,-4.4448,-4.5527,-4.6387,-4.7266,0.0,0.0,0.0,0.0,0.0,0.0,0.0,0.0,0.0,0.0,0.0,0.0,0.0,0.0,0.0,0.0,0.0,0.0,0.0,-4.6269,-4.6211,-4.6133,-4.6069,-4.5984,-4.5988,-4.6143,-4.6474,-4.6661,-4.6806,-4.6875,-4.7754,-4.8164,-4.8223,-4.9746,-5.0547,-5.0762,-5.1523,-5.1795,-5.1745,-5.2456,-5.2935,-5.3281,-5.3703,-5.4087,-5.4337,-5.407,-5.3877,-5.3664,0.0,0.0,0.0,0.0,0.0,0.0,0.0,0.0,0.0,0.0,0.0,0.0,0.0,0.0,0.0,0.0,0.0,0.0,0.0,0.0,0.0,-1.5403,-1.673,-1.7519,-1.7564,-1.9611,-2.1001,-2.1713,-2.2961,-2.3793,-2.4258,-2.5509,-2.5867,-2.5456,-2.5678,-2.5628,-2.5437,-2.5659,-2.5784,-2.5814,-2.5653,-2.5646,-2.5803,-2.6408,-2.6599,-2.665,-2.7901,-2.8113,-2.7893,-2.8598,-2.8126,-2.732,-2.7808,-2.7528,0.0,0.0,0.0,-2.989,-3.1358,-3.2972,-3.4552,-3.595,-3.8202,-4.0469,-4.2041,0.0,-4.4277,0.0,0.0,0.0,0.0,0.0,0.0,0.0,0.0,0.0,0.0,0.0,0.0,0.0,0.0,0.0,0.0,0.0,0.0,0.0,0.0,-4.5937,-4.5913,-4.5835,-4.5869,-4.6025,-4.6026,-4.5982,-4.5956,-4.608,-4.6199,-4.6308,-4.7187,-4.748,-4.7324,-4.8965,-4.9648,-4.959,-5.0449,-5.0859,-5.0935,-5.1334,-5.1757,-5.2146,-5.2664,-5.301,-5.3164,-5.2953,-5.2876,-5.276,0.0,0.0,0.0,0.0,0.0,0.0,0.0,0.0,0.0,0.0,0.0,0.0,-1.5397,-1.5333,-1.5299,-1.5295,-1.5306,-1.5594,-1.6285,-1.6269,-1.6233,-1.6249,-1.6989,0.0,-1.7491,-1.8431,-2.0107,-2.2543,-2.262,-2.3511,-2.5135,-2.5217,-2.5688,-2.6458,-2.7211,-2.7116,-2.6384,-2.7211,-2.756,-2.7515,-2.688,-2.6634,-2.6647,-2.6748,-2.6313,-2.5986,-2.8461,-2.8313,-2.7323,-2.9758,-2.9477,-2.8422,-3.0084,-2.8937,-2.7315,0.0,0.0,0.0,-3.0613,-3.2136,-3.3473,-3.3573,-3.5566,-3.7733,0.0,0.0,0.0,0.0,0.0,0.0,0.0,0.0,0.0,0.0,0.0,0.0,0.0,0.0,0.0,0.0,0.0,0.0,0.0,0.0,0.0,0.0,0.0,-4.4944,-4.4884,-4.4925,-4.5252,-4.5892,-4.6142,-4.6217,-4.608,-4.6216,-4.6288,-4.6308,-4.7187,-4.7168,-4.6445,-4.8672,-4.8984,-4.7812,-4.918,-4.9883,-5.0058,-4.9964,-5.0777,-5.2088,-5.1991,-5.2472,-5.3106,-5.2279,-5.1972,-5.1856,0.0,0.0,0.0,0.0,0.0,0.0,0.0,0.0,0.0,0.0,0.0,0.0,0.0,-1.5649,-1.5299,-1.5306,-1.5773,-1.6405,-1.7189,-1.7175,-1.7112,-1.706,-1.7293,-1.77,-1.8317,-1.9154,-2.0298,-2.1828,-2.2939,-2.3831,-2.4475,-2.6096,-2.6768,-2.6549,-2.6236,-2.6539,-2.7273,-2.7029,-2.7244,-2.7708,-2.6998,-2.6738,-2.6876,-2.799,-2.796,-2.7655,-3.0128,-3.0656,-3.0227,-3.0582,-3.03,-2.9732,-2.9265,-2.8493,-2.8017,-2.9236,-2.9554,-2.9681,-3.0552,-3.125,-3.1999,-3.3122,-3.4092,-3.5312,-3.7305,-3.8672,0.0,0.0,0.0,0.0,0.0,0.0,0.0,0.0,0.0,0.0,0.0,0.0,0.0,0.0,0.0,0.0,0.0,0.0,0.0,0.0,0.0,0.0,-4.4737,-4.5257,-4.5684,-4.6014,-4.6125,-4.6183,-4.6242,-4.6278,-4.6308,-4.6308,-4.6621,-4.6601,-4.6328,-4.7148,-4.7246,-4.6797,-4.7305,-4.8183,-4.9336,-4.9751,-5.0209,-5.0664,-5.1087,-5.1395,-5.1548,-5.1241,-5.1125,-5.1087,0.0,0.0,0.0,0.0,0.0,0.0,0.0,0.0,0.0,-1.7944,0.0,0.0,0.0,0.0,-1.5874,-1.6144,-1.6361,-1.6836,-1.7657,-1.7643,-1.756,-1.7508,-1.7444,-1.7832,-1.8754,-1.9286,-2.0164,-2.1369,-2.2853,-2.3554,-2.3611,-2.5608,-2.6406,-2.6128,-2.5224,-2.6085,-2.8191,-2.7896,-2.8099,-2.8541,-2.7842,-2.7759,-2.8178,-2.9651,-2.9896,-2.9738,-3.1971,-3.2604,-3.2308,-3.1758,-3.1388,-3.1018,-3.0173,-2.9732,-2.9569,-2.9902,-2.9975,-3.0064,-3.0634,-3.1008,-3.1447,-3.2313,-3.2973,-3.3784,-3.5234,0.0,0.0,0.0,0.0,0.0,0.0,0.0,0.0,0.0,0.0,0.0,0.0,0.0,0.0,0.0,0.0,0.0,0.0,0.0,0.0,0.0,0.0,0.0,-4.3811,-4.4564,-4.5336,-4.6074,-4.6065,-4.6097,-4.6228,-4.6221,-4.6209,-4.6173,-4.6216,-4.6238,-4.623,-4.6289,-4.6308,-4.6308,-4.6308,-4.7129,-4.8496,-4.8897,-4.9348,-4.984,-5.024,-5.051,-5.0702,-5.0702,-5.0702,-5.0702,0.0,0.0,0.0,0.0,0.0,0.0,0.0,0.0,-1.7994,-1.8075,0.0,0.0,0.0,0.0,0.0,-1.7868,-1.7103,-1.6912,-1.772,-1.7715,-1.764,-1.7586,-1.7481,-1.7838,-1.8731,-1.8715,-1.9533,-2.1257,-2.2199,-2.2671,-2.2719,-2.3621,-2.4504,-2.5351,-2.4582,-2.603,-2.9091,-2.9896,-3.0228,-3.0202,-2.9589,-2.9773,-3.053,-3.1632,-3.1889,-3.1927,-3.3846,-3.4007,0.0,-3.3379,-3.288,-3.2365,-3.3072,-3.2756,-3.1939,-3.1055,-3.08,-3.0808,0.0,0.0,0.0,-3.1037,-3.2114,0.0,-3.2322,0.0,0.0,0.0,0.0,0.0,0.0,0.0,0.0,0.0,0.0,0.0,0.0,0.0,0.0,0.0,0.0,0.0,0.0,0.0,0.0,0.0,0.0,-4.2059,-4.1989,-4.2761,-4.4064,-4.5975,-4.591,-4.5941,-4.6046,-4.6086,-4.603,-4.5899,-4.6042,-4.6088,-4.6093,-4.623,-4.6289,-4.6289,-4.6289,-4.6777,-4.7537,-4.7307,-4.8205,-4.972,-4.9495,-4.9933,-5.0702,-5.0702,-5.0702,-5.0702,0.0,0.0,0.0,0.0,0.0,-2.0132,-2.0145,-1.9938,-1.9791,0.0,0.0,0.0,-1.8173,-1.7801,-1.7888,-1.8707,-1.8484,-1.8621,-1.9394,-1.9426,-1.9383,-1.9303,-1.8591,-1.8655,-1.9623,-1.8933,-1.9152,-2.0356,-2.1261,-2.2008,-2.2668,-2.4166,-2.5666,-2.7127,-2.747,-2.8502,-2.9877,-2.8905,-2.9538,-3.1148,-3.0497,-3.0355,-3.0727,-3.2325,-3.2194,0.0,0.0,-3.533,-3.5185,0.0,-3.5878,-3.53,-3.3782,-3.2752,-3.1932,-3.1061,-3.0806,-3.0798,-3.0795,0.0,0.0,0.0,0.0,0.0,0.0,0.0,0.0,0.0,0.0,0.0,0.0,0.0,0.0,0.0,0.0,0.0,0.0,0.0,0.0,0.0,0.0,0.0,0.0,0.0,0.0,0.0,-4.1463,-4.2075,-4.2002,-4.2857,-4.3631,-4.4266,-4.4824,-4.5125,-4.5163,-4.5689,-4.5933,-4.5899,-4.5931,-4.5966,-4.5951,-4.5994,-4.6058,-4.6152,-4.6152,-4.6294,-4.6571,-4.7115,-4.7886,-4.8781,-4.9315,-5.0029,-5.0702,-5.0702,-5.0702,-5.0702,0.0,0.0,0.0,0.0,0.0,-2.0507,-2.0497,-2.0477,-2.0344,0.0,0.0,0.0,-1.9193,-1.8414,-1.8368,-1.95,-1.9226,-1.916,-1.9569,-1.9562,-1.9526,-1.9463,-1.8896,-1.9005,-1.99,-1.9341,-1.9329,-1.9915,-2.0793,-2.1494,-2.2049,-2.3422,-2.4815,-2.6209,-2.701,-2.807,-2.92,-2.8913,-2.966,-3.1024,-3.1082,-3.1282,-3.1729,-3.3268,-3.3671,0.0,0.0,0.0,-3.743,-3.7694,-3.7662,-3.7212,-3.5482,-3.4088,-3.2945,-3.2088,-3.1347,-3.0794,-3.081,-3.0797,-3.0918,-3.1434,0.0,0.0,-3.2288,-3.2985,0.0,0.0,0.0,0.0,0.0,0.0,0.0,0.0,0.0,0.0,0.0,0.0,0.0,0.0,0.0,0.0,0.0,0.0,0.0,-3.9177,-4.0366,-4.1366,-4.1998,-4.2546,-4.3091,-4.3573,-4.3936,-4.416,-4.422,-4.4951,-4.5295,-4.5234,-4.5661,-4.5853,-4.5853,-4.5872,-4.5919,-4.6013,-4.6026,-4.5987,-4.6007,-4.6525,-4.7142,-4.7855,-4.8644,-4.9471,-5.0202,-5.0567,-5.0702,-5.0702,0.0,0.0,-2.0497,-2.0503,-2.05,-2.0507,-2.048,-2.0445,-2.0133,0.0,-1.9275,-1.9279,-1.9331,-1.8624,-1.8727,-2.0154,-1.9561,-1.9081,-1.9007,-1.9048,-1.905,-1.8968,-1.8976,-1.9273,-1.9931,-1.9844,-1.9782,-1.9795,-2.0659,-2.1166,-2.1339,-2.2213,-2.3183,-2.4194,-2.5003,-2.6294,-2.795,-2.9617,-3.0285,-3.0338,-3.1535,-3.2454,0.0,0.0,-3.5597,-3.6938,-3.8028,-3.8931,-3.9547,-3.9046,-3.8801,0.0,-3.752,-3.6098,-3.4586,-3.3476,-3.2119,-3.0915,-3.0823,-3.0801,-3.0792,-3.08,-3.1465,0.0,-3.1242,-3.1757,-3.2192,0.0,0.0,0.0,0.0,0.0,0.0,0.0,0.0,0.0,0.0,0.0,0.0,0.0,0.0,0.0,0.0,-3.8398,-3.8418,-3.8281,-3.9157,-4.0309,-4.1767,-4.1931,-4.2391,-4.3297,-4.3163,-4.3131,-4.3256,-4.3972,-4.4318,-4.4316,-4.5201,-4.568,-4.5776,-4.5776,-4.5815,-4.589,-4.5891,-4.5861,-4.5796,-4.5796,-4.6259,-4.7067,-4.7817,-4.8625,-4.951,-5.0375,-5.0702,-5.0702,0.0,-2.0497,-2.051,-2.0506,-2.0501,-2.0483,-2.0425,-2.0415,-2.0344,-2.0194,-2.0161,-2.0142,-2.0152,-1.9922,-1.9858,-2.0129,-1.9935,-1.9753,-1.9635,-2.0323,-2.0691,-2.0634,-2.0634,-2.0678,-2.0759,-2.0088,-1.9712,-1.9712,-2.0596,-2.1381,-2.2092,-2.2975,-2.4258,-2.5869,-2.6667,-2.7641,-2.8771,-3.0399,-3.0814,-3.0548,-3.2699,-3.3755,-3.4126,-3.512,-3.576,-3.6398,-3.7987,-3.9032,-3.9759,-4.0279,-4.0506,-4.0164,-3.7841,-3.69,-3.609,-3.3114,-3.2065,-3.169,-3.0998,-3.0794,-3.0802,-3.0794,-3.1463,0.0,-3.277,-3.3564,-3.415,0.0,0.0,0.0,0.0,0.0,0.0,0.0,0.0,0.0,0.0,0.0,0.0,0.0,0.0,0.0,0.0,-3.7148,-3.7539,-3.7519,-3.8877,-3.9844,-4.0154,-4.0829,-4.1352,-4.1667,-4.2098,-4.2333,-4.2345,-4.3044,-4.3701,-4.4297,-4.4489,-4.4951,-4.5624,-4.5624,-4.5719,-4.5815,-4.5822,-4.5806,-4.5796,-4.5796,-4.624,-4.7009,-4.7798,-4.8625,-4.951,-5.0375,-5.0702,-5.0702,-2.0432,-2.0441,-2.0447,-2.0449,-2.0459,-2.0422,-2.0318,-2.0263,-2.0246,-2.026,-2.0302,-2.0489,-2.0868,-2.0804,-2.0709,-2.061,-2.0903,-2.1066,-2.1003,-2.1463,-2.1733,-2.17,-2.1695,-2.1682,-2.1601,-2.1166,-2.0919,-2.0863,-2.133,-2.1985,-2.2863,-2.3719,-2.4662,-2.5722,-2.7327,-2.8358,-2.897,-3.0601,-3.1591,-3.2137,-3.3108,0.0,-3.3954,-3.5327,-3.6172,-3.6875,-3.8613,-3.9766,-4.0566,-4.1384,-4.1375,0.0,-3.9,-3.8132,-3.7153,-3.4172,-3.3005,-3.2415,-3.1106,-3.0431,-3.0203,-3.0633,-3.0784,0.0,0.0,-3.2432,-3.2753,0.0,0.0,0.0,0.0,0.0,0.0,0.0,0.0,0.0,0.0,0.0,0.0,0.0,0.0,0.0,0.0,-3.5742,-3.6367,-3.7226,-3.8047,-3.8698,-3.9128,-3.9976,-4.0471,-4.0547,-4.1145,-4.145,-4.1443,-4.212,-4.2643,-4.3066,-4.3893,-4.4528,-4.497,-4.5393,-4.5624,-4.5699,-4.5699,-4.5699,-4.5699,-4.5699,-4.5913,-4.6374,-4.7625,-4.8375,-4.8913,-5.0221,-5.0702,-5.0702,-2.0386,-2.0394,-2.0398,-2.0395,-2.0531,-2.0596,-2.0476,-2.0384,-2.0287,-2.0122,-2.0631,-2.1232,-2.1844,-2.2144,-2.2437,-2.2816,-2.2767,-2.2871,-2.3164,-2.2929,-2.2787,-2.2773,-2.2617,-2.2571,-2.2707,-2.236,-2.2118,-2.1996,-2.221,-2.2756,-2.3621,-2.4441,-2.5039,-2.5527,-2.7654,-2.8761,-2.9129,-3.0658,-3.2193,-3.3572,0.0,-3.3563,-3.3859,-3.551,-3.6695,-3.7734,-3.9512,-4.0605,-4.1328,-4.2109,-4.1875,-4.1094,-4.0244,-3.9438,-3.8263,-3.5404,-3.4082,-3.314,-3.1202,-3.0173,-2.9804,-3.0508,0.0,-2.9952,0.0,0.0,0.0,0.0,0.0,0.0,0.0,0.0,0.0,0.0,0.0,0.0,0.0,0.0,0.0,0.0,0.0,0.0,0.0,-3.4933,-3.5517,-3.6933,-3.7187,-3.7598,-3.8301,-3.9336,-3.9902,-3.9902,-4.0504,-4.083,-4.0831,-4.1335,-4.1662,-4.1835,-4.3181,-4.3989,-4.4316,-4.5028,-4.5432,-4.5586,-4.5586,-4.5586,-4.5586,-4.5586,-4.5586,-4.574,-4.7278,-4.7875,-4.8086,-4.9798,-5.0452,-5.0471,-2.0314,-2.0372,-2.0398,-2.0405,-2.0997,-2.1442,-2.1349,-2.1235,-2.0919,-2.0192,-2.2077,-2.3563,-2.3774,-2.5001,-2.6725,-2.8983,-2.6429,-2.5264,-2.6635,-2.5333,-2.4521,-2.453,-2.3712,-2.366,-2.4496,-2.2936,-2.207,-2.1996,-2.2784,-2.3547,-2.4296,-2.5237,-2.6124,-2.6994,-2.8158,-2.9125,-2.9931,-3.0957,-3.2027,0.0,-3.4649,-3.517,0.0,-3.6241,-3.7272,-3.8437,-4.0351,-4.1113,-4.1308,0.0,-4.2246,-4.1969,0.0,-4.063,-3.9875,-3.5661,-3.4432,-3.3899,-3.1316,-3.0543,0.0,0.0,-3.0552,0.0,0.0,0.0,-3.2099,-3.2931,0.0,0.0,0.0,0.0,0.0,0.0,0.0,0.0,0.0,0.0,0.0,0.0,0.0,0.0,0.0,0.0,-3.587,-3.6131,-3.6816,-3.7285,-3.7441,-3.9004,-3.9902,-3.9902,-4.0605,-4.0972,-4.0981,-4.0889,-4.1197,-4.1979,-4.2063,-4.2854,-4.4297,-4.4393,-4.4874,-4.5586,-4.5586,-4.5586,-4.5586,-4.5586,-4.5586,-4.5701,-4.6663,-4.7048,-4.724,-4.8933,-4.9548,-4.9663,-2.0313,-2.0325,-2.0499,-2.0959,-2.1314,-2.1502,-2.1356,-2.0823,-2.0464,-2.0547,-2.1088,-2.1839,-2.2786,-2.3366,-2.4746,-2.7407,-2.6242,-2.607,0.0,-2.6782,-2.5853,-2.5239,-2.4905,-2.4696,-2.4631,-2.3843,-2.3425,-2.3392,-2.3725,-2.43,-2.5115,-2.6023,-2.6708,-2.7257,-2.8716,-2.9572,-3.0098,-3.1616,-3.2716,0.0,0.0,0.0,0.0,-3.7897,-3.915,-4.0098,-4.0918,-4.1504,-4.1933,0.0,-4.2646,0.0,0.0,0.0,0.0,-3.7534,-3.5659,-3.4032,-3.1884,-3.1304,0.0,0.0,0.0,0.0,-3.1848,0.0,-3.13,0.0,0.0,0.0,0.0,0.0,0.0,0.0,-3.0687,0.0,0.0,0.0,0.0,0.0,0.0,0.0,0.0,0.0,0.0,0.0,0.0,-3.6523,-3.6543,-3.8203,-3.9141,-3.9141,-4.0351,-4.1004,-4.1007,-4.0809,-4.088,-4.1251,-4.1623,-4.2431,-4.3624,-4.4085,-4.4778,-4.5586,-4.5586,-4.5586,-4.5586,-4.5586,-4.5586,-4.5624,-4.599,-4.6451,-4.7048,-4.8221,-4.8971,-4.9452,-2.1017,-2.0817,-2.0911,-2.1713,-2.2043,-2.2067,-2.1649,-2.0769,-2.0308,-2.0832,-2.0955,-2.1512,-2.2865,-2.4209,-2.6068,-2.877,-2.8787,-2.928,0.0,-2.9152,-2.773,-2.6802,-2.6024,-2.5522,-2.5305,-2.4705,-2.4505,-2.469,-2.4672,-2.5208,-2.6262,-2.6934,-2.755,-2.8218,-2.9583,-3.0478,-3.1121,0.0,-3.375,-3.4718,-3.6484,-3.7425,-3.7947,-3.93,-4.0389,-4.123,-4.1445,-4.1894,-4.2461,-4.291,-4.344,0.0,-4.3912,0.0,-4.1388,-3.9257,-3.7288,-3.5357,-3.3354,0.0,0.0,0.0,0.0,0.0,0.0,0.0,0.0,0.0,0.0,0.0,0.0,0.0,-2.9218,-2.9455,0.0,-3.0292,0.0,0.0,0.0,0.0,0.0,0.0,0.0,0.0,0.0,0.0,-3.5359,-3.5876,-3.5664,-3.7305,-3.8242,-3.8242,-3.9844,-4.0703,-4.0703,-4.0755,-4.078,-4.0793,-4.1524,-4.2332,-4.3214,-4.4025,-4.4891,-4.568,-4.568,-4.568,-4.568,-4.5643,-4.5643,-4.5643,-4.5605,-4.599,-4.6644,-4.7471,-4.8317,-4.9086,-2.283,-2.2146,-2.1821,-2.2623,-2.346,-2.3696,-2.2707,-2.1654,-2.0948,-2.0921,-2.2862,-2.4584,-2.5473,-3.021,-3.4344,-3.6915,0.0,-3.6646,-3.7345,0.0,-3.0532,-2.9985,-2.7025,-2.6024,-2.7282,-2.5402,-2.4746,-2.5466,-2.5523,-2.6373,-2.792,-2.8027,-2.8964,-3.0615,-3.0979,-3.207,-3.3596,-3.3908,-3.5114,-3.688,-3.7792,-3.9319,-4.0941,0.0,-4.0261,-4.1308,-4.207,0.0,0.0,-4.4199,-4.4785,0.0,0.0,0.0,0.0,0.0,0.0,0.0,0.0,0.0,0.0,-3.4327,0.0,0.0,0.0,0.0,-3.2802,0.0,0.0,0.0,0.0,-2.9354,-2.8511,-2.9364,-2.8821,0.0,0.0,0.0,0.0,0.0,0.0,0.0,0.0,0.0,0.0,-3.3495,-3.4967,-3.5563,-3.4784,-3.6387,-3.7344,-3.7344,-3.9023,-3.9941,-3.9941,-4.0644,-4.0998,-4.0985,-4.1748,-4.2553,-4.3416,-4.4306,-4.512,-4.5892,-4.5892,-4.5892,-4.5892,-4.5815,-4.5796,-4.5776,-4.5643,-4.5605,-4.574,-4.6624,-4.7451,-4.8259,-2.4377,-2.4328,-2.4082,-2.3785,-2.3976,-2.3989,0.0,-2.2969,0.0,0.0,-2.7015,0.0,0.0,-3.4112,-3.6274,0.0,0.0,-3.7823,-3.9202,-3.5022,0.0,-3.3124,-2.9109,-2.7461,-2.876,-2.6897,-2.6036,-2.6293,-2.6371,-2.6945,-2.7996,-2.8064,-2.902,-3.0706,-3.1054,-3.1836,0.0,0.0,0.0,0.0,0.0,-4.0578,-4.2623,0.0,0.0,-4.2089,-4.2802,-4.3528,0.0,-4.4648,-4.5133,-4.5556,-4.5552,-4.468,-4.341,-4.2233,-4.0693,0.0,0.0,0.0,-3.8358,-3.6348,0.0,0.0,0.0,0.0,0.0,0.0,0.0,0.0,0.0,-2.9115,-2.9023,-2.8743,-2.8947,-2.8937,0.0,0.0,0.0,0.0,0.0,0.0,0.0,0.0,0.0,-3.2637,-3.4153,-3.4986,0.0,-3.6348,-3.7305,-3.7305,-3.8984,-3.9902,-3.9902,-4.0625,-4.1008,-4.1003,-4.1148,-4.1994,-4.3412,-4.3712,-4.4594,-4.5891,-4.5854,-4.5827,-4.5833,-4.5709,-4.568,-4.5643,-4.5605,-4.5586,-4.5701,-4.6586,-4.7413,-4.8317,-2.6081,-2.6292,-2.6103,-2.5243,0.0,0.0,0.0,0.0,0.0,0.0,-2.9754,0.0,-3.6008,0.0,-3.9032,0.0,-4.092,-4.073,-4.0501,-3.7794,0.0,-3.523,-3.1946,-3.0445,-3.105,-2.8838,-2.7653,-2.7651,-2.735,-2.7775,-2.8892,-2.8977,-2.9975,-3.1667,-3.1902,-3.2536,-3.3527,-3.52,-3.6133,0.0,0.0,-4.1189,0.0,0.0,-4.2718,-4.2857,0.0,-4.4121,-4.4507,-4.5024,-4.5515,-4.5911,-4.5962,-4.5103,-4.3946,-4.3333,-4.2178,-4.095,-4.0354,-4.0793,0.0,-3.9008,-3.9388,0.0,-3.6991,0.0,0.0,0.0,0.0,0.0,0.0,-2.9464,-2.8686,-2.8749,-2.8447,-2.8028,0.0,-2.7632,0.0,0.0,0.0,0.0,0.0,0.0,-3.1406,-3.1719,-3.3008,-3.3906,0.0,0.0,-3.6523,-3.6836,-3.8196,-3.9091,-3.9434,-4.0176,-4.0693,-4.0998,-4.1226,-4.2073,-4.3416,-4.3728,-4.4604,-4.5899,-4.5862,-4.5871,-4.5877,-4.5728,-4.568,-4.568,-4.5605,-4.5586,-4.5701,-4.6586,-4.7605,-4.8779,0.0,-2.7952,0.0,0.0,-2.6015,0.0,0.0,0.0,-2.6755,0.0,-3.1542,-3.3126,-3.7408,-4.0938,-4.3005,-4.3005,-4.5477,-4.5477,-4.1854,-4.1512,0.0,0.0,-3.5515,-3.4659,-3.4098,-3.1166,-2.9605,-2.953,-2.8558,-2.8956,-3.0568,-3.0714,-3.1699,-3.3402,-3.3486,-3.4093,-3.5162,-3.6102,-3.7218,-3.8535,-4.043,-4.1282,-4.1532,-4.2869,-4.344,-4.3631,-4.4439,-4.4228,-4.3775,-4.5362,-4.59,-4.5881,-4.5831,-4.5796,-4.5449,-4.372,-4.3778,-4.4028,-4.2431,-4.2598,-4.2999,-4.2124,0.0,0.0,0.0,0.0,-3.772,0.0,0.0,0.0,0.0,0.0,-2.7785,-2.9295,-2.7373,-2.5707,-2.5707,-2.641,-2.6939,0.0,0.0,0.0,0.0,-2.9568,-2.9941,-3.0762,-3.1621,-3.248,0.0,0.0,-3.5098,-3.5976,-3.6789,-3.7637,-3.8572,-3.9336,-4.0131,-4.1007,-4.184,-4.2634,-4.3374,-4.4199,-4.5045,-4.5842,-4.5822,-4.5925,-4.6065,-4.5873,-4.5796,-4.5776,-4.5643,-4.5643,-4.5817,-4.6644,-4.8029,-4.9586,-2.8708,-2.876,-2.8559,0.0,-2.7354,-2.7159,0.0,0.0,0.0,0.0,-4.0215,-4.3671,-4.6876,-4.8048,-4.8625,-4.8625,-4.8721,0.0,0.0,0.0,0.0,-4.3136,-3.8879,-3.6577,-3.6719,-3.4393,-3.2566,-3.125,-3.0887,-3.0987,-3.1467,-3.1551,-3.22,-3.332,-3.3466,-3.4074,-3.5091,-3.6086,-3.7565,-3.9388,-4.0674,-4.2266,0.0,0.0,-4.4148,-4.5201,-4.5317,-4.5321,-4.5315,-4.57,-4.5843,-4.5827,-4.5811,-4.5738,-4.5547,-4.5086,-4.5086,-4.5163,-4.4739,-4.4795,-4.4737,-4.3891,-4.3679,-4.3008,0.0,0.0,0.0,0.0,0.0,0.0,0.0,0.0,-3.0935,-2.8886,-2.694,-2.5697,-2.5694,-2.5886,0.0,-2.6039,0.0,0.0,-2.8539,-2.9216,-2.9687,-2.9915,-3.1282,0.0,0.0,0.0,0.0,-3.5976,-3.6821,-3.765,-3.8435,-3.9373,-4.0249,-4.0992,-4.1226,-4.1774,-4.2588,-4.27,-4.3593,-4.4997,-4.4897,-4.524,-4.5873,-4.5719,-4.5643,-4.5643,-4.5605,-4.6355,-4.749,-4.7721,-4.8875,-5.0394,-2.9483,0.0,0.0,-2.9987,0.0,0.0,-3.1124,0.0,0.0,-4.0095,-4.2833,0.0,-4.8606,-4.999,-5.0702,-5.0702,-5.024,0.0,-4.7605,0.0,0.0,-4.4212,-4.1667,-3.9814,-3.8942,-3.692,-3.479,-3.2597,-3.2051,-3.1976,-3.2321,-3.2434,-3.297,-3.3886,-3.3972,-3.4585,-3.5681,-3.7182,-3.8716,-4.0174,-4.0857,0.0,0.0,-4.3477,-4.4163,-4.5262,-4.5586,-4.5488,-4.5276,-4.5661,-4.5757,-4.5719,-4.5776,-4.5719,-4.5528,-4.5143,-4.5297,-4.5509,-4.5143,-4.5297,-4.547,-4.4987,-4.4872,-4.4297,-4.2129,-4.1674,-4.108,0.0,0.0,0.0,0.0,0.0,0.0,-2.8213,-2.6885,-2.6146,-2.5759,-2.5694,0.0,0.0,-2.6122,0.0,-2.7114,-2.8294,-2.902,-2.9038,-2.9913,0.0,0.0,0.0,0.0,-3.4844,-3.6758,-3.8004,-3.8488,-3.976,-4.0582,-4.0996,-4.0941,-4.1351,-4.2152,-4.2027,-4.2896,-4.4511,-4.4451,-4.491,-4.5719,-4.5624,-4.5586,-4.5624,-4.6009,-4.6951,-4.8144,-4.8529,-4.9529,-5.0702,0.0,0.0,0.0,0.0,0.0,0.0,0.0,-3.4816,0.0,-4.268,0.0,-4.4154,-4.705,-4.9375,-5.0702,-5.0702,0.0,-4.9277,-4.5963,-4.7222,-4.6609,-4.3287,-4.4,-4.3278,-4.0719,-3.8872,-3.6634,-3.4017,-3.2953,-3.2798,-3.3496,-3.3542,-3.3989,-3.4752,-3.4703,-3.536,-3.6613,-3.8623,-3.9978,-4.0807,-4.1049,-4.1674,-4.2537,-4.3261,-4.4008,-4.478,-4.5509,-4.522,-4.4624,-4.5488,-4.5717,-4.5637,-4.5738,-4.5699,-4.5451,-4.4682,-4.5009,-4.5432,-4.4682,-4.5009,-4.5586,-4.5586,-4.5586,-4.5182,-4.3624,-4.3256,-4.2791,-4.1178,-3.9648,-3.8794,0.0,0.0,0.0,-2.8162,-2.7768,0.0,0.0,0.0,0.0,0.0,0.0,0.0,0.0,-2.7175,-2.8136,-2.8124,0.0,0.0,0.0,0.0,0.0,-3.3535,-3.6504,0.0,-3.873,0.0,-4.0846,-4.116,-4.0922,-4.1158,-4.1844,-4.1697,-4.2547,-4.4143,-4.4143,-4.4701,-4.5586,-4.5586,-4.5586,-4.5682,-4.6432,-4.7298,-4.8202,-4.8952,-4.9856,-5.0702,0.0,0.0,0.0,0.0,0.0,-3.8665,-4.2123,-4.4614,-4.634,-4.7012,-4.947,-5.1105,-5.1009,-5.0818,-5.0702,-5.0702,-5.0702,0.0,0.0,0.0,0.0,-4.7127,-4.5991,-4.4182,-4.1623,-4.0326,-3.8709,-3.6805,-3.5671,-3.5487,-3.6211,-3.5628,-3.5413,-3.5492,-3.4945,-3.574,-3.7543,-3.8802,0.0,-4.0801,-4.1587,-4.2441,-4.328,-4.403,-4.4818,-4.5566,-4.5605,-4.5603,-4.5565,-4.5605,-4.5692,-4.5744,-4.5671,-4.5605,-4.5566,-4.5413,-4.547,-4.5566,-4.5413,-4.547,-4.5586,-4.5586,-4.5586,-4.5336,-4.4318,-4.4088,-4.3818,-4.2838,-4.1851,-4.0819,-3.9723,0.0,0.0,0.0,0.0,0.0,0.0,0.0,0.0,0.0,0.0,-2.8066,0.0,0.0,0.0,0.0,0.0,0.0,0.0,0.0,0.0,0.0,0.0,0.0,0.0,0.0,-4.0045,-4.206,-4.1218,-4.0867,-4.0985,-4.0812,-4.1662,-4.3316,-4.3316,-4.4182,-4.5586,-4.5586,-4.5586,-4.5605,-4.5759,-4.6759,-4.8125,-4.8279,-4.9336,-5.0702,0.0,0.0,0.0,0.0,0.0,0.0,0.0,-5.0451,0.0,-4.968,-5.0528,-5.1183,-5.0798,-5.1222,-5.1511,-5.1414,-5.1049,-5.0567,-5.0048,-4.924,-4.8394,-4.7528,-4.6701,-4.5086,-4.2527,-4.1485,-4.0023,-3.8136,-3.716,-3.6531,-3.6272,-3.5951,-3.5544,-3.5094,-3.5826,-3.6938,0.0,0.0,0.0,-4.1368,-4.1841,-4.2816,-4.4011,-4.4355,-4.4989,-4.5699,-4.5699,-4.5757,-4.5811,-4.5761,-4.5717,-4.5688,-4.5734,-4.568,-4.5586,-4.5586,-4.5586,-4.5586,-4.5586,-4.5586,-4.5586,-4.5586,-4.5586,-4.549,-4.5068,-4.4972,-4.4741,-4.3915,-4.3395,-4.2362,-3.9937,-3.7218,0.0,0.0,0.0,0.0,0.0,0.0,-3.1523,0.0,0.0,0.0,0.0,0.0,0.0,0.0,0.0,0.0,0.0,0.0,0.0,0.0,0.0,0.0,0.0,0.0,0.0,-4.1719,-4.1169,-4.0879,-4.0812,-4.1123,-4.1931,-4.3124,-4.3547,-4.4432,-4.5586,-4.5586,-4.5586,-4.5624,-4.6105,-4.6778,-4.7586,-4.8452,-4.9317,-5.0087,0.0,-3.4867,0.0,0.0,-4.3656,0.0,-5.0144,-5.3549,-5.4759,-5.216,-5.1163,-5.0721,-5.0793,-5.185,-5.2449,-5.2124,-5.1529,-5.0741,-4.974,-4.9336,-4.8529,-4.7221,-4.6817,-4.5605,-4.3393,-4.2335,-4.0971,0.0,0.0,-3.7345,-3.6555,-3.641,-3.5889,-3.5168,0.0,0.0,0.0,0.0,-4.1061,-4.1903,-4.2146,-4.3143,-4.4472,-4.466,-4.5084,-4.5605,-4.5719,-4.5757,-4.577,-4.5859,-4.5769,-4.568,-4.5796,-4.5738,-4.5586,-4.5586,-4.5586,-4.5586,-4.5586,-4.5605,-4.5624,-4.5605,-4.5605,-4.5624,-4.5624,-4.5605,-4.5413,-4.4761,-4.4339,-4.3158,-4.0116,-3.82,0.0,0.0,0.0,0.0,0.0,0.0,0.0,0.0,0.0,0.0,-2.8914,0.0,0.0,0.0,0.0,-2.7315,-2.849,-2.9713,0.0,0.0,0.0,-3.8008,-3.8574,0.0,-4.1094,0.0,-4.1129,-4.1,-4.1103,-4.169,-4.247,-4.3393,-4.4028,-4.4778,-4.5586,-4.5586,-4.5586,-4.5663,-4.6355,-4.674,-4.7086,-4.8567,-4.924,-4.951,0.0,0.0,0.0,0.0,0.0,0.0,0.0,-5.3509,-5.5626,-5.5434,-5.4724,-5.4263,-5.44,-5.3844,-5.3122,-5.2175,-5.2022,-5.1588,-5.0625,-4.9106,-4.8144,-4.799,-4.6528,-4.524,-4.4201,-4.2624,-4.1654,0.0,0.0,-3.8911,-3.9312,-3.8461,-3.7694,0.0,0.0,0.0,0.0,-4.0051,-4.0946,-4.1876,-4.2681,-4.3528,-4.4393,-4.5201,-4.5528,-4.5586,-4.5605,-4.5605,-4.5642,-4.577,-4.5811,-4.5757,-4.5643,-4.5605,-4.5586,-4.5586,-4.5586,-4.5586,-4.5586,-4.5699,-4.5757,-4.5624,-4.5699,-4.5776,-4.5776,-4.5699,-4.5605,-4.5643,-4.4493,-4.2722,-4.0148,-4.0258,-4.0172,0.0,0.0,0.0,0.0,0.0,-3.7988,-3.4726,0.0,0.0,0.0,-3.0506,0.0,0.0,-2.7721,-2.7557,-2.9283,-2.9371,-3.0529,-3.3106,0.0,-3.6055,-3.8496,-3.9512,0.0,-4.2285,-4.1286,-4.1229,-4.1966,-4.187,-4.2701,-4.4182,-4.4259,-4.4778,-4.5586,-4.5586,-4.5586,-4.5605,-4.5682,-4.6201,-4.7009,-4.7894,-4.8721,-4.951,0.0,0.0,0.0,0.0,0.0,0.0,0.0,-5.4818,-5.5742,-5.5876,-5.5634,-5.552,-5.5767,-5.4556,-5.3557,-5.3152,-5.2167,-5.1376,-5.0972,-4.9721,-4.8778,-4.8239,-4.7028,-4.597,-4.5086,-4.3912,-4.2979,0.0,0.0,0.0,0.0,0.0,0.0,0.0,0.0,-3.9966,-4.1412,-4.1846,-4.2514,-4.3335,-4.3682,-4.4335,-4.5124,-4.547,-4.5586,-4.5586,-4.5586,-4.5643,-4.5719,-4.5699,-4.568,-4.568,-4.5719,-4.5643,-4.5586,-4.5586,-4.5586,-4.5605,-4.5699,-4.5757,-4.5789,-4.5777,-4.5819,-4.5853,-4.5853,-4.5793,-4.5757,-4.5849,-4.4991,-4.3794,-4.2309,-4.1156,-4.0351,0.0,0.0,0.0,0.0,0.0,0.0,-3.6484,0.0,-3.3515,0.0,0.0,0.0,0.0,0.0,-2.9004,-2.8683,-3.0559,-3.2172,-3.3276,0.0,-3.7201,-3.9316,-3.9707,-4.0508,-4.1679,-4.1166,-4.1319,-4.2105,-4.2495,-4.3528,-4.5066,-4.5066,-4.5278,-4.5586,-4.5586,-4.5586,-4.5586,-4.5586,-4.5797,-4.6278,-4.7605,-4.8317,-4.8817,-4.6857,0.0,-4.8254,0.0,-5.2022,-5.2852,-5.5318,-5.5703,-5.5722,-5.5818,-5.5845,-5.5966,-5.6296,-5.528,-5.4331,-5.3786,-5.2638,-5.1717,-5.1148,-4.9953,-4.8977,-4.8315,-4.72,0.0,-4.5605,-4.4739,-4.3955,-4.3234,-4.2891,0.0,0.0,0.0,0.0,0.0,-4.0785,-4.1529,-4.2981,-4.3052,-4.3566,-4.4297,-4.4297,-4.4836,-4.5643,-4.5643,-4.568,-4.5699,-4.5699,-4.5757,-4.5813,-4.5715,-4.5684,-4.5699,-4.5738,-4.5699,-4.5643,-4.5605,-4.5624,-4.568,-4.5776,-4.5834,-4.5896,-4.5901,-4.5932,-4.595,-4.5911,-4.5849,-4.5828,-4.5887,-4.5302,-4.4539,-4.3782,-4.1992,-4.0762,-4.1133,0.0,0.0,0.0,0.0,0.0,-3.7079,-3.5064,-3.3779,-3.3789,-3.2441,0.0,0.0,0.0,0.0,-2.9725,-3.1942,0.0,0.0,0.0,0.0,0.0,-4.0016,-4.0584,-4.1192,-4.1286,-4.1731,-4.2511,-4.3472,-4.4528,-4.5586,-4.5586,-4.5586,-4.5586,-4.5586,-4.574,-4.597,-4.597,-4.6124,-4.6509,-4.7952,-4.849,-4.8682,-5.051,-5.1457,-5.2642,-5.5203,-5.5645,-5.5645,-5.5684,-5.5703,-5.5703,-5.5703,-5.5684,-5.584,-5.6169,-5.6288,-5.5625,-5.3764,-5.3705,-5.3009,-5.122,-4.9479,-4.8463,0.0,0.0,-4.5757,-4.5586,-4.4739,-4.4297,-4.4278,0.0,0.0,-4.2737,0.0,-4.1799,-4.2737,-4.1951,-4.2157,-4.3104,-4.3104,-4.3566,-4.4297,-4.4297,-4.4893,-4.5796,-4.5796,-4.5834,-4.5911,-4.5911,-4.5911,-4.5902,-4.5908,-4.5899,-4.5853,-4.5643,-4.5699,-4.5776,-4.5624,-4.5699,-4.5796,-4.5796,-4.595,-4.605,-4.5939,-4.599,-4.6065,-4.593,-4.5849,-4.5828,-4.59,-4.5267,-4.4494,-4.3824,-4.2969,-4.2109,-4.1328,0.0,0.0,0.0,0.0,0.0,-3.6327,-3.5228,-3.4684,-3.4687,0.0,0.0,0.0,0.0,0.0,0.0,0.0,0.0,-3.58,-3.6675,0.0,-3.852,-4.0294,-4.1189,-4.1216,-4.1799,-4.254,-4.3429,-4.4893,-4.5566,-4.5586,-4.5586,-4.5586,-4.5586,-4.5586,-4.6105,-4.6894,-4.6894,-4.7375,-4.8182,-4.9067,-4.9375,-4.951,-5.4062,-5.4367,-5.4739,-5.5549,-5.6184,-5.6376,-5.578,-5.6703,-5.7049,-5.5857,-5.6222,-5.6395,-5.5895,-5.5492,-5.4828,0.0,-5.3229,-5.2459,0.0,-5.0195,-4.9497,-4.9463,-4.7721,-4.6698,-4.6621,-4.5776,-4.4989,-4.4297,0.0,0.0,0.0,-4.3427,-4.3464,-4.3822,-4.3553,-4.3955,-4.4797,-4.4797,-4.4951,-4.5182,-4.5278,-4.5526,-4.5811,-4.5848,-4.5894,-4.5914,-4.5914,-4.5955,-4.6018,-4.5928,-4.6028,-4.6116,-4.588,-4.5824,-4.5853,-4.5815,-4.5834,-4.5892,-4.5988,-4.6046,-4.6109,-4.6167,-4.6191,-4.6232,-4.6179,-4.6152,-4.6098,-4.5931,-4.5838,-4.536,-4.3964,-4.3476,-4.2832,-4.1426,-4.1191,0.0,0.0,0.0,-3.8925,-3.87,-3.7366,-3.6469,0.0,-3.6218,0.0,0.0,0.0,0.0,0.0,0.0,0.0,0.0,-3.8238,0.0,-4.0333,-4.0914,-4.1482,-4.2012,-4.2167,-4.2915,-4.4179,-4.5161,-4.5586,-4.5586,-4.5586,-4.5586,-4.5586,-4.5586,-4.6105,-4.6913,-4.6913,-4.7394,-4.8221,-4.9086,-4.9279,-4.9279,-5.547,-5.5599,-5.5703,-5.5703,-5.6145,-5.6319,-5.578,-5.6626,-5.6934,-5.5838,-5.6165,-5.6299,-5.5761,-5.5338,0.0,-5.4186,-5.3439,-5.2793,-5.2324,-5.0898,-5.0195,-5.0488,-4.8743,-4.7694,-4.7558,0.0,0.0,-4.5278,-4.5417,-4.5207,-4.4727,-4.4727,-4.4744,-4.4778,-4.4778,-4.5086,-4.5586,-4.5586,-4.5586,-4.5605,-4.5699,-4.575,-4.58,-4.5861,-4.5928,-4.5986,-4.6025,-4.6096,-4.6171,-4.6075,-4.6154,-4.6268,-4.6095,-4.6056,-4.6042,-4.5924,-4.5947,-4.5988,-4.6084,-4.6148,-4.6201,-4.6282,-4.6308,-4.628,-4.6231,-4.6192,-4.6123,-4.6007,-4.6116,-4.5816,-4.4432,-4.3926,-4.3242,-4.1875,-4.1406,-4.0976,-4.0312,0.0,0.0,0.0,0.0,0.0,0.0,-3.6986,0.0,0.0,0.0,0.0,0.0,0.0,0.0,-3.8675,-4.0081,0.0,-4.2129,-4.2148,-4.2383,-4.2891,-4.3128,-4.3853,-4.5007,-4.5468,-4.568,-4.568,-4.568,-4.5699,-4.5719,-4.5699,-4.6373,-4.7412,-4.7144,-4.7875,-4.9144,-4.9683,-4.9779,-4.974,-5.5134,-5.5446,0.0,0.0,-5.5742,0.0,-5.5703,-5.5799,-5.5838,-5.5722,-5.5742,-5.5761,-5.5703,-5.5703,-5.5453,-5.4816,0.0,0.0,0.0,-5.1641,-5.0683,-5.1367,-4.9726,-4.8677,-4.8419,-4.7565,-4.7008,-4.6817,-4.599,-4.5586,-4.5586,-4.5586,-4.5586,-4.5586,-4.5586,-4.5586,-4.5586,-4.5586,-4.5586,-4.5586,-4.5605,-4.5692,-4.5801,-4.5862,-4.5981,-4.6093,-4.623,-4.6289,-4.6287,-4.63,-4.6303,-4.6307,-4.6294,-4.6303,-4.6247,-4.5995,-4.6026,-4.6108,-4.6108,-4.6188,-4.6308,-4.6308,-4.6308,-4.6269,-4.6133,-4.6013,-4.596,-4.6082,-4.6116,-4.5887,-4.5147,-4.4297,-4.3418,-4.2539,-4.1719,-4.0625,-3.9004,0.0,0.0,0.0,0.0,0.0,0.0,-3.6696,-3.6511,0.0,0.0,0.0,0.0,0.0,-3.8573,-4.1191,-4.207,-4.2871,-4.3691,-4.3691,-4.373,-4.3808,-4.4531,-4.522,-4.5822,-4.5794,-4.5815,-4.5815,-4.5811,-4.5847,-4.5905,-4.5905,-4.6812,-4.8161,-4.7643,-4.874,-5.0625,-5.0683,-5.0702,-5.0702,0.0,0.0,-5.5703,-5.5703,-5.6242,-5.6472,-5.5799,-5.6838,-5.7203,-5.5876,-5.628,-5.6434,-5.5761,-5.5703,-5.5645,-5.5491,-5.4957,-5.4405,-5.3846,-5.2734,-5.2187,-5.2363,-5.0742,-4.9775,-4.96,-4.8105,-4.6915,-4.6047,-4.574,-4.5586,-4.5586,-4.5586,-4.5586,-4.5586,-4.5586,-4.5586,-4.5586,-4.5586,-4.5586,-4.5605,-4.5719,-4.5772,-4.5819,-4.587,-4.591,-4.5949,-4.6108,-4.6152,-4.6152,-4.6264,-4.6306,-4.6308,-4.6303,-4.6306,-4.6289,-4.6223,-4.6228,-4.6249,-4.6249,-4.6278,-4.6308,-4.6308,-4.6308,-4.6269,-4.6133,-4.6141,-4.619,-4.6101,-4.6182,-4.5991,-4.5156,-4.4297,-4.3418,-4.2539,-4.1719,-4.1055,-4.0644,-4.0019,0.0,0.0,-3.9199,-3.8828,-3.9232,-3.9073,-3.8758,0.0,0.0,0.0,0.0,-3.9674,-4.0091,-4.2051,-4.2949,-4.3496,-4.3691,-4.3691,-4.4023,-4.4707,-4.5449,-4.5873,-4.603,-4.5918,-4.5873,-4.589,-4.588,-4.5889,-4.5947,-4.6599,-4.7094,-4.7563,-4.8411,-4.9208,-4.9915,-5.0488,-5.0702,-5.0702,-5.578,-5.5703,-5.5703,-5.5703,-5.6088,-5.6242,-5.5761,-5.6492,-5.6915,-5.6357,-5.6357,-5.6376,-5.6299,-5.5934,-5.5703,-5.5703,-5.5143,-5.4796,-5.4761,-5.3776,-5.3203,-5.3203,-5.2012,-5.1089,-5.0558,-4.9248,-4.788,-4.639,-4.5853,-4.5586,-4.5586,-4.5586,-4.5586,-4.5586,-4.5586,-4.5586,-4.5586,-4.5586,-4.5586,-4.5605,-4.568,-4.5719,-4.5719,-4.5815,-4.5847,-4.5866,-4.5959,-4.6001,-4.6027,-4.615,-4.6211,-4.6211,-4.6289,-4.6308,-4.6308,-4.6308,-4.6308,-4.6308,-4.6308,-4.6308,-4.6308,-4.6308,-4.6308,-4.6289,-4.6211,-4.625,-4.6282,-4.6216,-4.6245,-4.6152,-4.5683,-4.4551,-4.3555,-4.3066,-4.1973,-4.1055,-4.0664,-4.0195,0.0,-4.1094,-4.043,-4.0351,-4.1523,-4.1289,-4.082,-4.0312,0.0,0.0,-4.1664,-4.238,-4.3019,-4.3574,-4.4043,-4.4492,-4.4883,-4.4883,-4.5137,-4.5605,-4.5996,-4.6152,-4.6094,-4.6014,-4.6002,-4.5986,-4.5993,-4.6037,-4.6119,-4.6592,-4.7229,-4.7923,-4.8388,-4.9219,-5.0234,-5.064,-5.0741,-5.0702,-5.5722,-5.5703,-5.5703,-5.5703,-5.5703,-5.5703,-5.5703,-5.5703,-5.5972,-5.6703,-5.6145,-5.5972,-5.6703,-5.6126,-5.5703,-5.5703,-5.5162,-5.5152,-5.5843,-5.4707,-5.3935,-5.3808,-5.3086,-5.2246,-5.125,-5.0396,-4.9025,-4.712,-4.6219,-4.572,-4.5586,-4.5586,-4.5586,-4.5586,-4.5586,-4.5586,-4.5586,-4.5586,-4.5586,-4.5586,-4.5586,-4.5586,-4.5605,-4.5738,-4.5776,-4.5776,-4.5853,-4.5882,-4.59,-4.603,-4.6065,-4.609,-4.6207,-4.6249,-4.6269,-4.6269,-4.6289,-4.6308,-4.6308,-4.6308,-4.6308,-4.6308,-4.6308,-4.6308,-4.6308,-4.6308,-4.6308,-4.6308,-4.6308,-4.6308,-4.6308,-4.4883,-4.373,-4.3867,-4.2383,-4.0976,-4.0351,0.0,-4.0547,-4.1289,-4.084,-4.1328,-4.3496,-4.3027,-4.2656,-4.2773,-4.4043,-4.4264,0.0,-4.4977,-4.5825,-4.5215,-4.5195,-4.5547,-4.6289,-4.6308,-4.6308,-4.6308,-4.6308,-4.623,-4.6133,-4.6133,-4.6123,-4.6124,-4.6124,-4.6192,-4.6308,-4.6445,-4.7305,-4.8514,-4.8397,-4.9315,-5.0759,-5.0852,-5.0837,-5.0702,-5.5838,-5.5703,-5.5703,-5.5703,-5.5703,-5.5703,-5.5703,-5.5703,-5.5742,-5.5876,-5.578,-5.5742,-5.5876,-5.578,-5.5703,-5.5703,-5.5607,-5.5647,-5.5883,-5.5268,-5.4569,-5.3827,-5.3086,-5.2285,-5.1387,-5.0355,-4.8955,-4.7178,-4.6854,-4.6317,-4.5586,-4.5586,-4.5586,-4.5586,-4.5586,-4.5586,-4.5586,-4.5586,-4.5586,-4.5586,-4.5586,-4.5586,-4.5586,-4.5605,-4.5624,-4.5643,-4.5776,-4.5811,-4.5819,-4.5896,-4.5933,-4.5928,-4.5967,-4.6039,-4.6133,-4.6133,-4.6211,-4.6308,-4.6308,-4.6308,-4.6308,-4.6308,-4.6308,-4.6308,-4.6308,-4.6308,-4.6308,-4.6308,-4.6308,-4.6308,-4.6308,-4.4883,-4.3945,-4.4687,-4.2773,-4.1387,-4.1933,0.0,-4.2051,-4.2207,-4.2734,-4.3262,-4.3652,-4.3574,-4.3808,-4.4531,-4.416,-4.4433,-4.5621,-4.5384,-4.5484,-4.6074,-4.6094,-4.6152,-4.6308,-4.6308,-4.6308,-4.6308,-4.6308,-4.6289,-4.6269,-4.6269,-4.6268,-4.6273,-4.6273,-4.6282,-4.6367,-4.709,-4.7558,-4.7988,-5.0031,-5.0477,-5.0059,-5.0656,-5.0837,-5.0702,-5.5499,-5.5535,-5.564,-5.5423,-5.5554,-5.5703,-5.5703,-5.5703,-5.5857,-5.6338,-5.5992,-5.5876,-5.6338,-5.5972,-5.5703,-5.5703,-5.5703,-5.553,-5.5164,-5.5395,-5.5163,-5.4329,-5.3656,-5.2695,-5.1426,-5.0342,-4.9181,-4.7911,-4.7221,-4.6451,-4.5586,-4.5586,-4.5586,-4.5586,-4.5586,-4.5586,-4.5586,-4.5586,-4.5586,-4.5586,-4.5586,-4.5586,-4.5586,-4.5586,-4.5586,-4.5605,-4.568,-4.5699,-4.5719,-4.5815,-4.5851,-4.586,-4.5899,-4.5941,-4.5996,-4.5981,-4.6139,-4.6308,-4.6308,-4.6308,-4.6308,-4.6308,-4.6308,-4.6308,-4.6308,-4.6308,-4.6308,-4.6308,-4.6308,-4.6308,-4.6308,-4.5254,-4.4531,-4.4922,-4.3223,0.0,0.0,-4.2695,-4.2754,-4.3691,-4.373,-4.4062,-4.5019,-4.4687,-4.4766,-4.5625,-4.5332,-4.5449,-4.6269,-4.5918,-4.5879,-4.6289,-4.6308,-4.6308,-4.6308,-4.6308,-4.6308,-4.6308,-4.6308,-4.6308,-4.6308,-4.6308,-4.6308,-4.6308,-4.6308,-4.6562,-4.7031,-4.7598,-4.8281,-4.9121,-5.0293,-5.0676,-5.0595,-5.089,-5.0933,-5.0818,-5.5186,-5.5423,-5.5577,-5.516,-5.5423,-5.5703,-5.5703,-5.5703,-5.5934,-5.6607,-5.6107,-5.5953,-5.6607,-5.6088,-5.5703,-5.5703,-5.5703,-5.5357,-5.4549,-5.5164,-5.5133,-5.413,-5.3494,-5.2587,-5.1357,-5.0488,-4.9533,-4.8451,-4.7605,-4.6644,-4.5586,-4.5586,-4.5586,-4.5586,-4.5586,-4.5586,-4.5586,-4.5586,-4.5586,-4.5586,-4.5586,-4.5586,-4.5586,-4.5586,-4.5586,-4.5586,-4.5586,-4.5586,-4.5605,-4.5719,-4.5757,-4.5757,-4.5815,-4.5853,-4.5883,-4.5879,-4.6018,-4.6218,-4.6217,-4.6202,-4.6202,-4.6202,-4.6202,-4.6202,-4.6202,-4.6229,-4.625,-4.625,-4.6289,-4.6308,-4.6308,-4.5586,-4.5078,-4.5273,0.0,0.0,0.0,-4.3437,-4.3496,-4.4844,-4.459,-4.4824,-4.6172,-4.5683,-4.5564,-4.6214,-4.6284,-4.6289,-4.6269,-4.6289,-4.6308,-4.6308,-4.6308,-4.6308,-4.6308,-4.6308,-4.6308,-4.6308,-4.6308,-4.6406,-4.6601,-4.6601,-4.6719,-4.6894,-4.6894,-4.7285,-4.793,-4.8125,-4.9004,-5.0195,-5.0195,-5.0603,-5.1167,-5.1114,-5.1008,-5.0856,-5.5186,-5.5423,-5.5577,-5.516,-5.5423,-5.5703,-5.5703,-5.5703,-5.5722,-5.578,-5.5742,-5.5722,-5.578,-5.5742,-5.5703,-5.5703,-5.5703,-5.5357,-5.4549,-5.4549,-5.3914,-5.2355,-5.1645,-5.1239,-5.1122,-5.0921,-5.0009,-4.8315,-4.8105,-4.7182,-4.5586,-4.5586,-4.5586,-4.5586,-4.5586,-4.5586,-4.5586,-4.5586,-4.5586,-4.5586,-4.5586,-4.5586,-4.5586,-4.5586,-4.5586,-4.5586,-4.5586,-4.5586,-4.5586,-4.5605,-4.5605,-4.5605,-4.5605,-4.5719,-4.5815,-4.5811,-4.5863,-4.5935,-4.592,-4.5924,-4.5924,-4.5924,-4.5924,-4.5924,-4.5924,-4.6039,-4.6113,-4.6113,-4.6211,-4.6308,-4.6308,-4.5586,-4.5254,-4.6074,0.0,0.0,-4.4785,-4.4844,-4.4863,-4.498,-4.5664,-4.6152,-4.6289,-4.623,-4.6186,-4.6132,-4.6222,-4.625,-4.6113,-4.623,-4.6308,-4.6308,-4.6308,-4.6308,-4.6308,-4.6308,-4.6308,-4.6308,-4.6308,-4.6719,-4.75,-4.75,-4.7949,-4.8711,-4.8711,-4.873,-4.8808,-4.8828,-4.9375,-5.0195,-5.0195,-5.0578,-5.1113,-5.1093,-5.0942,-5.0702,-5.4809,-5.4848,-5.4819,-5.435,-5.4652,-5.4952,-5.4952,-5.516,-5.5331,-5.5331,-5.5554,-5.5703,-5.5703,-5.5703,-5.5491,-5.4991,-5.4953,-5.4376,-5.2991,-5.2895,-5.2664,-5.2124,-5.1852,-5.1528,-5.1119,-5.0429,-4.949,-4.8296,-4.7681,-4.6759,-4.5586,-4.5586,-4.5586,-4.5586,-4.5586,-4.5586,-4.5586,-4.5586,-4.5586,-4.5586,-4.5586,-4.5586,-4.5586,-4.5586,-4.5586,-4.5586,-4.5586,-4.5586,-4.5586,-4.5586,-4.5586,-4.5586,-4.5586,-4.5624,-4.568,-4.568,-4.5699,-4.5714,-4.5718,-4.5819,-4.5896,-4.5896,-4.5896,-4.5896,-4.5896,-4.6002,-4.6093,-4.6108,-4.6211,-4.6308,-4.6308,-4.6035,-4.5918,-4.625,0.0,-4.4805,-4.5683,-4.5332,-4.5195,-4.5742,-4.6094,-4.6308,-4.6308,-4.6307,-4.6242,-4.6119,-4.6164,-4.6114,-4.5981,-4.6104,-4.6465,-4.709,-4.6582,-4.6308,-4.6308,-4.6836,-4.7109,-4.7109,-4.7656,-4.8086,-4.8418,-4.8418,-4.8379,-4.834,-4.834,-4.873,-4.9394,-4.9394,-5.0019,-5.0937,-5.0937,-5.1025,-5.1157,-5.1119,-5.1292,-5.1471,-5.4387,-5.4406,-5.4355,-5.3869,-5.4187,-5.4503,-5.4503,-5.4731,-5.4924,-5.4924,-5.516,-5.5331,-5.5331,-5.5331,-5.503,-5.4338,-5.4284,-5.3596,-5.199,-5.1664,-5.1568,-5.1664,-5.1664,-5.1452,-5.0991,-5.0298,-4.9509,-4.8643,-4.799,-4.7105,-4.6009,-4.6009,-4.5855,-4.5586,-4.5586,-4.5586,-4.5586,-4.5586,-4.5586,-4.5586,-4.5586,-4.5586,-4.5586,-4.5586,-4.5586,-4.5586,-4.5586,-4.5586,-4.5586,-4.5586,-4.5586,-4.5586,-4.5586,-4.5586,-4.5586,-4.5586,-4.5778,-4.5951,-4.5663,-4.5893,-4.6161,-4.5873,-4.5815,-4.5815,-4.5815,-4.5911,-4.6008,-4.6,-4.6108,-4.6175,-4.6175,-4.6175,-4.6175,-4.6175,-4.5719,-4.5546,-4.61,-4.5699,-4.5547,-4.6113,-4.6166,-4.6163,-4.6167,-4.6169,-4.6136,-4.6025,-4.6026,-4.6121,-4.6298,-4.6444,-4.6953,-4.791,-4.7402,-4.7129,-4.7129,-4.7441,-4.7734,-4.8027,-4.8613,-4.9043,-4.9316,-4.9316,-4.9219,-4.9062,-4.9062,-4.9512,-5.0234,-5.0234,-5.0683,-5.1406,-5.1347,-5.1268,-5.1151,-5.1067,-5.1318,-5.1606,-5.3977,-5.4187,-5.4322,-5.3888,-5.4187,-5.4503,-5.4503,-5.4503,-5.4503,-5.4503,-5.4503,-5.4503,-5.4503,-5.4503,-5.43,-5.3834,-5.3784,-5.3249,-5.1971,-5.1144,-5.0702,-5.0702,-5.0702,-5.0702,-5.0702,-5.0683,-5.026,-4.9394,-4.9394,-4.8548,-4.6913,-4.6913,-4.6432,-4.5586,-4.5586,-4.5586,-4.5586,-4.5586,-4.5586,-4.5586,-4.5586,-4.5586,-4.5586,-4.5586,-4.5586,-4.5586,-4.5586,-4.5586,-4.5586,-4.5586,-4.5586,-4.5586,-4.5586,-4.5586,-4.5586,-4.5586,-4.622,-4.6721,-4.5836,-4.624,-4.6701,-4.5817,-4.5586,-4.5586,-4.5586,-4.5699,-4.5803,-4.5803,-4.5852,-4.5899,-4.5899,-4.5899,-4.5899,-4.5899,-4.6019,-4.6063,-4.5932,-4.6021,-4.6048,-4.5932,-4.5894,-4.5886,-4.5907,-4.5886,-4.5867,-4.5811,-4.5853,-4.6278,-4.7145,-4.734,-4.7793,-4.8672,-4.8828,-4.8906,-4.8926,-4.8066,-4.8047,-4.8906,-4.8926,-4.9375,-5.0215,-5.0215,-5.0644,-5.1406,-5.1406,-5.1406,-5.1406,-5.1406,-5.1406,-5.1384,-5.1247,-5.1154,-5.1072,-5.0943,-5.0837,-5.0818,-5.3832,-5.3682,-5.3524,-5.3381,-5.3484,-5.3602,-5.3602,-5.3833,-5.4013,-5.4013,-5.4288,-5.4503,-5.4503,-5.4503,-5.4195,-5.3448,-5.2872,-5.2018,-5.0726,-5.0678,-5.0702,-5.0702,-5.0702,-5.0702,-5.0702,-5.0087,-4.9663,-4.9394,-4.8798,-4.7952,-4.6913,-4.6913,-4.6432,-4.5586,-4.5586,-4.5586,-4.5586,-4.5586,-4.5586,-4.5586,-4.5586,-4.5586,-4.5586,-4.5586,-4.5586,-4.5586,-4.5586,-4.5586,-4.5586,-4.5586,-4.5586,-4.5586,-4.5586,-4.5586,-4.5586,-4.5586,-4.622,-4.6837,-4.6569,-4.7106,-4.7394,-4.5951,-4.5586,-4.5586,-4.5586,-4.5699,-4.5794,-4.58,-4.5862,-4.5911,-4.5911,-4.5911,-4.5911,-4.5911,-4.6447,-4.686,-4.6815,-4.6839,-4.6857,-4.6823,-4.6273,-4.614,-4.6759,-4.6262,-4.6101,-4.6604,-4.6047,-4.6373,-4.7893,-4.7434,-4.7883,-4.9551,-4.9062,-4.9375,-5.0644,-4.9844,-4.9551,-4.9824,-5.0371,-5.0781,-5.1035,-5.1035,-5.1172,-5.1406,-5.1406,-5.1406,-5.1406,-5.1406,-5.1406,-5.1406,-5.1371,-5.1229,-5.1095,-5.1067,-5.1625,-5.2318,-5.3604,-5.3359,-5.3206,-5.3206,-5.3206,-5.3206,-5.3206,-5.3422,-5.3565,-5.3565,-5.3814,-5.3979,-5.3979,-5.3979,-5.3564,-5.2555,-5.1581,-5.0752,-5.0144,-5.0336,-5.0544,-5.0683,-5.0702,-5.0702,-5.0702,-5.0183,-4.974,-4.9394,-4.8875,-4.8029,-4.6913,-4.6913,-4.6432,-4.5586,-4.5586,-4.5586,-4.5586,-4.5586,-4.5586,-4.5586,-4.5586,-4.5586,-4.5586,-4.5586,-4.5586,-4.5586,-4.5586,-4.5586,-4.5643,-4.599,-4.6336,-4.6528,-4.6201,-4.6336,-4.6586,-4.6586,-4.7201,-4.7817,-4.7472,-4.7971,-4.8298,-4.6932,-4.6355,-4.6105,-4.6105,-4.6182,-4.624,-4.624,-4.6509,-4.6759,-4.6759,-4.6759,-4.6759,-4.6759,-4.7259,-4.7617,-4.7558,-4.7603,-4.7622,-4.7545,-4.7103,-4.6989,-4.751,-4.7086,-4.6951,-4.7394,-4.6913,-4.7201,-4.8663,-4.8298,-4.8767,-5.0377,-4.9946,-5.0234,-5.1387,-5.0918,-5.0664,-5.0683,-5.1172,-5.1406,-5.1406,-5.1406,-5.1406,-5.1406,-5.1406,-5.1406,-5.1406,-5.1406,-5.1406,-5.1387,-5.1348,-5.124,-5.1127,-5.1043,-5.1568,-5.2183,-5.3272,-5.3206,-5.3206,-5.3206,-5.3206,-5.3206,-5.3206,-5.3206,-5.3206,-5.3206,-5.3206,-5.3206,-5.3206,-5.3206,-5.2692,-5.1472,-5.0252,-4.9684,-4.9974,-5.0068,-5.0272,-5.0624,-5.0683,-5.0644,-5.0587,-5.0644,-5.0298,-4.951,-4.9433,-4.8586,-4.7009,-4.6932,-4.6432,-4.5586,-4.5586,-4.5586,-4.5586,-4.5586,-4.5586,-4.5586,-4.5586,-4.5586,-4.5586,-4.5586,-4.5586,-4.5586,-4.5586,-4.5586,-4.572,-4.6605,-4.7432,-4.7971,-4.724,-4.7509,-4.8105,-4.8105,-4.8721,-4.9221,-4.8432,-4.8856,-4.9336,-4.8529,-4.7721,-4.7105,-4.7028,-4.7009,-4.7009,-4.7009,-4.7586,-4.8105,-4.8105,-4.8105,-4.8105,-4.8105,-4.8278,-4.8355,-4.8221,-4.8317,-4.8336,-4.822,-4.8143,-4.8143,-4.8202,-4.8221,-4.8221,-4.8221,-4.8144,-4.8509,-4.9471,-4.9567,-5.0048,-5.1068,-5.116,-5.1269,-5.1406,-5.1406,-5.1406,-5.1406,-5.1406,-5.1406,-5.1406,-5.1406,-5.1406,-5.1406,-5.1406,-5.1406,-5.1406,-5.1406,-5.1406,-5.1387,-5.1269,-5.1211,-5.1187,-5.0986,-5.0972,-5.1087,-5.3206,-5.3206,-5.3206,-5.3206,-5.3206,-5.3206,-5.3206,-5.3206,-5.3206,-5.3206,-5.3206,-5.3206,-5.3206,-5.3206,-5.2844,-5.1937,-5.0711,-4.9735,-4.9209,-4.9746,-5.0135,-5.0225,-5.0544,-5.0375,-4.9702,-5.0337,-5.0606,-5.0414,-4.9721,-4.8856,-4.7836,-4.7201,-4.6432,-4.5586,-4.5586,-4.5586,-4.5586,-4.5586,-4.5586,-4.5586,-4.5586,-4.5586,-4.5586,-4.5586,-4.5586,-4.5586,-4.5586,-4.5586,-4.572,-4.6605,-4.7432,-4.8067,-4.7894,-4.7971,-4.8105,-4.8087,-4.8721,-4.9356,-4.9164,-4.974,-5.0356,-5.0183,-4.949,-4.8682,-4.8009,-4.7836,-4.7836,-4.7836,-4.799,-4.8105,-4.8105,-4.8105,-4.8105,-4.8105,-4.8702,-4.9144,-4.9125,-4.9144,-4.9144,-4.9106,-4.8529,-4.8375,-4.9048,-4.9125,-4.9125,-4.9125,-4.849,-4.8779,-5.0337,-4.9798,-4.9952,-5.1068,-5.1105,-5.1216,-5.1406,-5.1406,-5.1406,-5.1406,-5.1406,-5.1406,-5.1406,-5.1406,-5.1406,-5.1406,-5.1406,-5.1406,-5.1406,-5.1406,-5.1406,-5.1406,-5.1367,-5.1289,-5.1187,-5.1141,-5.1414,-5.1857,-5.3206,-5.3206,-5.3206,-5.3206,-5.3206,-5.3206,-5.3206,-5.3206,-5.3206,-5.3206,-5.3206,-5.3206,-5.3206,-5.2858,-5.2142,-5.0949,-5.0398,-4.984,-4.9227,-4.9773,-5.0183,-5.0377,-5.018,-4.9875,-4.9413,-4.9433,-4.926,-4.8894,-4.8432,-4.7759,-4.6894,-4.6471,-4.6028,-4.5605,-4.6028,-4.622,-4.622,-4.622,-4.622,-4.6182,-4.5759,-4.5836,-4.622,-4.622,-4.6451,-4.6797,-4.6797,-4.7048,-4.7413,-4.7471,-4.8298,-4.926,-4.8856,-4.9009,-4.9336,-4.9336,-4.9663,-5.001,-5.001,-5.0356,-5.0702,-5.0702,-5.0356,-4.9779,-4.8913,-4.8721,-4.8721,-4.8721,-4.9048,-4.9336,-4.9336,-4.9336,-4.9336,-4.9336,-4.9721,-5.001,-5.001,-5.001,-5.001,-5.001,-4.9625,-4.9529,-4.9971,-5.001,-5.001,-5.001,-4.9606,-4.974,-5.0644,-5.0317,-5.0433,-5.1087,-5.1125,-5.123,-5.1406,-5.1406,-5.1406,-5.1406,-5.1406,-5.1406,-5.1406,-5.1406,-5.1406,-5.1406,-5.1406,-5.1406,-5.1406,-5.1406,-5.1406,-5.1406,-5.1406,-5.1367,-5.1288,-5.123,-5.1339,-5.151,-5.3206,-5.3206,-5.3206,-5.3206,-5.3206,-5.3206,-5.3206,-5.3206,-5.3206,-5.3206,-5.3206,-5.3206,-5.3206,-5.2408,-5.1271,-4.982,-4.9876,-4.9856,-4.9512,-4.9872,-5.0172,-5.0353,-4.976,-4.926,-4.8971,-4.8259,-4.7644,-4.7105,-4.7105,-4.674,-4.6009,-4.5893,-4.5893,-4.6047,-4.649,-4.6759,-4.6894,-4.674,-4.6759,-4.6836,-4.6105,-4.6336,-4.7105,-4.7105,-4.7528,-4.8105,-4.8105,-4.8663,-4.9298,-4.8567,-4.9375,-5.0567,-4.9856,-5.0106,-5.0702,-5.0702,-5.0702,-5.0702,-5.0702,-5.0702,-5.0702,-5.0702,-5.0702,-5.0548,-4.9952,-4.9837,-4.9837,-4.9837,-5.051,-5.1068,-5.0933,-5.0914,-5.0856,-5.0721,-5.0702,-5.0702,-5.0702,-5.0702,-5.0702,-5.0702,-5.0702,-5.0702,-5.0702,-5.0702,-5.0702,-5.0702,-5.0702,-5.0702,-5.0721,-5.0856,-5.0972,-5.1106,-5.1164,-5.1263,-5.1406,-5.1406,-5.1406,-5.1406,-5.1406,-5.1406,-5.1406,-5.1406,-5.1406,-5.1406,-5.1406,-5.1406,-5.1406,-5.1406,-5.1406,-5.1406,-5.1406,-5.1406,-5.1386,-5.1247,-5.1081,-5.091,-5.3206,-5.3206,-5.3206,-5.3206,-5.3206,-5.3206,-5.3206,-5.3206,-5.3206,-5.3206,-5.3206,-5.3206,-5.3206,-5.2098,-5.1008,-5.0133,-4.9771,-4.9577,-4.9522,-4.9872,-4.9792,-4.909,-4.9295,-4.8721,-4.7278,-4.7124,-4.7355,-4.7952,-4.7952,-4.7875,-4.7759,-4.7048,-4.7105,-4.7702,-4.6374,-4.6182,-4.6855,-4.6105,-4.6201,-4.6894,-4.6778,-4.7221,-4.7952,-4.7952,-4.8009,-4.8105,-4.8105,-4.8663,-4.9375,-4.926,-4.9875,-5.0664,-5.0548,-5.0606,-5.0702,-5.0702,-5.0702,-5.0702,-5.0702,-5.0702,-5.0702,-5.0702,-5.0702,-5.0837,-5.1433,-5.1568,-5.1568,-5.1568,-5.226,-5.2626,-5.1895,-5.1741,-5.151,-5.0798,-5.0702,-5.0702,-5.0702,-5.0702,-5.0702,-5.0702,-5.0702,-5.0702,-5.0702,-5.0702,-5.0702,-5.0702,-5.0702,-5.0741,-5.0875,-5.0895,-5.0991,-5.1183,-5.1203,-5.1263,-5.1406,-5.1406,-5.1406,-5.1406,-5.1406,-5.1406,-5.1406,-5.1406,-5.1406,-5.1406,-5.1406,-5.1406,-5.1406,-5.1406,-5.1406,-5.1406,-5.1406,-5.1406,-5.1386,-5.1187,-5.1103,-5.1035,-5.3206,-5.3206,-5.3206,-5.3206,-5.3206,-5.3206,-5.3206,-5.3206,-5.3206,-5.3206,-5.3206,-5.3206,-5.3206,-5.2453,-5.1469,-5.0203,-5.035,-5.032,-4.9865,-5.0206,-5.0248,-4.9884,-4.9106,-4.8336,-4.7586,-4.6644,-4.6355,-4.6701,-4.6701,-4.6951,-4.7413,-4.6567,-4.6855,-4.8048,-4.6855,-4.7067,-4.824,-4.7375,-4.7509,-4.8259,-4.7778,-4.8067,-4.8836,-4.8836,-4.9125,-4.9548,-4.9548,-4.9798,-5.0125,-5.0125,-5.0375,-5.0702,-5.0702,-5.101,-5.1279,-5.0818,-5.1356,-5.1991,-5.151,-5.1722,-5.2107,-5.2087,-5.2106,-5.2183,-5.2549,-5.2991,-5.3223,-5.2741,-5.2933,-5.3087,-5.2702,-5.2645,-5.2356,-5.151,-5.1375,-5.1202,-5.076,-5.0702,-5.0702,-5.0702,-5.0702,-5.0702,-5.0702,-5.0702,-5.0721,-5.0818,-5.0818,-5.0875,-5.101,-5.1049,-5.1106,-5.1203,-5.1275,-5.1336,-5.1406,-5.1406,-5.1406,-5.1406,-5.1406,-5.1406,-5.1406,-5.1406,-5.1406,-5.1406,-5.1406,-5.1406,-5.1406,-5.1406,-5.1406,-5.1406,-5.1406,-5.1406,-5.1384,-5.1214,-5.113,-5.1061]}]]